[[{"header":{"parameterUnit":"m.s-1","parameterCategory":1,"la1":30.6,"la2":29.2853,"lo1":-89.7004,"lo2":-87.6739,"dy":0.0162,"dx":0.0183,"nx":112,"ny":82,"refTime":"2023-04-21T06:00:00:Z","depth":0,"parameterNumber":2,"parameterNumberName":"U-component_of_WINDS"},"data":[0.0,0.0,0.0,0.0,0.0,0.0,0.0,0.0,0.0,0.0,0.0,0.0,0.0,0.0,0.0,0.0,0.0,0.0,0.0,0.0,0.0,0.0,0.0,0.0,0.0,0.0,0.0,0.0,0.0,0.0,0.0,0.0,0.0,0.0,0.0,0.0,0.0,0.0,0.0,0.0,0.0,0.0,0.0,0.0,0.0,0.0,0.0,0.0,0.0,0.0,0.0,0.0,0.0,0.0,0.0,0.0,0.0,0.0,0.0,0.0,0.0,0.0,0.0,0.0,0.0,0.0,0.0,0.0,0.0,0.0,0.0,0.0,0.0,0.0,0.0,0.0,0.0,0.0,0.0,0.0,0.0,0.0,0.0,0.0,0.0,0.0,0.0,0.0,0.0,0.0,2.4436,2.5577,2.5693,2.562,2.5406,2.4146,2.3973,2.5308,0.0,0.0,0.0,0.0,0.0,0.0,0.0,0.0,0.0,0.0,0.0,0.0,0.0,0.0,0.0,0.0,0.0,0.0,0.0,0.0,0.0,0.0,0.0,0.0,0.0,0.0,0.0,0.0,0.0,0.0,0.0,0.0,0.0,0.0,0.0,0.0,0.0,0.0,0.0,0.0,0.0,0.0,0.0,0.0,0.0,0.0,0.0,0.0,0.0,0.0,0.0,0.0,0.0,0.0,0.0,0.0,0.0,0.0,0.0,0.0,0.0,0.0,0.0,0.0,0.0,0.0,0.0,0.0,0.0,0.0,0.0,0.0,0.0,0.0,0.0,0.0,0.0,0.0,0.0,0.0,0.0,0.0,0.0,0.0,0.0,0.0,0.0,0.0,0.0,0.0,0.0,0.0,0.0,0.0,0.0,0.0,0.0,0.0,0.0,0.0,0.0,0.0,0.0,0.0,2.5479,2.5693,2.5693,2.526,2.4097,2.2767,2.2567,2.3924,0.0,0.0,0.0,0.0,0.0,0.0,0.0,0.0,0.0,0.0,0.0,0.0,0.0,0.0,0.0,0.0,0.0,0.0,0.0,0.0,0.0,0.0,0.0,0.0,0.0,0.0,0.0,0.0,0.0,0.0,0.0,0.0,0.0,0.0,0.0,0.0,0.0,0.0,0.0,0.0,0.0,0.0,0.0,0.0,0.0,0.0,0.0,0.0,0.0,0.0,0.0,0.0,0.0,0.0,0.0,0.0,0.0,0.0,0.0,0.0,0.0,0.0,0.0,0.0,0.0,0.0,0.0,0.0,0.0,0.0,0.0,0.0,0.0,0.0,0.0,0.0,0.0,0.0,0.0,0.0,0.0,0.0,0.0,0.0,0.0,0.0,0.0,0.0,0.0,0.0,0.0,0.0,0.0,0.0,0.0,0.0,0.0,0.0,0.0,0.0,0.0,0.0,0.0,2.4805,2.5143,2.3683,2.4171,2.4072,2.2717,2.1355,2.1456,2.3558,2.229,0.0,0.0,0.0,0.0,0.0,0.0,0.0,0.0,0.0,0.0,0.0,0.0,0.0,0.0,0.0,0.0,0.0,0.0,0.0,0.0,0.0,0.0,0.0,0.0,0.0,0.0,0.0,0.0,0.0,0.0,0.0,0.0,0.0,0.0,0.0,0.0,0.0,0.0,0.0,0.0,0.0,0.0,0.0,0.0,0.0,0.0,0.0,0.0,0.0,0.0,0.0,0.0,0.0,0.0,0.0,0.0,0.0,0.0,0.0,0.0,0.0,0.0,0.0,0.0,0.0,0.0,0.0,0.0,0.0,0.0,0.0,0.0,0.0,0.0,0.0,0.0,0.0,0.0,0.0,0.0,0.0,0.0,0.0,0.0,0.0,0.0,0.0,0.0,0.0,0.0,0.0,0.0,0.0,0.0,0.0,0.0,0.0,0.0,0.0,0.0,0.0,0.0,2.4222,2.4565,2.2137,2.3146,2.3238,2.1485,2.0328,2.0581,2.2609,2.0769,0.0,0.0,0.0,0.0,0.0,0.0,0.0,0.0,0.0,0.0,0.0,0.0,0.0,0.0,0.0,0.0,0.0,0.0,0.0,0.0,0.0,0.0,0.0,0.0,0.0,0.0,0.0,0.0,0.0,0.0,0.0,0.0,0.0,0.0,0.0,0.0,0.0,0.0,0.0,0.0,0.0,0.0,0.0,0.0,0.0,0.0,0.0,0.0,0.0,0.0,0.0,0.0,0.0,0.0,0.0,0.0,0.0,0.0,0.0,0.0,0.0,0.0,0.0,0.0,0.0,0.0,0.0,0.0,0.0,0.0,0.0,0.0,0.0,0.0,0.0,0.0,0.0,0.0,0.0,0.0,0.0,0.0,0.0,0.0,0.0,0.0,0.0,0.0,0.0,0.0,0.0,0.0,0.0,0.0,0.0,0.0,0.0,0.0,0.0,0.0,0.0,0.0,2.4757,2.4236,2.2613,2.38,2.3505,2.0476,2.0117,2.0009,1.9901,1.9705,0.0,0.0,0.0,0.0,0.0,0.0,0.0,0.0,0.0,0.0,0.0,0.0,0.0,0.0,0.0,0.0,0.0,0.0,0.0,0.0,0.0,0.0,0.0,0.0,0.0,0.0,0.0,0.0,0.0,0.0,0.0,0.0,0.0,0.0,0.0,0.0,0.0,0.0,0.0,0.0,0.0,0.0,0.0,0.0,0.0,0.0,0.0,0.0,0.0,0.0,0.0,0.0,0.0,0.0,0.0,0.0,0.0,0.0,0.0,0.0,0.0,0.0,0.0,0.0,0.0,0.0,0.0,0.0,0.0,0.0,0.0,0.0,0.0,0.0,0.0,0.0,0.0,0.0,0.0,0.0,0.0,0.0,0.0,0.0,0.0,0.0,0.0,0.0,0.0,0.0,0.0,0.0,0.0,0.0,0.0,0.0,0.0,0.0,0.0,0.0,0.0,0.0,2.2855,2.2509,2.0248,2.1275,2.131,1.926,1.9083,1.9321,1.9877,0.0,0.0,0.0,0.0,0.0,0.0,0.0,0.0,0.0,0.0,0.0,0.0,0.0,0.0,0.0,0.0,0.0,0.0,0.0,0.0,0.0,0.0,0.0,0.0,0.0,0.0,0.0,0.0,0.0,0.0,0.0,0.0,0.0,0.0,0.0,0.0,0.0,0.0,0.0,0.0,0.0,0.0,0.0,0.0,0.0,0.0,0.0,0.0,0.0,0.0,0.0,0.0,0.0,0.0,0.0,0.0,0.0,0.0,0.0,0.0,0.0,0.0,0.0,0.0,0.0,0.0,0.0,0.0,0.0,0.0,0.0,0.0,0.0,0.0,0.0,0.0,0.0,0.0,0.0,0.0,0.0,0.0,0.0,0.0,0.0,0.0,0.0,0.0,0.0,0.0,0.0,0.0,0.0,0.0,0.0,0.0,0.0,0.0,0.0,0.0,0.0,0.0,2.0968,2.1654,2.1341,1.9038,2.003,2.0264,1.8736,1.8624,1.8905,1.9551,0.0,0.0,0.0,0.0,0.0,0.0,0.0,0.0,0.0,0.0,0.0,0.0,0.0,0.0,0.0,0.0,0.0,0.0,0.0,0.0,0.0,0.0,0.0,0.0,0.0,0.0,0.0,0.0,0.0,0.0,0.0,0.0,0.0,0.0,0.0,0.0,0.0,0.0,0.0,0.0,0.0,0.0,0.0,0.0,0.0,0.0,0.0,0.0,0.0,0.0,0.0,0.0,0.0,0.0,0.0,0.0,0.0,0.0,0.0,0.0,0.0,0.0,0.0,0.0,0.0,0.0,0.0,0.0,0.0,0.0,0.0,0.0,0.0,0.0,0.0,0.0,0.0,0.0,0.0,0.0,0.0,0.0,0.0,0.0,0.0,0.0,0.0,0.0,0.0,0.0,0.0,0.0,0.0,0.0,0.0,0.0,0.0,0.0,0.0,0.0,0.0,0.0,2.1586,2.1586,2.1031,1.9562,2.0702,2.0843,1.9058,1.8903,1.8783,0.0,0.0,0.0,0.0,0.0,0.0,0.0,0.0,0.0,0.0,0.0,0.0,0.0,0.0,0.0,0.0,0.0,0.0,0.0,0.0,0.0,0.0,0.0,0.0,0.0,0.0,0.0,0.0,0.0,0.0,0.0,0.0,0.0,0.0,0.0,0.0,0.0,0.0,0.0,0.0,0.0,0.0,0.0,0.0,0.0,0.0,0.0,0.0,0.0,0.0,0.0,0.0,0.0,0.0,0.0,0.0,0.0,0.0,0.0,0.0,0.0,0.0,0.0,0.0,0.0,0.0,0.0,0.0,0.0,0.0,0.0,0.0,0.0,0.0,0.0,0.0,0.0,0.0,0.0,0.0,0.0,0.0,0.0,0.0,0.0,0.0,0.0,0.0,0.0,0.0,0.0,0.0,0.0,0.0,0.0,0.0,0.0,0.0,0.0,0.0,0.0,0.0,0.0,2.004,2.004,1.9866,1.9459,1.9793,1.9839,1.9296,1.9239,1.9105,1.8783,0.0,0.0,0.0,0.0,0.0,0.0,0.0,0.0,0.0,0.0,0.0,0.0,0.0,0.0,0.0,0.0,0.0,0.0,0.0,0.0,0.0,0.0,0.0,0.0,0.0,0.0,0.0,0.0,0.0,0.0,0.0,0.0,0.0,0.0,0.0,0.0,0.0,0.0,0.0,0.0,0.0,0.0,0.0,0.0,0.0,0.0,0.0,0.0,0.0,0.0,0.0,0.0,0.0,0.0,0.0,0.0,0.0,0.0,0.0,0.0,0.0,0.0,0.0,0.0,0.0,0.0,0.0,0.0,0.0,0.0,0.0,0.0,0.0,0.0,0.0,0.0,0.0,0.0,0.0,0.0,0.0,0.0,0.0,0.0,0.0,0.0,0.0,0.0,0.0,0.0,0.0,0.0,0.0,0.0,0.0,0.0,0.0,0.0,0.0,0.0,0.0,0.0,1.9401,1.9401,1.9401,1.9401,1.9401,1.9401,1.9401,1.9401,1.9321,1.9118,0.0,0.0,0.0,0.0,0.0,0.0,0.0,0.0,0.0,0.0,0.0,0.0,0.0,0.0,0.0,0.0,0.0,0.0,0.0,0.0,0.0,0.0,0.0,0.0,0.0,0.0,0.0,0.0,0.0,0.0,0.0,0.0,0.0,0.0,0.0,0.0,0.0,0.0,0.0,0.0,0.0,0.0,0.0,0.0,0.0,0.0,0.0,0.0,0.0,0.0,0.0,0.0,0.0,0.0,0.0,0.0,0.0,0.0,0.0,0.0,0.0,0.0,0.0,0.0,0.0,0.0,0.0,0.0,0.0,0.0,0.0,0.0,0.0,0.0,0.0,0.0,0.0,0.0,0.0,0.0,0.0,0.0,0.0,0.0,0.0,0.0,0.0,0.0,0.0,0.0,0.0,0.0,0.0,0.0,0.0,0.0,0.0,0.0,0.0,0.0,0.0,0.0,1.9401,1.9401,1.9401,1.9401,1.9401,1.9401,1.9401,1.9401,1.9401,1.9401,0.0,0.0,0.0,0.0,0.0,0.0,0.0,0.0,0.0,0.0,0.0,0.0,0.0,0.0,0.0,0.0,0.0,0.0,0.0,0.0,0.0,0.0,0.0,0.0,0.0,0.0,0.0,0.0,0.0,0.0,0.0,0.0,0.0,0.0,0.0,0.0,0.0,0.0,0.0,0.0,0.0,0.0,0.0,0.0,0.0,0.0,0.0,0.0,0.0,0.0,0.0,0.0,0.0,0.0,0.0,0.0,0.0,0.0,0.0,0.0,1.3095,1.384,0.0,0.0,0.0,0.0,0.0,0.0,0.0,0.0,0.0,0.0,0.0,0.0,0.0,0.0,0.0,0.0,0.0,0.0,0.0,0.0,0.0,0.0,0.0,0.0,0.0,0.0,0.0,0.0,0.0,0.0,0.0,0.0,0.0,0.0,0.0,0.0,0.0,0.0,0.0,0.0,1.9401,1.9401,1.9401,1.9401,1.9401,1.9401,1.9401,1.9401,1.9401,1.9401,1.9401,0.0,0.0,0.0,0.0,0.0,0.0,0.0,0.0,0.0,0.0,0.0,0.0,0.0,0.0,0.0,0.0,0.0,0.0,0.0,0.0,0.0,0.0,0.0,0.0,0.0,0.0,0.0,0.0,0.0,0.0,0.0,0.0,0.0,0.0,0.0,0.0,0.0,0.0,0.0,0.0,0.0,0.0,0.0,0.0,0.0,0.0,0.0,0.0,0.0,0.0,0.0,0.0,0.0,0.0,0.0,0.0,0.0,0.0,0.0,1.1663,1.2058,0.0,0.0,0.0,0.0,0.0,0.0,0.0,0.0,0.0,0.0,0.0,0.0,0.0,0.0,0.0,0.0,0.0,0.0,0.0,0.0,0.0,0.0,0.0,0.0,0.0,0.0,0.0,0.0,0.0,0.0,0.0,0.0,0.0,0.0,0.0,0.0,0.0,0.0,0.0,0.0,1.9786,1.9786,1.9786,1.9786,1.9653,1.9573,1.9573,1.9481,1.9068,1.8286,1.8256,0.0,0.0,0.0,0.0,0.0,0.0,0.0,0.0,0.0,0.0,0.0,0.0,0.0,0.0,0.0,0.0,0.0,0.0,0.0,0.0,0.0,0.0,0.0,0.0,0.0,0.0,0.0,0.0,0.0,0.0,0.0,0.0,0.0,0.0,0.0,0.0,0.0,0.0,0.0,0.0,0.0,0.0,0.0,0.0,0.0,0.0,0.0,0.0,0.0,0.0,0.0,0.0,0.0,1.0684,1.0684,1.0684,1.0684,1.0684,1.0684,1.0684,1.0684,1.0684,1.0684,0.0,0.0,0.0,0.0,0.0,0.0,0.0,0.0,0.0,0.0,0.0,0.0,0.0,0.0,0.0,0.0,0.0,0.0,0.0,0.0,0.0,0.0,2.1109,2.1109,2.1109,2.1109,2.1109,0.0,0.0,0.0,0.0,0.0,0.0,0.0,0.0,0.0,0.0,0.0,2.0197,2.0197,2.0197,2.0197,1.9983,1.988,1.988,1.9387,1.8525,1.7191,1.6825,1.6053,0.0,0.0,0.0,0.0,0.0,0.0,0.0,0.0,0.0,0.0,0.0,0.0,0.0,0.0,0.0,0.0,0.0,0.0,0.0,0.0,0.0,0.0,0.0,0.0,0.0,0.0,0.0,0.0,0.0,0.0,0.0,0.0,1.0684,1.0684,0.0,0.0,0.0,0.0,0.0,0.0,0.0,0.0,0.0,0.0,0.0,0.0,0.0,1.0684,1.0684,1.0684,1.0684,1.0684,1.0684,1.0684,1.0684,1.0684,1.0684,1.0684,1.0684,0.0,1.0684,1.0684,0.0,0.0,0.0,0.0,0.0,0.0,0.0,0.0,0.0,0.0,0.0,0.0,0.0,0.0,0.0,0.0,0.0,0.0,0.0,0.0,0.0,0.0,2.1109,2.1109,2.1109,2.1109,2.1109,2.1082,2.1056,2.1056,2.1015,2.0989,0.0,0.0,0.0,0.0,0.0,0.0,2.0197,2.0197,2.0197,2.0197,2.017,2.0144,2.0144,1.8745,1.7765,1.754,1.6089,1.5165,1.4949,1.4949,0.0,0.0,0.0,0.0,0.0,0.0,0.0,0.0,0.0,0.0,0.0,0.0,0.0,0.0,0.0,0.0,0.0,0.0,0.0,0.0,0.0,0.0,0.0,0.0,0.0,0.0,0.0,0.0,0.0,1.0684,1.0684,1.0684,1.0684,1.0684,0.0,0.0,0.0,0.0,0.0,0.0,0.0,0.0,0.0,1.0684,1.0684,1.0684,1.0684,1.0684,1.0684,1.0684,1.0684,1.0684,1.0684,1.0684,1.0684,1.0684,1.0684,1.0684,1.0684,1.0684,1.0684,1.0684,0.0,0.0,0.0,0.0,1.1174,1.1828,1.1828,1.2347,1.2964,1.2964,0.0,0.0,0.0,0.0,0.0,0.0,0.0,1.9865,2.0856,2.1109,2.1109,2.1109,2.1109,2.1109,2.1109,2.1109,2.1109,2.1109,2.1109,2.1109,2.1109,2.1002,0.0,0.0,0.0,2.0691,2.0691,2.0691,2.0691,2.0691,2.0575,2.0068,1.9087,1.8139,1.6803,1.4976,1.4135,1.33,1.2398,1.2366,1.2333,0.0,0.0,0.0,0.0,0.0,0.0,0.0,0.0,0.0,0.0,0.0,0.0,0.0,0.0,0.0,0.0,0.0,0.0,0.0,0.0,0.0,0.0,0.0,0.0,0.0,0.0,0.0,0.0,1.0684,1.0684,1.0684,1.0684,1.0684,0.0,0.0,0.0,0.0,0.0,0.0,1.0745,1.0812,1.0833,1.0833,1.0833,1.0833,1.0833,1.0833,1.0833,1.0833,1.0833,1.0833,1.0833,1.0833,1.0833,1.0833,1.0833,1.0833,1.0826,1.0751,1.0684,1.0684,1.0684,1.0684,1.0684,1.0684,1.0684,1.0684,1.0684,1.0684,1.0684,1.0684,1.1894,1.3292,1.3292,0.0,0.0,0.0,0.0,1.9451,2.0748,2.1109,2.1109,2.1109,2.1109,2.1109,2.1109,2.1109,2.1109,2.1109,2.1109,2.1109,2.1109,2.1109,0.0,2.1109,2.1109,2.1109,2.1109,2.0716,2.043,2.043,1.9846,1.8966,1.765,1.6904,1.5459,1.3006,1.2433,1.1652,1.0456,1.0392,1.0403,1.0337,0.0,0.0,0.0,0.0,0.0,0.0,0.0,0.0,0.0,0.0,0.0,0.0,0.0,0.0,0.0,0.0,0.0,0.0,0.0,0.0,0.0,0.0,0.0,0.0,0.0,0.0,0.0,0.0,0.0,1.0684,1.0684,0.0,0.0,0.0,0.0,1.0684,1.0819,1.0901,1.0901,1.1063,1.1172,1.1172,1.1172,1.1172,1.1172,1.1172,1.1172,1.1172,1.1172,1.1172,1.1172,1.1172,1.1172,1.1172,1.1172,1.1172,1.1152,1.0839,1.0684,1.0684,1.0684,1.0684,1.0684,1.0684,1.0684,1.0684,1.0684,1.0684,1.0684,1.0684,1.1894,1.3292,1.3292,1.5654,0.0,0.0,1.9674,2.0982,2.1077,2.1109,2.1109,2.1109,2.1109,2.1109,2.1109,2.1109,2.1109,2.1109,2.1109,2.1109,2.1109,0.0,2.1109,2.1109,2.1109,2.1109,2.1109,1.9642,1.864,1.864,1.7141,1.613,1.6033,1.4465,1.3454,1.3291,1.1706,1.0763,1.0664,1.0664,1.0629,1.0487,1.0622,0.0,0.0,0.0,0.0,0.0,0.0,0.0,0.0,0.0,0.0,0.0,0.0,0.0,0.0,0.0,0.0,0.0,0.0,0.0,0.0,0.0,0.0,0.0,0.0,0.0,0.0,0.0,0.0,1.1002,1.1002,0.0,1.1002,1.1002,1.1002,1.1002,1.1056,1.1084,1.1084,1.1166,1.12,1.12,1.12,1.12,1.12,1.12,1.12,1.12,1.12,1.12,1.12,1.12,1.12,1.12,1.12,1.12,1.1186,1.1084,1.1002,1.1002,1.1002,1.0948,1.0833,1.0833,1.0772,1.0684,1.0684,1.0684,1.0684,1.0684,1.1115,1.163,1.163,1.2479,1.3709,1.4851,1.6399,1.802,1.912,2.0259,2.1109,2.1109,2.1109,2.1109,2.1109,2.1109,2.1109,2.1109,2.1109,2.1109,2.1109,2.1109,2.1109,2.1109,2.0164,1.9419,1.9419,1.7923,1.6818,1.6818,1.6269,1.5459,1.433,1.3643,1.2832,1.1696,1.1049,1.0684,1.0684,1.0684,1.0697,1.0636,1.069,1.0697,0.0,0.0,0.0,0.0,0.0,0.0,0.0,0.0,0.0,0.0,0.0,0.0,0.0,0.0,0.0,0.0,0.0,0.0,0.0,0.0,0.0,0.0,0.0,0.0,0.0,1.12,1.12,1.12,1.12,1.12,1.12,1.12,1.12,1.12,1.1247,1.1274,1.1274,1.1322,1.1314,1.1314,1.1314,1.1314,1.1314,1.1314,1.1314,1.1314,1.1314,1.1314,1.1314,1.1314,1.1314,1.1314,1.1314,1.1314,1.1314,1.1314,1.1314,1.1342,1.124,1.1104,1.0988,1.0988,1.0955,1.0867,1.0867,1.0867,1.0867,1.0867,1.0867,1.0867,1.0867,1.1629,1.2765,1.3912,1.5876,1.7923,1.9088,2.0227,2.1109,2.1109,2.1109,2.1109,2.1109,2.1109,2.1109,2.1109,2.1109,2.1109,2.1109,2.1109,2.1109,2.1109,1.961,1.8512,1.8512,1.6463,1.5005,1.5005,1.4493,1.3676,1.2512,1.2413,1.1927,1.0784,1.0684,1.0684,1.0684,1.0684,1.0684,1.0684,1.0684,1.0684,1.0684,0.0,0.0,0.0,0.0,0.0,0.0,0.0,0.0,0.0,0.0,0.0,0.0,0.0,0.0,0.0,0.0,0.0,0.0,0.0,0.0,0.0,0.0,0.0,1.1234,1.1213,1.1213,1.1213,1.1213,1.1213,1.1213,1.1213,1.1213,1.1213,1.1314,1.1396,1.1396,1.1538,1.1584,1.1584,1.1584,1.1584,1.1584,1.1584,1.1584,1.1584,1.1584,1.1584,1.1584,1.1584,1.1584,1.1584,1.1584,1.1584,1.1584,1.1584,1.1584,1.1556,1.1329,1.1206,1.1206,1.1206,1.12,1.12,1.12,1.12,1.12,1.12,1.12,1.12,1.12,1.3417,1.5969,1.6035,1.8399,2.0977,2.1041,2.1104,2.1136,2.1136,2.1136,2.1136,2.1136,2.1136,2.1136,2.1122,2.1122,2.1122,2.1109,2.1046,2.1014,2.1014,1.9483,0.0,1.834,1.5329,1.3226,1.3226,1.1696,1.0684,1.0684,1.0684,1.0684,1.0684,1.0684,1.0684,1.0684,1.0684,1.0684,1.0684,1.0684,1.0684,1.0684,0.0,0.0,0.0,0.0,0.0,0.0,0.0,0.0,0.0,0.0,0.0,0.0,0.0,0.0,0.0,0.0,0.0,0.0,0.0,0.0,0.0,1.1558,1.1545,1.1497,1.1497,1.1497,1.1497,1.1497,1.1497,1.1497,1.1497,1.1497,1.1497,1.1531,1.1558,1.1558,1.1599,1.1584,1.1584,1.1584,1.1584,1.1584,1.1584,1.1584,1.1584,1.1584,1.1584,1.1584,1.1584,1.1584,1.1584,1.1584,1.1584,1.1584,1.1584,1.1584,1.1577,1.1525,1.1423,1.1363,1.1363,1.1295,1.12,1.12,1.12,1.12,1.12,1.12,1.12,1.12,1.1812,1.2828,1.4171,1.6148,1.8139,1.9504,2.081,2.175,2.175,2.175,2.175,2.175,2.175,2.1683,2.1502,2.1462,2.1395,2.1149,2.0068,1.9228,1.9228,1.6657,1.4721,1.4721,1.2808,1.1406,1.1406,1.0982,1.0684,1.0684,1.0684,1.0684,1.0684,1.0684,1.0684,1.0684,1.0684,1.0684,1.0684,1.0684,1.0684,0.0,0.0,0.0,0.0,0.0,0.0,0.0,0.0,0.0,0.0,0.0,0.0,0.0,0.0,0.0,0.0,0.0,0.0,0.0,0.0,0.0,0.0,1.1584,1.1584,1.1584,1.1584,1.1584,1.1584,1.1584,1.1584,1.1584,1.1584,1.1584,1.1584,1.1638,1.1671,1.1671,1.1769,1.1803,1.1803,1.1803,1.1803,1.1803,1.1803,1.1803,1.1803,1.1803,1.1803,1.1803,1.1803,1.1803,1.1803,1.1803,1.1803,1.1803,1.1803,1.1769,1.1665,0.0,0.0,0.0,0.0,1.143,1.1355,1.1355,1.1355,1.1355,1.1355,1.1909,1.2525,1.2525,1.3575,1.4946,1.604,1.7575,1.9109,2.0219,2.1238,2.1991,2.1991,2.1991,2.1991,2.1991,2.1991,2.1727,2.079,2.06,0.0,1.9288,1.8782,1.8512,1.8512,1.5524,1.3292,1.3292,1.1795,1.0684,1.0684,1.0684,1.0684,1.0684,1.0684,0.0,0.0,0.0,1.0684,1.0684,1.0684,0.0,0.0,0.0,1.0684,1.0684,1.0684,0.0,0.0,1.0684,1.0684,0.0,0.0,0.0,0.0,0.0,0.0,0.0,0.0,0.0,0.0,0.0,0.0,0.0,0.0,0.0,0.0,1.1667,1.1667,1.1667,1.1667,1.1667,1.1647,1.1624,1.1667,1.1667,1.1667,1.1667,1.1667,1.1782,1.182,1.182,1.1986,0.0,0.0,0.0,1.2098,1.2098,1.2098,1.2098,1.2098,1.2098,1.2098,1.2098,1.2098,1.2098,1.2098,1.2098,1.2098,1.2098,1.2098,1.1979,1.1807,1.1644,1.1584,1.1584,1.1584,1.1584,1.1584,1.1584,0.0,0.0,1.1584,1.2745,1.4112,1.4326,1.6549,1.9084,1.954,2.0671,2.1819,2.2051,2.2084,2.2084,2.2084,2.2084,2.2084,2.2084,2.2084,2.1594,1.9881,1.9568,1.8943,1.7053,1.7401,1.7971,1.7971,1.5179,1.3054,1.3054,1.1722,1.0772,1.0772,1.0772,0.0,1.0772,1.0772,1.0772,1.0772,1.0772,1.0772,1.0772,1.0772,1.0772,1.0772,1.0772,1.0772,1.0772,1.0772,1.0772,1.0772,1.0738,1.0698,0.0,0.0,0.0,0.0,0.0,0.0,0.0,0.0,0.0,0.0,0.0,0.0,0.0,0.0,0.0,1.2016,1.2016,1.2016,1.2016,1.2016,1.1932,1.1766,1.1898,1.2016,1.2016,1.2016,1.2016,1.2016,1.2036,1.2057,1.2057,1.2084,1.2098,1.2098,1.2098,1.2098,1.2098,1.2098,1.2098,1.2098,1.2098,0.0,1.2098,1.2098,1.2098,1.2098,1.2098,1.2098,1.2098,1.2098,1.2084,1.203,1.1721,1.1584,1.1584,1.1584,1.1584,1.1584,1.1584,1.1584,1.1584,1.1584,1.1864,1.2431,1.3943,1.4858,0.0,1.9138,2.0221,2.0816,2.2345,2.2733,2.2733,2.2733,2.2733,2.2733,2.2733,2.2733,2.2551,2.1895,2.1789,2.1128,1.9022,1.6476,1.4711,1.4711,1.2924,1.1617,1.1617,1.1317,1.1111,1.1111,1.1111,1.1111,1.1111,1.1111,1.1111,1.1111,1.1111,1.1111,1.1111,1.1111,1.1111,1.1111,1.1111,1.1111,1.1111,1.1111,1.1111,1.1104,1.0833,1.0752,0.0,0.0,0.0,0.0,0.0,0.0,0.0,0.0,0.0,0.0,0.0,1.1945,1.1945,0.0,1.2098,1.2098,1.2098,1.2098,1.2098,1.2166,1.2159,1.1965,1.205,1.2098,1.2098,1.2098,1.2098,1.2098,1.2173,1.2247,1.2315,1.2352,1.2433,1.2547,1.2554,1.2554,1.2554,1.2554,1.2554,1.2554,1.2554,1.2554,1.2554,1.2554,1.2554,1.2554,1.2554,1.2506,1.2386,1.2275,1.2213,1.2193,1.1932,1.1843,1.1843,1.1843,1.1843,1.1843,1.1843,1.1843,1.202,1.3028,1.3994,1.5109,1.707,1.8332,1.9517,2.1415,2.1956,2.2167,2.3104,2.3348,2.3348,2.3348,2.3241,2.31,2.31,2.2263,2.1167,2.0024,1.906,1.7763,1.5734,1.3883,1.2963,1.3703,1.2315,1.12,1.12,1.12,1.12,1.12,1.12,1.12,1.12,1.12,1.12,1.12,1.12,1.12,1.12,1.12,1.12,1.12,1.12,1.12,1.12,1.12,1.12,1.1193,1.1043,1.0982,0.0,0.0,0.0,0.0,0.0,0.0,0.0,1.2098,1.2098,1.2098,1.2125,1.2145,1.2145,1.2166,1.2193,1.2227,1.2227,1.2241,1.2268,1.2383,1.2411,1.2288,1.2247,1.2241,1.2268,1.2275,1.2275,1.2275,1.239,1.2467,1.2583,1.2705,1.2834,1.2996,1.3003,1.3003,1.3003,1.3003,1.3003,1.3003,1.3003,1.3003,1.3003,1.3003,1.3003,1.3003,1.3003,1.2888,1.2759,1.2522,1.242,1.2445,1.2322,1.2275,1.2261,1.2139,1.2098,1.2098,1.2098,1.2098,1.2359,1.4009,1.5534,1.7138,1.9141,2.0826,2.2156,2.2515,2.2885,2.3184,2.3184,2.3518,2.3803,2.3803,2.3581,2.3407,2.3407,2.2043,2.0355,1.8801,1.6919,1.5034,1.3159,1.2489,1.248,1.3255,1.2177,1.1288,1.1288,1.1288,1.1288,1.1288,1.1288,1.1288,1.1288,1.1288,1.1295,1.1329,1.1329,1.1342,1.137,1.137,1.137,1.137,1.137,1.137,1.137,1.137,1.137,1.137,1.137,1.1329,1.2009,1.205,1.205,1.207,1.207,1.2077,0.0,1.2098,1.2098,1.2098,1.2207,1.2264,1.2264,1.2366,1.2494,1.2591,1.2618,1.2705,1.288,1.2914,1.2921,1.2901,1.2739,1.2712,1.2887,1.2901,1.2901,1.2901,1.2914,1.2935,1.2948,1.2969,1.2982,1.3003,1.3003,1.3003,1.3003,1.3003,1.3003,1.3003,1.3003,1.3003,1.3003,1.3003,1.3003,1.3003,1.3003,1.2989,1.2975,1.2941,1.2928,1.2928,1.2907,1.2901,1.2833,1.2295,1.2098,1.2098,1.2098,1.2098,1.2135,1.2359,1.2575,1.3089,1.4982,1.5709,1.6223,1.7905,1.9659,2.1054,2.1054,2.2407,2.3803,2.3803,2.3777,2.3728,2.3728,2.3545,2.3306,2.3093,2.1401,1.9401,1.7497,1.572,1.3929,1.2108,1.1673,1.1565,1.1565,1.1565,1.1565,1.1565,1.1565,1.1565,1.1565,1.1565,1.1619,1.1748,1.1719,1.1816,1.1996,1.1996,1.1996,1.1996,1.1996,1.1996,1.1996,1.1996,1.1996,1.1996,1.1996,1.1785,1.2084,1.2098,1.2118,1.2213,1.2234,1.2254,1.2298,1.2318,1.2318,1.2318,1.244,1.2542,1.2542,1.2664,1.2833,1.2854,1.2868,1.2888,1.2989,1.3003,1.303,1.3111,1.303,1.2983,1.3003,1.3003,1.3003,1.3003,1.3003,1.3037,1.3118,1.3125,1.3166,1.3214,1.3214,1.3214,1.3214,1.3214,1.3214,1.3214,1.3214,1.3214,1.3214,1.3214,1.3214,1.3214,1.3166,1.3125,1.3118,1.3037,1.3003,1.3003,1.3003,1.3003,1.2969,1.2717,1.2622,1.2622,1.2622,1.3424,1.4686,1.5863,1.696,1.8218,2.0217,2.0712,2.0708,2.1505,2.2325,2.296,2.296,2.3593,2.3971,2.2814,2.2396,2.1946,2.0721,1.9504,1.8633,1.8633,1.7038,1.5469,1.4658,1.3816,1.297,1.2038,1.1877,1.1877,1.1877,1.1877,1.1877,1.1877,1.1877,1.1877,1.1877,1.1877,1.1904,1.1965,1.1965,1.1993,1.2098,1.2098,1.2098,1.2098,1.2098,1.2098,1.2098,1.2098,1.2098,1.2098,1.2098,1.1996,1.222,1.222,1.2247,1.2318,1.2345,1.2386,1.2528,1.2562,1.2576,1.2623,1.2718,1.2793,1.2793,1.2888,1.3016,1.305,1.3098,1.3139,1.318,1.322,1.3241,1.3342,1.3356,1.3315,1.3214,1.3207,1.3186,1.3186,1.318,1.3247,1.3349,1.3356,1.341,1.3519,1.3519,1.3519,1.3519,1.3519,1.3519,1.3519,1.3519,1.3519,1.3519,1.3519,1.3519,1.3512,1.3403,1.3356,1.3349,1.3247,1.3207,1.3207,1.3207,1.322,1.3186,1.3186,1.3468,1.3869,1.3869,1.5281,1.7314,1.8808,2.0177,2.1536,2.306,2.3342,2.3179,2.3192,2.358,2.4029,2.4029,2.4416,2.449,2.3029,2.2545,2.1803,1.9725,1.8053,1.674,1.6141,1.4474,1.3164,1.3164,1.2723,1.2349,1.2349,1.2349,1.2288,1.2118,1.2098,1.2098,1.2098,1.2098,1.2098,1.2098,1.2098,1.2118,1.2159,1.2166,1.2179,1.222,1.222,1.222,1.222,1.222,1.222,1.222,1.222,1.222,1.222,1.222,1.258,1.2488,1.2488,1.2488,1.2494,1.2494,1.2535,1.2645,1.2686,1.2766,1.2955,1.2989,1.2996,1.2996,1.2996,1.305,1.3186,1.3288,1.3437,1.3545,1.3687,1.3774,1.3774,1.3774,1.3774,1.3774,1.3646,1.3565,1.3565,1.3693,1.3774,1.3774,1.3774,1.3781,1.3781,1.3781,1.3781,1.3781,1.3781,1.3781,1.3781,1.3781,1.3781,1.3781,1.3781,1.3781,1.3781,1.3781,1.3774,1.3774,1.3774,1.3774,1.3774,1.3774,1.3687,1.3565,1.3565,1.4672,1.6098,1.6098,1.7511,1.9298,1.9464,1.9493,1.9493,1.9571,1.9561,1.9561,1.9639,2.1051,2.2573,2.2573,2.3996,2.5453,2.5415,2.5363,2.4763,2.265,2.2098,2.1428,1.9306,1.7268,1.5897,1.5897,1.4264,1.2975,1.2975,1.2975,1.2764,1.2173,1.2098,1.2098,1.2098,1.2098,1.2098,1.2098,1.2098,1.2166,1.2277,1.2284,1.2345,1.2481,1.2488,1.2488,1.2488,1.2488,1.2488,1.2488,1.2488,1.2488,1.2488,1.2488,1.3712,1.2623,1.2611,1.2678,1.2779,1.2846,1.286,1.2874,1.2881,1.2941,1.2989,1.3077,1.3173,1.3234,1.3336,1.3451,1.3593,1.3661,1.3666,1.372,1.3768,1.3795,1.3795,1.3795,1.3795,1.3795,1.3754,1.3727,1.3727,1.3774,1.3795,1.3795,1.3795,1.3795,1.3795,1.3795,1.3795,1.3795,1.3795,1.3795,1.3795,1.3795,1.3795,1.3795,1.3795,1.3795,1.3795,1.3795,1.3795,1.3795,1.3795,1.4728,1.6111,1.6111,1.7045,1.8373,1.8373,1.9649,2.0884,1.7602,1.7907,1.9954,2.1442,2.1767,2.1592,2.1592,2.2467,2.315,2.1745,2.2879,2.4175,2.2725,2.2879,2.2686,1.9855,1.919,1.8642,1.6581,1.6146,1.5908,1.5162,1.4453,1.4022,1.4022,1.3436,1.3003,1.3003,1.3003,1.2928,1.2724,1.2696,1.2696,1.2696,1.2696,1.2696,1.2696,1.2696,1.2717,1.2771,1.2771,1.2799,1.2846,1.2846,1.2846,1.2846,1.2846,1.2846,1.2846,1.2846,1.2846,1.2846,1.2846,1.4001,1.2786,1.2813,1.2834,1.2975,1.3003,1.3016,1.3064,1.3118,1.3173,1.3186,1.3315,1.3444,1.3539,1.3599,1.3693,1.3781,1.3842,1.3926,1.3926,1.3966,1.3964,1.3964,1.3964,1.3964,1.3964,1.3964,1.3937,1.3926,1.393,1.3964,1.3964,1.3964,1.3964,1.3964,1.3964,1.3964,1.3964,1.3964,1.3964,1.3964,1.3964,1.3964,1.3964,1.3964,1.3964,1.3964,1.3964,1.3964,1.3964,1.3964,1.4858,1.6223,1.6223,1.7118,1.8412,1.8412,2.0256,2.2439,2.0066,2.0702,2.2762,2.415,2.4483,2.4347,2.4347,2.52,2.5858,2.4495,2.5086,2.5819,2.4456,2.4014,2.3024,1.9543,1.8607,1.7763,1.491,1.4271,1.4077,1.3281,1.3159,1.3159,1.3159,1.3159,1.3159,1.3159,1.3159,1.3118,1.3016,1.3003,1.3003,1.3003,1.3003,1.3003,1.3003,1.3003,1.3003,1.3003,1.3003,1.3003,1.3003,1.3003,1.3003,1.3003,1.3003,1.3003,1.3003,1.3003,1.3396,1.4141,1.4141,1.5743,1.3009,1.3009,1.3016,1.303,1.3037,1.3071,1.3214,1.3315,1.3464,1.3565,1.3707,1.3802,1.3808,1.3808,1.3815,1.3822,1.3987,1.4125,1.4125,1.4211,1.4299,1.4299,1.4299,1.4299,1.4299,1.4299,1.4238,1.4139,1.4217,1.4299,1.4299,1.4299,1.4299,1.4299,1.4299,1.4299,1.4299,1.4299,1.4299,1.4299,1.4299,1.4299,1.4299,1.4299,1.4299,1.4299,1.4299,1.4387,1.4476,1.4476,1.4564,1.4646,1.4778,1.4731,1.4641,1.4771,1.7434,2.1306,2.3442,2.5479,2.7132,2.7268,2.7227,2.7145,2.7145,2.7227,2.7268,2.7145,2.7227,2.7268,2.7145,2.6892,2.6102,2.3958,2.319,2.1838,1.7696,1.6714,1.6024,1.3998,1.3507,1.3424,1.3424,1.3424,1.3424,1.3424,1.3424,1.3315,1.3064,1.3023,1.3023,1.3023,1.3023,1.3023,1.3023,1.3023,1.3023,1.3023,1.3023,1.3023,1.3023,1.3023,1.3023,1.3023,1.3023,1.3023,1.3023,1.3143,1.4244,1.6211,1.633,1.8749,1.3132,1.3159,1.3214,1.3403,1.3458,1.3498,1.3641,1.366,1.37,1.3734,1.3774,1.3835,1.3994,1.4014,1.4048,1.4163,1.4217,1.4245,1.4245,1.4278,1.4299,1.4299,1.4299,1.4299,1.4299,1.4299,1.4285,1.4245,1.4278,1.4299,1.4299,1.4299,1.4299,1.4299,1.4299,1.4299,1.4299,1.4299,1.4299,1.4299,1.4299,1.4299,1.4299,1.4299,1.4299,1.4299,1.4299,1.53,1.6896,1.6896,1.7894,1.9628,2.1361,2.202,2.2214,2.3977,2.5313,2.6373,2.6932,2.6137,2.5124,2.6764,2.6164,2.4824,2.4824,2.6,2.6969,2.5289,2.6041,2.6928,2.5289,2.4775,2.418,2.2021,2.144,2.1066,1.9977,1.836,1.6944,1.6397,1.4902,1.3687,1.3687,1.3687,1.3687,1.3687,1.3687,1.3578,1.3329,1.3288,1.3288,1.3288,1.3288,1.3288,1.3288,1.3288,1.3288,1.3288,1.3288,1.3288,1.3288,1.3288,1.3288,1.3288,1.3288,1.3288,1.3288,1.4898,1.5943,1.6544,1.8204,2.0448,1.3349,1.3417,1.3505,1.3639,1.368,1.37,1.3781,1.3849,1.3939,1.3939,1.3994,1.4068,1.4156,1.417,1.4197,1.4285,1.4299,1.4299,1.4299,1.4299,1.4299,1.4299,1.4299,1.4299,1.4299,1.4299,1.4299,1.4299,1.4299,1.4299,1.4299,1.4299,1.4299,1.4299,1.4299,1.4299,1.4299,1.4299,1.4299,1.4299,1.4299,1.4299,1.4343,1.5389,1.5256,1.4431,1.6473,1.7501,1.7894,1.8889,2.0053,2.1351,2.2654,2.3169,2.3298,2.4636,2.5756,2.6673,2.6673,2.6289,2.6024,2.731,2.6882,2.5858,2.5858,2.6716,2.7435,2.6204,2.6758,2.7186,2.4885,2.4204,2.3276,2.0125,1.9255,1.8894,1.7924,1.6705,1.5779,1.5779,1.4686,1.3795,1.3795,1.3795,1.3795,1.3795,1.3795,1.3741,1.3572,1.3593,1.3593,1.3593,1.3593,1.3593,1.3593,1.3593,1.3593,1.3593,1.3593,1.3593,1.3593,1.3593,1.4049,1.5082,1.5124,1.5625,1.6651,1.7847,1.8913,1.9892,2.1133,2.2859,1.3612,1.3707,1.3802,1.3822,1.3829,1.3835,1.3856,1.4007,1.4146,1.4146,1.4204,1.4299,1.4299,1.4299,1.4299,1.4299,1.4299,1.4299,1.4299,1.4299,1.4299,1.4299,1.4299,1.4299,1.4299,1.4299,1.4299,1.4299,1.4299,1.4299,1.4299,1.4299,1.4299,1.4299,1.4299,1.4299,1.4299,1.4299,1.4299,1.4299,1.4299,1.4299,1.4387,1.6422,1.6254,1.452,1.8549,1.9324,1.7929,1.9922,2.0746,2.0832,2.1437,2.148,2.1264,2.1911,2.3427,2.516,2.516,2.6503,2.8179,2.8179,2.8179,2.8179,2.8179,2.8179,2.8179,2.8179,2.8179,2.7743,2.5683,2.495,2.3748,1.9828,1.8511,1.7587,1.5677,1.4743,1.4235,1.3942,1.3862,1.3862,1.3862,1.3862,1.3862,1.3862,1.3862,1.3862,1.3862,1.3822,1.3795,1.3795,1.3795,1.3795,1.3795,1.3795,1.3795,1.3795,1.3795,1.3795,1.3795,1.3795,1.4771,1.679,1.7121,1.8304,2.0355,2.094,2.2192,2.3998,2.4287,2.5454,1.3727,1.3781,1.3829,1.4,1.4034,1.4061,1.419,1.4245,1.4258,1.4258,1.4278,1.4299,1.4299,1.4299,1.4299,1.4299,1.4299,1.4299,1.4299,1.4299,1.4299,1.4299,1.4299,1.4299,1.4299,1.4299,1.4299,1.4299,1.4299,1.4299,1.4299,1.4299,1.4299,1.4299,1.4299,1.4299,1.4299,1.4299,1.4299,1.4299,1.4299,1.4299,1.4299,1.4734,1.469,1.4343,1.5168,1.6378,1.7842,1.8235,1.8409,1.8758,2.2611,2.2912,2.1653,2.5543,2.7223,2.7575,2.7575,2.7841,2.8179,2.8179,2.8179,2.8179,2.8179,2.8179,2.8179,2.8179,2.8179,2.8094,2.7701,2.7535,2.7327,2.6512,2.484,2.3261,2.2877,1.9818,1.6546,1.4606,1.4217,1.4217,1.4217,1.4217,1.4217,1.4217,1.4217,1.4217,1.4217,1.3957,1.3795,1.3795,1.3795,1.3795,1.3795,1.3795,1.3795,1.3795,1.3795,1.3795,1.3795,1.3795,1.4009,1.4387,1.6323,1.7501,1.7924,2.165,2.3655,2.4028,2.5877,2.6928,1.3939,1.4021,1.4095,1.417,1.419,1.4211,1.4285,1.4299,1.4299,1.4299,1.4299,1.4299,1.4299,1.4299,1.4299,1.4299,1.4299,1.4299,1.4299,1.4299,1.4299,1.4299,1.4299,1.4326,1.4401,1.4407,1.4441,1.4478,1.4529,1.4462,1.4306,1.4299,1.4299,1.4299,1.4299,1.4299,1.4299,1.4299,1.4299,1.4299,1.4299,1.4299,1.4343,1.5557,1.5469,1.4431,1.686,1.7851,1.7894,1.9097,2.0269,2.161,2.3824,2.4764,2.5105,2.7363,2.8179,2.8179,2.8179,2.8179,2.8179,2.8179,2.8179,2.8179,2.8179,2.8179,2.8179,2.8179,2.8179,2.7926,2.6715,2.6376,2.6066,2.485,2.3684,2.2557,2.1351,2.0313,1.854,1.4999,1.53,1.5734,1.452,1.4299,1.4299,1.4299,1.4299,1.4299,1.4299,1.417,1.4082,1.4082,1.4082,1.4082,1.4082,1.4082,1.4082,1.4082,1.5191,1.5869,1.5869,1.7027,1.8224,1.9457,2.0567,2.1758,2.2985,2.5155,2.6184,2.6225,2.7293,2.7764,1.4159,1.4211,1.4299,1.4299,1.4299,1.4299,1.4299,1.4299,1.4299,1.4299,1.4299,1.4299,1.4299,1.4299,1.4299,1.4299,1.4299,1.4299,1.4299,1.4299,1.4312,1.434,1.4346,1.4401,1.455,1.4563,1.4611,1.4687,1.4694,1.4593,1.4407,1.4394,1.4394,1.4394,1.4394,1.4394,1.4394,1.4394,1.4394,1.4394,1.4394,1.4394,1.4438,1.631,1.6141,1.4572,1.8233,1.8795,1.7265,1.9057,2.1162,2.3333,2.3761,2.5373,2.749,2.801,2.8179,2.8179,2.8179,2.8179,2.8179,2.8179,2.8179,2.8179,2.8179,2.8179,2.8179,2.8179,2.8179,2.7799,2.5939,2.547,2.4861,2.2514,2.1954,2.1307,1.9019,1.9922,2.0096,1.6473,1.729,1.7938,1.6078,1.5778,1.5778,1.5778,1.5778,1.5778,1.5778,1.5778,1.5778,1.5778,1.4911,1.4299,1.4299,1.4778,1.5036,1.5036,1.7247,1.854,1.854,2.0269,2.2084,2.3909,2.4434,2.5598,2.7448,2.7968,2.8179,2.8179,2.8179,2.8179,1.4245,1.4292,1.4299,1.4299,1.4299,1.4299,1.4299,1.4299,1.4299,1.4299,1.4299,1.4299,1.4299,1.4299,1.4299,1.4299,1.4299,1.4299,1.4299,1.4299,1.4346,1.4475,1.4489,1.455,1.466,1.4674,1.4681,1.4694,1.4694,1.4681,1.4654,1.4654,1.4654,1.4654,1.4654,1.4654,1.4654,1.4654,1.4654,1.4654,1.4654,1.4654,1.4654,1.4881,1.4874,1.4699,1.5101,1.5192,1.4996,1.5075,1.6522,1.8787,2.0781,2.2955,2.5288,2.7405,2.8179,2.8179,2.8179,2.8179,2.8179,2.8179,2.8179,2.8179,2.8179,2.8179,2.8179,2.8179,2.8179,2.8136,2.7926,2.7883,2.7279,2.4947,2.438,2.3738,2.1394,2.1048,2.1091,2.0659,2.0746,2.0832,2.0616,2.0572,2.0572,2.0572,2.0572,2.0572,2.0572,2.0572,2.0572,2.0572,1.6817,1.4299,1.4299,1.6246,1.7501,1.7501,1.9619,2.0875,2.0875,2.1091,2.1307,2.1523,2.3598,2.4819,2.5032,2.7152,2.8179,2.8179,2.8179,2.8179,1.4285,1.4299,1.4299,1.4299,1.4299,1.4299,1.4299,1.4299,1.4299,1.4299,1.4299,1.4299,1.4299,1.4299,1.4299,1.4299,1.4299,1.4299,1.4299,1.4373,1.4448,1.4502,1.459,1.4706,1.4862,1.4875,1.4916,1.4997,1.5004,1.5004,1.5004,1.4789,1.4694,1.4694,1.4694,1.4694,1.4694,1.4694,1.4694,1.4694,1.4694,1.4694,1.4694,1.4694,1.4694,1.4694,1.4694,1.4694,1.4824,1.6235,1.8211,2.0594,2.2942,2.5279,2.7409,2.8327,2.8684,2.8684,2.8684,2.8564,2.8417,2.8417,2.8339,2.8179,2.8179,2.8179,2.8179,2.8179,2.7194,2.6418,2.7841,2.7152,2.5501,2.3169,2.2611,2.1954,1.9662,2.0226,2.0356,1.7597,1.82,1.8714,1.729,1.7036,1.7036,1.7036,1.7036,1.7036,1.7036,1.7036,1.7036,1.7036,1.7894,1.8462,1.8462,1.9324,1.9836,1.9836,2.1998,2.3298,2.3298,2.4679,2.5416,2.5416,2.6321,2.68,2.68,2.7757,2.8179,2.8179,2.8179,2.8179,1.4299,1.4299,1.4299,1.4299,1.4299,1.4299,1.4299,1.4299,1.4299,1.4299,1.4299,1.4299,1.4299,1.4299,1.4299,1.4299,1.4299,1.4312,1.4353,1.4448,1.4543,1.4638,1.474,1.4869,1.5018,1.5078,1.5119,1.5174,1.5181,1.5181,1.5181,1.4984,1.4869,1.4869,1.4869,1.4869,1.4869,1.4869,1.4869,1.4869,1.4869,1.4869,1.4869,1.4869,1.4869,1.4869,1.4869,1.4869,1.5,1.6674,1.8759,2.1038,2.2721,2.4837,2.6928,2.7653,2.7466,2.7059,2.8496,2.8421,2.7762,2.8466,2.8591,2.8446,2.8446,2.8326,2.8179,2.8179,2.7012,2.5939,2.6927,2.6461,2.499,2.1911,2.1739,2.161,1.9315,2.0053,2.0226,1.6992,1.7676,1.8279,1.6641,1.6342,1.6342,1.6342,1.6342,1.6342,1.6342,1.6342,1.6597,1.7299,2.0279,2.1394,1.9324,1.9792,2.0486,2.1178,2.3384,2.499,2.5726,2.7321,2.8179,2.8179,2.8179,2.8179,2.8179,2.8179,2.8179,2.8179,2.8179,2.8179,1.4299,1.4299,1.4299,1.4299,1.4299,1.4299,1.4299,1.4299,1.4299,1.4299,1.4299,1.4299,1.4299,1.4299,1.4299,1.4299,1.4299,1.4346,1.4489,1.4509,1.4624,1.4976,1.5017,1.5071,1.5167,1.5181,1.5181,1.5181,1.5181,1.5181,1.5181,1.5181,1.5174,1.5174,1.5174,1.5174,1.5174,1.5174,1.5174,1.5174,1.5174,1.5174,1.5174,1.5174,1.5174,1.5174,1.5174,1.5174,1.5167,1.5071,1.6374,1.8438,1.8307,1.9707,2.2056,2.4528,2.3898,2.2457,2.7334,2.7435,2.5818,2.8234,2.8988,2.8988,2.8988,2.8617,2.8179,2.8179,2.8192,2.7617,2.5331,2.6461,2.6969,2.2299,2.2955,2.4038,2.1653,2.1178,2.1178,2.1135,2.1135,2.1178,2.1135,2.1135,2.1135,2.1135,2.1135,2.1135,2.1135,2.1135,2.1998,2.4337,2.4648,2.1879,1.4955,1.6509,1.8802,2.1048,2.3384,2.5726,2.8052,2.8179,2.8179,2.8179,2.8179,2.8179,2.8179,2.8179,2.8179,2.8179,2.8179,2.8179,1.4299,1.4299,1.4299,1.4299,1.4299,1.4299,1.4299,1.4299,1.4299,1.4299,1.4299,1.4299,1.4299,1.4299,1.4299,1.4299,1.4299,1.4346,1.4489,1.4604,1.474,1.4989,1.5059,1.5133,1.5181,1.5276,1.5337,1.5337,1.5438,1.5445,1.5445,1.5445,1.5398,1.5187,1.5181,1.5181,1.5181,1.5181,1.5181,1.5181,1.5181,1.5181,1.5181,1.5181,1.5181,1.5181,1.5181,1.5181,1.5315,1.6971,1.8092,1.8908,2.0501,2.1569,2.2343,2.3116,2.2934,2.248,2.4032,2.3924,2.3279,2.404,2.4152,2.4019,2.4019,2.6224,2.8353,2.6573,2.7221,2.7538,2.3385,2.4038,2.5032,2.1911,2.1782,2.2084,2.1351,1.9966,1.9358,2.0919,1.9922,1.9358,2.0919,2.1221,2.1221,2.1221,2.1221,2.1221,2.1221,2.1221,2.148,2.2213,2.231,2.2686,2.3727,2.4496,2.5233,2.5926,2.6673,2.7448,2.8179,2.8179,2.8179,2.8179,2.8179,2.8179,2.8179,2.8179,2.8179,2.8179,2.8179,2.8179,1.4299,1.4299,1.4299,1.4299,1.4299,1.4299,1.4299,1.4299,1.4299,1.4299,1.4299,1.4299,1.4299,1.4299,1.4299,1.4299,1.4346,1.4428,1.4577,1.4733,1.4882,1.5031,1.5181,1.5269,1.5269,1.5404,1.5499,1.5499,1.5539,1.5593,1.5593,1.5593,1.5506,1.5364,1.5357,1.5357,1.5357,1.5357,1.5357,1.5357,1.5357,1.5357,1.5357,1.5357,1.5357,1.5357,1.5357,1.5323,0.0,1.6936,1.7546,1.7623,1.9149,1.9752,1.9844,2.0806,2.0529,2.003,2.1866,2.1768,2.1058,2.1969,2.2152,2.1996,2.1996,2.3996,2.5914,2.428,2.4858,2.5315,2.2258,2.3184,2.4367,2.2085,2.2216,2.2608,2.1736,2.0423,1.9834,2.1145,2.0264,1.9668,2.0972,2.1221,2.1221,2.1221,2.1221,2.1221,2.1221,2.1221,2.1523,2.2428,2.2525,2.4069,2.7883,2.6575,2.5926,2.68,2.6885,2.7279,2.8136,2.8179,2.8179,2.8179,2.8179,2.8179,2.8179,2.8179,2.8179,2.8179,2.8179,2.8179,0.0,1.4299,1.4299,1.4299,1.4299,1.4299,1.4299,1.4299,0.0,1.4299,1.4299,1.4299,1.4299,1.4299,1.4306,1.4312,1.4428,1.457,1.4687,1.4896,1.5052,1.5181,1.5337,1.5425,1.5425,1.5519,1.5607,1.5607,1.5614,1.5621,1.5621,1.5621,1.5621,1.5621,1.5621,1.5614,1.5593,1.5593,1.5593,1.5593,1.5593,1.5593,1.5593,1.5593,1.5593,1.5593,1.5593,1.5512,1.5425,1.5425,1.5343,1.5215,1.5215,1.5215,1.549,1.7803,1.7203,1.5866,2.0418,2.0548,1.9027,2.1277,2.1958,2.1958,2.1958,2.19,2.174,2.173,2.172,2.1765,2.1844,2.3454,2.4517,2.2556,2.3754,2.4737,2.2546,2.1923,2.1818,2.1703,2.1575,2.1427,2.1259,2.1228,2.1228,2.1228,2.1228,2.1315,2.1488,2.1468,2.2374,2.4714,2.4959,2.5811,2.801,2.4197,2.2654,2.4819,2.4947,2.5939,2.8094,2.8179,2.8179,2.8179,2.8179,2.8179,2.8179,2.8179,2.8179,2.8179,2.8179,2.8179,1.4299,0.0,1.4299,1.4299,1.4299,1.4299,0.0,1.4299,1.4299,1.4299,1.4299,1.4299,1.4299,1.4299,1.4333,1.4441,1.4489,1.4604,1.4882,1.514,1.5316,1.535,1.5493,1.5539,1.5539,1.5716,1.5854,1.5854,1.5913,1.5974,1.5974,1.5974,1.5974,1.5974,1.5974,1.5872,1.5593,1.5593,1.5593,1.5593,1.5593,1.5593,1.5593,1.5593,1.5593,1.5593,1.5593,1.5566,1.5539,1.5539,1.5512,1.5533,1.5533,1.5533,1.5581,1.6143,1.6007,1.5657,1.6707,1.671,1.6317,1.675,1.6939,1.6939,1.6939,1.9459,2.2272,2.2046,2.1996,2.1956,2.1795,2.2145,2.2412,2.1923,2.2234,2.2457,2.1923,2.037,1.9644,2.1373,2.0259,1.958,2.1294,2.1594,2.1594,2.1594,2.1594,2.2257,2.4171,2.4177,2.4973,2.7401,2.7506,2.7575,2.8136,2.7181,2.68,2.7363,2.7363,2.7617,2.8192,2.8179,2.8179,2.8179,2.8179,2.8179,2.8179,2.8179,2.8179,2.8179,2.8179,2.8179,1.4299,1.4299,1.4299,1.4299,1.4299,1.4299,1.4299,1.4299,1.4299,1.4299,1.4299,1.4319,1.4387,1.4394,1.4441,1.459,1.4679,1.4828,1.5133,1.5309,1.5438,1.5458,1.5649,1.5737,1.5737,1.5872,1.601,1.601,1.6085,1.6083,1.6083,1.6083,1.6083,1.6083,1.6083,1.6001,1.5845,1.5845,1.5845,1.5845,1.5845,1.5845,1.5845,1.5845,1.5845,1.5845,1.5845,1.5805,1.5737,1.5737,1.5696,1.5593,1.5593,1.5593,1.5593,1.5593,1.5593,1.558,1.5499,1.5465,1.5499,1.5418,1.5391,1.5391,1.5391,1.7221,1.9261,1.9026,1.8949,1.9153,2.018,2.0425,2.0697,2.1785,2.2056,2.2056,2.2056,2.106,2.0497,2.1646,2.0862,2.0348,2.1497,2.17,2.17,2.17,2.17,2.219,2.3532,2.3545,2.44,2.6878,2.6969,2.7324,2.8465,2.8551,2.8473,2.8205,2.8179,2.8179,2.8179,2.8179,2.8179,2.8179,2.8179,2.8179,2.8179,2.8179,2.8179,2.8179,2.8179,2.8179,1.4299,1.4299,1.4299,1.4299,1.4299,1.4299,1.4299,1.4299,1.4299,1.4299,1.4319,1.4367,1.4489,1.4529,1.4597,1.4708,1.4923,1.5126,1.5377,1.5452,1.5527,1.5607,1.5798,1.5935,1.5935,1.6008,1.6083,1.6083,1.6083,1.6083,1.6083,1.6083,1.6083,1.6083,1.6083,1.6083,1.6083,1.6083,1.6083,1.6083,1.6083,1.6083,1.6083,1.6083,1.6083,1.6083,1.6083,1.6058,1.5935,1.5935,1.5818,1.5661,1.5661,1.5661,1.5661,1.5661,1.5661,1.5654,1.5634,1.5607,1.5593,1.5593,1.5593,1.5593,1.5593,1.5593,1.5539,1.5323,1.5235,1.5725,1.7771,1.836,1.8871,2.0899,2.1406,2.1406,2.1406,2.1406,2.1302,2.1065,2.1037,2.0979,2.0762,2.0724,2.0724,2.0724,2.0724,2.0859,2.1218,2.1547,2.2731,2.5192,2.5698,2.6709,2.8814,2.9001,2.8818,2.8353,2.8286,2.8232,2.8192,2.8179,2.8179,2.8179,2.8179,2.8179,2.8179,2.8179,2.8179,2.8179,2.8179,2.8179,1.4299,1.4299,1.4299,1.4299,1.4299,1.4299,1.4299,1.4299,1.4299,1.4299,1.4394,1.4482,1.4509,1.4572,1.4708,1.4909,1.5167,1.5357,1.5404,1.5628,1.5847,1.5867,1.6003,1.6049,1.6049,1.6069,1.6083,1.6083,1.6083,1.6083,1.6083,1.6083,1.6083,1.6083,1.6083,1.6083,1.6083,1.6083,1.6083,1.6083,1.6083,1.6083,1.6083,1.6083,1.6083,1.6083,1.6083,1.6069,1.6049,1.6049,1.6035,1.6015,1.6015,1.6015,1.6015,1.6015,1.6015,1.5995,1.5915,1.5744,1.5593,1.5593,1.5593,1.5593,1.5593,1.5593,1.558,1.5533,1.5479,1.5438,1.5678,1.5784,1.5877,1.6245,1.6338,1.6338,1.6338,1.6338,1.6331,1.6255,1.6255,1.6248,1.6219,1.6219,1.6219,1.6219,1.6219,1.6948,1.9055,2.091,2.2972,2.5471,2.7341,2.8596,2.8958,2.9001,2.8961,2.8868,2.8671,2.846,2.8192,2.8179,2.8179,2.8179,2.8179,2.8179,2.8179,2.8179,2.8179,2.8179,2.8179,2.8179,1.4299,1.4299,1.4299,1.4299,1.4299,1.4299,1.4299,1.436,1.4414,1.4414,1.4529,1.4658,1.4746,1.4814,1.4943,1.5174,1.5391,1.556,1.5642,1.5813,1.5935,1.6017,1.6042,1.6083,1.6083,1.6083,1.6083,1.6083,1.6083,1.6083,1.6083,1.6083,1.6083,1.6083,1.6083,1.6083,1.6083,1.6083,1.6083,1.6083,1.6083,1.6083,1.6083,1.6083,1.6083,1.6083,1.6083,1.6083,1.6083,1.6083,1.6083,1.6083,1.6083,1.6083,1.6083,1.6083,1.6083,1.6069,1.6051,1.5934,1.5879,1.5879,1.5879,1.5879,1.5879,1.5879,1.5859,1.5778,1.5649,1.5472,1.5445,1.5432,1.5432,1.5432,1.5364,1.5303,1.5303,1.5242,1.5181,1.5181,1.5181,1.5181,1.5181,1.5181,1.5181,1.5181,1.6338,1.7623,1.8731,2.0897,2.3269,2.5738,2.6901,2.801,2.938,2.9468,2.9335,2.9015,2.8868,2.8778,2.8631,2.8631,2.8631,2.8631,2.8631,2.8631,2.8631,2.8631,2.8551,2.8433,2.8433,2.8353,1.4299,1.4299,1.4299,1.4299,1.4299,1.4306,1.434,1.4434,1.4523,1.4557,1.4685,1.4828,1.495,1.5025,1.516,1.5418,1.5588,1.573,1.5888,1.5935,1.5996,1.6069,1.6083,1.6083,1.6083,1.6083,1.6083,1.6083,1.6083,1.6083,1.6083,1.6083,1.6083,1.6083,1.6083,1.6083,1.6083,1.6083,1.6083,1.6083,1.6083,1.6083,1.6083,1.6083,1.6083,1.6083,1.6083,1.6083,1.6083,1.6083,1.6083,1.6083,1.6083,1.6083,1.6083,1.6083,1.6083,1.6083,1.6083,1.6083,1.6083,1.6083,1.6083,1.6083,1.6083,1.6083,1.6056,1.599,1.5825,1.5681,1.5607,1.5593,1.5593,1.5593,1.5499,1.5466,1.5466,1.5371,1.5289,1.5289,1.5262,1.5235,1.5235,1.5208,1.5415,1.5971,1.767,1.9103,1.965,2.1866,2.4067,2.6003,2.674,2.7838,2.9734,2.9913,2.9682,2.9228,2.9135,2.9068,2.9001,2.9001,2.9001,2.9001,2.9001,2.9001,2.9001,2.9001,2.8881,2.8711,2.8711,2.8577,1.4299,1.4299,1.4299,1.4299,1.4299,1.4333,1.4468,1.4502,1.455,1.4647,1.4848,1.4957,1.5017,1.5194,1.5432,1.5546,1.5744,1.5888,1.5901,1.6024,1.6069,1.6083,1.6083,1.6083,1.6083,1.6083,1.6083,1.6083,1.6083,1.6083,1.6083,1.6083,1.6083,1.6083,1.6083,1.6083,1.6083,1.6083,1.6083,1.6083,1.6083,1.6083,1.6083,1.6083,1.6083,1.6083,1.6083,1.6083,1.6083,1.6083,1.6083,1.6083,1.6083,1.6083,1.6083,1.6083,1.6083,1.6083,1.6083,1.6083,1.6083,1.6083,1.6083,1.6083,1.6083,1.6083,1.6083,1.6069,1.6056,1.5988,1.5661,1.5593,1.5593,1.5593,1.558,1.5573,1.5573,1.5566,1.556,1.556,1.5493,1.5398,1.5398,1.5276,1.5971,1.8275,1.8778,1.9697,2.1958,2.4387,2.6003,2.6184,2.8256,2.9734,2.9869,2.9913,2.99,2.986,2.9606,2.9325,2.9001,2.9001,2.9001,2.9001,2.9001,2.9001,2.9001,2.9001,2.8988,2.8961,2.8961,2.8948,1.4299,1.4299,1.4319,1.4407,1.4434,1.4448,1.4502,1.4658,1.4814,1.4869,1.5079,1.5276,1.5371,1.5554,1.5751,1.5764,1.59,1.5995,1.5995,1.6092,1.6083,1.6083,1.6083,1.6083,1.6083,1.6083,1.6083,1.6083,1.6083,1.6083,1.6083,1.6171,1.6225,1.6225,1.6307,1.6354,1.6354,1.6354,1.6354,1.6354,1.6171,1.6083,1.6083,1.6083,1.6083,1.6083,1.6083,1.6083,1.6083,1.6083,1.6083,1.6083,1.6083,1.6083,1.6083,1.6083,1.6083,1.6083,1.6083,1.6083,1.6083,1.6083,1.6083,1.6083,1.6083,1.6083,1.6083,1.6083,1.6083,1.6056,1.594,1.5913,1.5913,1.5913,1.5839,1.5771,1.5771,1.6991,1.7535,1.5925,1.6866,1.7436,1.5787,1.5458,1.5746,1.6686,1.954,2.1835,2.2593,2.6281,2.873,2.8507,2.9362,2.9913,2.9913,2.9913,2.9913,2.9913,2.9806,2.97,2.9548,2.9535,2.9535,2.9535,2.9535,2.9535,2.9535,2.9535,2.9455,2.9312,2.9312,2.9219,1.4299,1.4333,1.4387,1.4489,1.4584,1.4672,1.4713,1.4855,1.4997,1.5092,1.5309,1.5527,1.5676,1.5784,1.5915,1.5969,1.6064,1.6083,1.6083,1.6083,1.6083,1.6083,1.6083,1.6103,1.6151,1.6151,1.6171,1.6218,1.6218,1.6218,1.6218,1.632,1.6374,1.6374,1.6469,1.6524,1.6524,1.6524,1.6524,1.6517,1.632,1.6218,1.6218,1.6218,1.6218,1.6218,1.6171,1.6151,1.6151,1.6103,1.6083,1.6083,1.6083,1.6083,1.6083,1.6083,1.6083,1.6083,1.6083,1.6083,1.6083,1.6083,1.6083,1.6083,1.6083,1.6083,1.6083,1.6083,1.6083,1.6083,1.6083,1.6083,1.6083,1.6083,1.6051,1.5976,1.5976,1.7918,1.9124,1.7355,1.8415,1.9282,1.8327,1.7429,1.7399,1.9007,2.2219,2.4657,2.5251,2.8373,3.0421,3.0221,3.0194,3.0154,3.006,3.006,3.002,2.9927,2.9913,2.9913,2.9913,2.9913,2.9913,2.9913,2.9913,2.9913,2.9913,2.9913,2.982,2.9619,2.9619,2.9513,1.4299,1.4407,1.4509,1.4516,1.4746,1.5057,1.5153,1.5079,1.5059,1.5357,1.5485,1.5634,1.5874,1.5901,1.5956,1.6056,1.6083,1.6083,1.6083,1.6083,1.6083,1.6083,1.6083,1.6144,1.63,1.6313,1.6368,1.651,1.6524,1.6524,1.6524,1.6524,1.6524,1.6524,1.6524,1.6524,1.6524,1.6524,1.6524,1.6524,1.6524,1.6524,1.6524,1.6524,1.6524,1.6517,1.6374,1.6313,1.63,1.6151,1.6083,1.6083,1.6083,1.6083,1.6083,1.6083,1.6083,1.6083,1.6083,1.6083,1.6083,1.6083,1.6083,1.6083,1.6083,1.6083,1.6083,1.6083,1.6083,1.6083,1.6083,1.6083,1.6083,1.6083,1.6083,1.6083,1.6083,1.8129,1.9978,1.9978,1.9883,2.0628,2.3211,2.1361,2.1232,2.6292,2.7098,2.7996,3.0459,3.0795,3.0795,3.0795,3.0795,3.0675,3.044,3.0413,3.0234,2.994,2.9927,2.9927,2.9913,2.9913,2.9913,2.9913,2.9913,2.9913,2.9913,2.9913,2.9913,2.9913,2.9913,2.9913,1.4421,1.4482,1.4563,1.478,1.4977,1.516,1.5309,1.5309,1.5364,1.5711,1.5757,1.5881,1.5988,1.6064,1.6029,1.6076,1.6083,1.6083,1.6083,1.6178,1.6239,1.6239,1.6327,1.6408,1.6456,1.6456,1.6476,1.6517,1.6524,1.6524,1.6524,1.6574,1.6628,1.6628,1.6788,1.6842,1.6842,1.6842,1.6842,1.6842,1.6842,1.6734,1.6524,1.6524,1.6524,1.6517,1.6476,1.6456,1.6456,1.6408,1.6388,1.6388,1.6388,1.6327,1.6239,1.6239,1.6178,1.6083,1.6083,1.6083,1.6083,1.6083,1.6083,1.6083,1.6083,1.6083,1.6083,1.6083,1.6083,1.6083,1.6083,1.6083,1.6083,1.6083,1.6083,1.6083,1.6083,1.8129,1.9437,1.7593,1.8724,2.0187,2.096,2.038,2.0968,2.4352,2.6436,2.8448,3.0789,3.0915,3.0795,3.0795,3.0795,3.0755,3.0675,3.0662,3.0621,3.0541,3.0528,3.0341,2.994,2.9913,2.9913,2.9913,2.9913,2.9913,2.9913,2.9913,2.9913,2.9913,2.9913,2.9913,1.4475,1.4557,1.4658,1.4909,1.5126,1.533,1.554,1.5588,1.5635,1.5867,1.5949,1.6024,1.6112,1.6083,1.6083,1.6083,1.6083,1.6103,1.6164,1.6252,1.6334,1.6388,1.6469,1.6493,1.6554,1.656,1.6588,1.67,1.67,1.67,1.67,1.6788,1.6842,1.6842,1.6931,1.6978,1.6978,1.6978,1.6978,1.6978,1.6978,1.6883,1.67,1.67,1.67,1.67,1.6588,1.6527,1.6524,1.6524,1.6524,1.6524,1.6524,1.6469,1.6395,1.6395,1.6334,1.6252,1.6252,1.6252,1.6252,1.6252,1.6218,1.6171,1.6171,1.613,1.6083,1.6083,1.6083,1.6083,1.6083,1.6083,1.6083,1.6083,1.6083,1.6083,1.6083,1.8129,1.9536,1.7939,1.8904,2.0322,2.1392,2.0706,2.0902,2.3491,2.5238,2.7134,2.9542,2.9708,2.9994,3.1049,3.1142,3.1089,3.0969,3.0969,3.0915,3.0795,3.0795,3.0635,3.0274,3.0154,3.0034,2.9913,2.9913,2.9913,2.9913,2.9913,2.9913,2.9913,2.9913,2.9913,1.4496,1.4599,1.4801,1.497,1.5235,1.5527,1.586,1.5922,1.5922,1.5922,1.6037,1.6083,1.6083,1.6083,1.609,1.6103,1.6103,1.6157,1.6307,1.6341,1.6395,1.6473,1.6558,1.6567,1.6702,1.6716,1.6777,1.6971,1.6978,1.6978,1.6978,1.6978,1.6978,1.6978,1.6978,1.6978,1.6978,1.6978,1.6978,1.6978,1.6978,1.6978,1.6978,1.6978,1.6978,1.6971,1.6829,1.6642,1.6564,1.6564,1.6564,1.6564,1.6564,1.6558,1.6544,1.6544,1.653,1.6524,1.6524,1.6524,1.6524,1.6524,1.6435,1.6327,1.6327,1.6232,1.6123,1.6123,1.611,1.6103,1.6103,1.609,1.6083,1.6083,1.6083,1.6083,1.6083,1.7981,1.9634,1.9634,1.9634,2.047,2.3101,2.1588,2.0902,2.3491,2.388,2.4754,2.7143,2.7432,2.8356,3.0734,3.1175,3.1212,3.0901,3.1122,3.1156,3.0889,3.0875,3.0862,3.0835,3.06,3.0274,3.0007,2.9993,2.998,2.9953,2.9729,2.9716,2.9869,2.9451,2.9362,1.4606,1.4801,1.4984,1.5248,1.554,1.5854,1.6037,1.6085,1.6085,1.6085,1.6056,1.6083,1.6083,1.6083,1.6123,1.6239,1.6259,1.6313,1.6456,1.6527,1.6615,1.6648,1.6809,1.6897,1.6931,1.6931,1.6944,1.6978,1.6978,1.6978,1.6978,1.6978,1.6978,1.6978,1.6978,1.6978,1.6978,1.6978,1.6978,1.6978,1.6978,1.6978,1.6978,1.6978,1.6978,1.6978,1.6944,1.691,1.6883,1.6883,1.6883,1.6883,1.6883,1.6809,1.6648,1.6648,1.6574,1.6524,1.6524,1.6524,1.6524,1.6524,1.6503,1.6476,1.6476,1.6456,1.6429,1.6429,1.6347,1.6259,1.6259,1.6171,1.6083,1.6083,1.6083,1.6083,1.6083,1.6523,1.6963,1.6963,1.6963,1.7791,2.0371,2.0363,2.0902,2.3491,2.388,2.4123,2.4657,2.4754,2.4948,2.5529,2.7432,2.8632,2.8523,3.0406,3.1543,3.1537,3.1524,3.137,3.1142,3.0849,3.0675,3.0608,3.0608,3.0488,3.0306,2.8344,2.8244,2.9824,2.5957,2.5184,1.4654,1.4855,1.5059,1.5425,1.5689,1.5942,1.6049,1.6083,1.6083,1.6083,1.6083,1.6083,1.6083,1.6144,1.6218,1.63,1.6368,1.6463,1.656,1.6648,1.6723,1.6849,1.6931,1.6978,1.6978,1.6978,1.6978,1.6978,1.6978,1.6978,1.6978,1.6978,1.6978,1.6978,1.6978,1.6978,1.6978,1.6978,1.6978,1.6978,1.6978,1.6978,1.6978,1.6978,1.6978,1.6978,1.6978,1.6978,1.6978,1.6978,1.6978,1.6978,1.6978,1.6931,1.6863,1.6863,1.6809,1.6741,1.6741,1.6741,1.6741,1.6741,1.6693,1.6581,1.6581,1.6527,1.6524,1.6524,1.6469,1.6408,1.6408,1.6354,1.6293,1.6293,1.6185,1.6083,1.6083,1.6083,1.6083,1.6083,1.6083,1.6523,1.7882,1.8129,1.8616,1.9938,2.0183,2.0617,2.1881,2.2028,2.2516,2.3773,2.5141,2.5926,2.5926,2.718,2.796,2.796,2.796,2.7901,2.7712,2.7582,2.797,2.8892,2.7705,2.6981,2.684,2.5574,2.5518,2.6548,2.3924,2.3364,1.4694,1.493,1.5181,1.5581,1.5784,1.5976,1.6056,1.6083,1.6083,1.6083,1.6083,1.609,1.6117,1.6225,1.6327,1.6374,1.6483,1.6612,1.6716,1.6736,1.6784,1.6965,1.6978,1.6978,1.6978,1.6978,1.6978,1.6978,1.6978,1.6978,1.6978,1.6978,1.6978,1.6978,1.6978,1.6978,1.6978,1.6978,1.6978,1.6978,1.6978,1.6978,1.6978,1.6978,1.6978,1.6978,1.6978,1.6978,1.6978,1.6978,1.6978,1.6978,1.6978,1.6978,1.6978,1.6978,1.6978,1.6978,1.6978,1.6978,1.6978,1.6978,1.6897,1.6736,1.6736,1.6648,1.6598,1.6598,1.6578,1.6506,1.6506,1.6537,1.6524,1.6524,1.6334,1.6151,1.6123,1.6103,1.6083,1.6083,1.6083,1.6083,1.6083,1.6083,1.6083,1.6083,1.6083,1.6864,1.9051,1.9347,2.0175,2.2321,2.2955,2.3238,2.3238,2.3637,2.388,2.388,2.388,2.388,2.388,2.3481,2.3987,2.57,2.4035,2.3124,2.3084,2.2657,2.2637,2.2976,2.1998,2.177,1.4896,1.5235,1.5594,1.5778,1.599,1.6056,1.6076,1.6083,1.6083,1.6083,1.6083,1.6123,1.6252,1.6293,1.6395,1.6601,1.6655,1.6723,1.6931,1.6951,1.6958,1.6978,1.6978,1.6978,1.6978,1.6978,1.6978,1.6978,1.6978,1.6978,1.6978,1.6978,1.6978,1.6978,1.6978,1.6978,1.6978,1.6978,1.6978,1.6978,1.6978,1.6978,1.6978,1.6978,1.6978,1.6978,1.6978,1.6978,1.6978,1.6978,1.6978,1.6978,1.6978,1.6978,1.6978,1.6978,1.6978,1.6978,1.6978,1.6978,1.6978,1.6978,1.6965,1.6951,1.6951,1.6937,1.6917,1.6917,1.6822,1.6669,1.6669,1.6567,1.6524,1.6524,1.649,1.6429,1.6307,1.6178,1.6083,1.6083,1.6083,1.6083,1.6083,1.6083,1.6083,1.6083,1.6083,1.6225,1.6573,1.6616,1.6765,1.7112,1.915,2.051,2.051,2.2604,2.388,2.388,2.388,2.388,2.388,2.1735,2.0631,2.092,2.2819,2.365,2.3352,2.1259,2.1167,2.2882,1.8559,1.7697,1.5153,1.5425,1.5676,1.5867,1.6017,1.6083,1.6083,1.6083,1.6103,1.6191,1.6212,1.6232,1.63,1.6442,1.6547,1.6675,1.677,1.6904,1.6971,1.6978,1.6978,1.6978,1.6978,1.6978,1.6978,1.6978,1.6978,1.6978,1.6978,1.6978,1.6978,1.6978,1.6978,1.6978,1.6978,1.6978,1.6978,1.6978,1.6978,1.6978,1.6978,1.6978,1.6978,1.6978,1.6978,1.6978,1.6978,1.6978,1.6978,1.6978,1.6978,1.6978,1.6978,1.6978,1.6978,1.6978,1.6978,1.6978,1.6978,1.6978,1.6978,1.6978,1.6978,1.6978,1.6978,1.6978,1.6978,1.6978,1.6931,1.6876,1.6876,1.6829,1.6781,1.6781,1.6714,1.6581,1.652,1.6435,1.6307,1.6225,1.6137,1.6083,1.6083,1.6083,1.6083,1.6083,1.6083,1.6083,1.6083,1.6083,1.6083,1.6083,1.7105,1.7791,1.7791,1.8862,1.9552,1.9552,1.9552,1.9552,1.9552,1.8426,1.7791,1.7791,1.8961,1.9462,1.933,1.8219,1.8229,1.9069,1.6809,1.6335,1.5391,1.5506,1.5683,1.5915,1.6044,1.6083,1.6083,1.6083,1.6123,1.6279,1.6341,1.6374,1.6415,1.6554,1.6709,1.675,1.6904,1.6978,1.6978,1.6978,1.6978,1.6978,1.6978,1.6978,1.6978,1.6978,1.6978,1.6978,1.6978,1.6978,1.6978,1.6978,1.6978,1.6978,1.6978,1.6978,1.6978,1.6978,1.6978,1.6978,1.6978,1.6978,1.6978,1.6978,1.6978,1.6978,1.6978,1.6978,1.6978,1.6978,1.6978,1.6978,1.6978,1.6978,1.6978,1.6978,1.6978,1.6978,1.6978,1.6978,1.6978,1.6978,1.6978,1.6978,1.6978,1.6978,1.6978,1.6978,1.6978,1.6978,1.6978,1.6978,1.6978,1.6978,1.689,1.6736,1.6655,1.6554,1.649,1.6381,1.6239,1.6137,1.6137,1.611,1.6083,1.6083,1.6083,1.6083,1.6083,1.6083,1.6083,1.6083,1.6083,1.6083,1.6083,1.6083,1.6083,1.6083,1.6083,1.6083,1.6083,1.6083,1.6083,1.6083,1.6083,1.6083,1.6083,1.6083,1.6083,1.6076,1.601,1.5962,1.5499,1.5587,1.5661,1.6001,1.6076,1.6083,1.6083,1.6083,1.6123,1.6279,1.6415,1.6558,1.6648,1.6689,1.6743,1.6944,1.6978,1.6978,1.6978,1.6978,1.6978,1.6978,1.6978,1.6978,1.6978,1.6978,1.6978,1.6978,1.6978,1.6978,1.6978,1.6978,1.6978,1.6978,1.6978,1.6978,1.6978,1.6978,1.6978,1.6978,1.6978,1.6978,1.6978,1.6978,1.6978,1.6978,1.6978,1.6978,1.6978,1.6978,1.6978,1.6978,1.6978,1.6978,1.6978,1.6978,1.6978,1.6978,1.6978,1.6978,1.6978,1.6978,1.6978,1.6978,1.6978,1.6978,1.6978,1.6978,1.6978,1.6978,1.6978,1.6978,1.6978,1.6978,1.6978,1.689,1.6598,1.6473,1.6517,1.651,1.6395,1.63,1.63,1.6178,1.6083,1.6083,1.6083,1.6083,1.6083,1.6083,1.6083,1.6083,1.6083,1.6083,1.6083,1.6083,1.6083,1.6083,1.6083,1.6083,1.6083,1.6083,1.6083,1.6083,1.6083,1.6083,1.6083,1.6083,1.6083,1.6083,1.6076,1.6069,1.5506,1.5593,1.5661,1.6008,1.6083,1.6083,1.6083,1.6083,1.6151,1.6395,1.6483,1.6598,1.6849,1.6897,1.6917,1.6971,1.6978,1.6978,1.6978,1.6978,1.6978,1.6978,1.6978,1.6978,1.6978,1.6978,1.6978,1.6978,1.6978,1.6978,1.6978,1.6978,1.6978,1.6978,1.6978,1.6978,1.6978,1.6978,1.6978,1.6978,1.6978,1.6978,1.6978,1.6978,1.6978,1.6978,1.6978,1.6978,1.6978,1.6978,1.6978,1.6978,1.6978,1.6978,1.6978,1.6978,1.6978,1.6978,1.6978,1.6978,1.6978,1.6978,1.6978,1.6978,1.6978,1.6978,1.6978,1.6978,1.6978,1.6978,1.6978,1.6978,1.6978,1.6978,1.6978,1.6951,1.6842,1.6741,1.6615,1.6615,1.6493,1.6442,1.6442,1.6402,1.6334,1.6239,1.6225,1.6191,1.6096,1.6083,1.6083,1.6083,1.6083,1.6083,1.6083,1.6083,1.6083,1.6083,1.6083,1.6083,1.6083,1.6083,1.6083,1.6083,1.6083,1.6083,1.6083,1.6083,1.6083,1.6083,1.6083,1.6083,1.5493,1.5553,1.5648,1.5947,1.6092,1.6083,1.6083,1.6083,1.6164,1.6463,1.6524,1.6612,1.6924,1.6978,1.6978,1.6978,1.6978,1.6978,1.6978,1.6978,1.6978,1.6978,1.6978,1.6978,1.6978,1.6978,1.6978,1.6978,1.6978,1.6978,1.6978,1.6978,1.6978,1.6978,1.6978,1.6978,1.6978,1.6978,1.6978,1.6978,1.6978,1.6978,1.6978,1.6978,1.6978,1.6978,1.6978,1.6978,1.6978,1.6978,1.6978,1.6978,1.6978,1.6978,1.6978,1.6978,1.6978,1.6978,1.6978,1.6978,1.6978,1.6978,1.6978,1.6978,1.6978,1.6978,1.6978,1.6978,1.6978,1.6978,1.6978,1.6978,1.6978,1.6978,1.6978,1.6978,1.6978,1.6904,1.6777,1.6777,1.6648,1.6547,1.6547,1.6558,1.649,1.6395,1.6381,1.6327,1.6178,1.6157,1.6137,1.609,1.6083,1.6083,1.6083,1.6083,1.6083,1.6083,1.6083,1.6083,1.6083,1.6083,1.6083,1.6083,1.6083,1.6083,1.6083,1.6083,1.6083,1.6083,1.6083,1.6083,0.0,0.0,0.0,1.5867,1.6017,1.6076,1.6083,1.6083,1.6164,1.6456,1.6517,1.6612,1.6917,1.6978,1.6978,1.6978,1.6978,1.6978,1.6978,1.6978,1.6978,1.6978,1.6978,1.6978,1.6978,1.6978,1.6978,1.6978,1.6978,1.6978,1.6978,1.6978,1.6978,1.6978,1.6978,1.6978,1.6978,1.6978,1.6978,1.6978,1.6978,1.6978,1.6978,1.6978,1.6978,1.6978,1.6978,1.6978,1.6978,1.6978,1.6978,1.6978,1.6978,1.6978,1.6978,1.6978,1.6978,1.6978,1.6978,1.6978,1.6978,1.6978,1.6978,1.6978,1.6978,1.6978,1.6978,1.6978,1.6978,1.6978,1.6978,1.6978,1.6978,1.6978,1.6978,1.6978,1.6978,1.6978,1.6978,1.6978,1.6863,1.6702,1.6702,1.6581,1.653,1.653,1.653,1.6476,1.6334,1.6313,1.6252,1.6103,1.6083,1.6083,1.6083,1.6083,1.6083,1.6083,1.6083,1.6083,1.6083,1.6083,1.6083,1.6083,1.6083,1.6083,1.6083,1.6083,1.6083,1.6083,1.6083,1.6083,1.5343,0.0,0.0,0.0,0.0,0.0,1.6056,1.6083,1.6137,1.6327,1.6449,1.6578,1.6723,1.6904,1.6978,1.6978,1.6978,1.6978,1.6978,1.6978,1.6978,1.6978,1.6978,1.6978,1.6978,1.6978,1.6978,1.6978,1.6978,1.6978,1.6978,1.6978,1.6978,1.6978,1.6978,1.6978,1.6978,1.6978,1.6978,1.6978,1.6978,1.6978,1.6978,1.6978,1.6978,1.6978,1.6978,1.6978,1.6978,1.6978,1.6978,1.6978,1.6978,1.6978,1.6978,1.6978,1.6978,1.6978,1.6978,1.6978,1.6978,1.6978,1.6978,1.6978,1.6978,1.6978,1.6978,1.6978,1.6978,1.6978,1.6978,1.6978,1.6978,1.6978,1.6978,1.6978,1.6978,1.6978,1.6978,1.6978,1.6944,1.6917,1.6917,1.6883,1.6815,1.6655,1.6635,1.6581,1.6483,1.6374,1.6293,1.6252,1.6151,1.6083,1.6083,1.6083,1.6083,1.6083,1.6083,1.6083,1.6083,1.6083,1.6083,1.6083,1.6083,1.6083,1.6083,1.6083,1.6083,1.6083,1.6083,1.6083,0.0,0.0,1.5635,1.586,0.0,0.0,1.6062,1.6083,1.6123,1.6279,1.6374,1.6446,1.6662,1.6822,1.6904,1.6971,1.6978,1.6978,1.6978,1.6978,1.6978,1.6978,1.6978,1.6978,1.6978,1.6978,1.6978,1.6978,1.6978,1.6978,1.6978,1.6978,1.6978,1.6978,1.6978,1.6978,1.6978,1.6978,1.6978,1.6978,1.6978,1.6978,1.6978,1.6978,1.6978,1.6978,1.6978,1.6978,1.6978,1.6978,1.6978,1.6978,1.6978,1.6978,1.6978,1.6978,1.6978,1.6978,1.6978,1.6978,1.6978,1.6978,1.6978,1.6978,1.6978,1.6978,1.6978,1.6978,1.6978,1.6978,1.6978,1.6978,1.6978,1.6978,1.6978,1.6978,1.6978,1.6978,1.6978,1.6978,1.6978,1.6978,1.6978,1.6978,1.6951,1.6863,1.6842,1.6788,1.6581,1.6544,1.6398,1.632,1.6232,1.6151,1.609,1.6083,1.6083,1.6083,1.6083,1.6083,1.6083,1.6083,1.6083,1.6083,1.6083,1.6083,1.6083,1.6083,1.6083,1.6083,1.6083,1.6083,0.0,0.0,0.0,1.5901,1.6003,0.0,1.6076,1.6083,1.6123,1.6259,1.63,1.6388,1.6601,1.6675,1.6743,1.6931,1.6971,1.6978,1.6978,1.6978,1.6978,1.6978,1.6978,1.6978,1.6978,1.6978,1.6978,1.6978,1.6978,1.6978,1.6978,1.6978,1.6978,1.6978,1.6978,1.6978,1.6978,1.6978,1.6978,1.6978,1.6978,1.6978,1.6978,1.6978,1.6978,1.6978,1.6978,1.6978,1.6978,1.6978,1.6978,1.6978,1.6978,1.6978,1.6978,1.6978,1.6978,1.6978,1.6978,1.6978,1.6978,1.6978,1.6978,1.6978,1.6978,1.6978,1.6978,1.6978,1.6978,1.6978,1.6978,1.6978,1.6978,1.6978,1.6978,1.6978,1.6978,1.6978,1.6978,1.6978,1.6978,1.6978,1.6978,1.6978,1.6978,1.6978,1.6978,1.6931,1.6743,1.6709,1.6601,1.6388,1.6327,1.6252,1.6117,1.609,1.6083,1.6083,1.6083,1.6083,1.6083,1.6083,1.6083,1.6083,1.6083,1.6083,1.6083,1.6083,1.6083,1.6083,1.6083,1.6083,1.5519,1.5587,1.571,1.5874,1.5928,0.0,1.6105,1.6083,1.609,1.6123,1.6225,1.6327,1.6388,1.654,1.6709,1.6736,1.6897,1.6978,1.6978,1.6978,1.6978,1.6978,1.6978,1.6978,1.6978,1.6978,1.6978,1.6978,1.6978,1.6978,1.6978,1.6978,1.6978,1.6978,1.6978,1.6978,1.6978,1.6978,1.6978,1.6978,1.6978,1.6978,1.6978,1.6978,1.6978,1.6978,1.6978,1.6978,1.6978,1.6978,1.6978,1.6978,1.6978,1.6978,1.6978,1.6978,1.6978,1.6978,1.6978,1.6978,1.6978,1.6978,1.6978,1.6978,1.6978,1.6978,1.6978,1.6978,1.6978,1.6978,1.6978,1.6978,1.6978,1.6978,1.6978,1.6978,1.6978,1.6978,1.6978,1.6978,1.6978,1.6978,1.6978,1.6978,1.6978,1.6978,1.6978,1.6971,1.6937,1.6777,1.6675,1.6621,1.6449,1.63,1.6266,1.6151,1.6083,1.6083,1.6083,1.6083,1.6083,1.6083,1.6083,1.6083,1.6083,1.6083,1.6083,1.6083,1.6083,1.6083,1.6083,1.6083,1.5744,1.5805,1.5879,1.5947,1.6017,0.0,0.0,1.6083,1.6083,1.6083,1.6144,1.6218,1.6293,1.6429,1.65,1.6574,1.6761,1.6863,1.6863,1.6931,1.6978,1.6978,1.6978,1.6978,1.6978,1.6978,1.6978,1.6978,1.6978,1.6978,1.6978,1.6978,1.6978,1.6978,1.6978,1.6978,1.6978,1.6978,1.6978,1.6978,1.6978,1.6978,1.6978,1.6978,1.6978,1.6978,1.6978,1.6978,1.6978,1.6978,1.6978,1.6978,1.6978,1.6978,1.6978,1.6978,1.6978,1.6978,1.6978,1.6978,1.6978,1.6978,1.6978,1.6978,1.6978,1.6978,1.6978,1.6978,1.6978,1.6978,1.6978,1.6978,1.6978,1.6978,1.6978,1.6978,1.6978,1.6978,1.6978,1.6978,1.6978,1.6978,1.6978,1.6978,1.6978,1.6978,1.6978,1.6978,1.6978,1.691,1.6836,1.6709,1.65,1.6388,1.6313,1.6171,1.6083,1.6083,1.6083,1.6083,1.6083,1.6083,1.6083,1.6083,1.6083,1.6083,1.6083,1.6083,1.6083,1.6083,1.6083,1.6083,1.5983,1.6037,1.6083,1.6083,1.6083,1.6083,0.0,0.0,0.0,1.6083,1.6083,1.6123,1.6246,1.6293,1.6341,1.6422,1.6533,1.6648,1.6615,1.6822,1.6944,1.6978,1.6978,1.6978,1.6978,1.6978,1.6978,1.6978,1.6978,1.6978,1.6978,1.6978,1.6978,1.6978,1.6978,1.6978,1.6978,1.6978,1.6978,1.6978,1.6978,1.6978,1.6978,1.6978,1.6978,1.6978,1.6978,1.6978,1.6978,1.6978,1.6978,1.6978,1.6978,1.6978,1.6978,1.6978,1.6978,1.6978,1.6978,1.6978,1.6978,1.6978,1.6978,1.6978,1.6978,1.6978,1.6978,1.6978,1.6978,1.6978,1.6978,1.6978,1.6978,1.6978,1.6978,1.6978,1.6978,1.6978,1.6978,1.6978,1.6978,1.6978,1.6978,1.6978,1.6978,1.6978,1.6978,1.6978,1.6978,1.6978,1.6931,1.6757,1.6608,1.6459,1.6361,1.6212,1.611,1.6083,1.6083,1.6083,1.6083,1.6083,1.6083,1.6083,1.6083,1.6083,1.6083,1.6083,1.6083,1.6083,1.6083,1.6083,1.6062,1.6069,1.6083,1.6083,1.6083,1.6083,1.6083,0.0,1.6083,1.6083,0.0,1.609,1.6103,0.0,0.0,1.6151,1.6368,1.6503,1.6374,1.6547,1.6777,1.6965,1.6978,1.6978,1.6978,1.6978,1.6978,1.6978,1.6978,1.6978,1.6978,1.6978,1.6978,1.6978,1.6978,1.6978,1.6978,1.6978,1.6978,1.6978,1.6978,1.6978,1.6978,1.6978,1.6978,1.6978,1.6978,1.6978,1.6978,1.6978,1.6978,1.6978,1.6978,1.6978,1.6978,1.6978,1.6978,1.6978,1.6978,1.6978,1.6978,1.6978,1.6978,1.6978,1.6978,1.6978,1.6978,1.6978,1.6978,1.6978,1.6978,1.6978,1.6978,1.6978,1.6978,1.6978,1.6978,1.6978,1.6978,1.6978,1.6978,1.6978,1.6978,1.6978,1.6978,1.6978,1.6978,1.6978,1.6978,1.6978,1.6971,1.6958,1.6815,1.6608,1.651,1.6368,1.6225,1.609,1.6083,1.6083,1.6083,1.6083,1.6083,1.6083,1.6083,1.6083,1.6083,1.6083,1.6083,1.6083,1.6083,1.6083,1.6212,1.6151,1.6083,1.6083,1.6083,1.6083,1.6083,1.6083,1.6083,1.6083,0.0,0.0,0.0,0.0,0.0,0.0,1.6259,1.6381,1.632,1.6439,1.6621,1.6829,1.6924,1.6978,1.6978,1.6978,1.6978,1.6978,1.6978,1.6978,1.6978,1.6978,1.6978,1.6978,1.6978,1.6978,1.6978,1.6978,1.6978,1.6978,1.6978,1.6978,1.6978,1.6978,1.6978,1.6978,1.6978,1.6978,1.6978,1.6978,1.6978,1.6978,1.6978,1.6978,1.6978,1.6978,1.6978,1.6978,1.6978,1.6978,1.6978,1.6978,1.6978,1.6978,1.6978,1.6978,1.6978,1.6978,1.6978,1.6978,1.6978,1.6978,1.6978,1.6978,1.6978,1.6978,1.6978,1.6978,1.6978,1.6978,1.6978,1.6978,1.6978,1.6978,1.6978,1.6978,1.6978,1.6978,1.6978,1.6978,1.6978,1.6978,1.6842,1.6635,1.653,1.6388,1.6246,1.609,1.6083,1.6083,1.6083,1.6083,1.6083,1.6083,1.6083,1.6083,1.6083,1.6083,1.6083,1.6083,1.6083,1.6083,1.6368,1.6259,1.6144,1.6144,1.611,1.6083,1.6083,1.6083,1.6083,1.6083,1.6083,0.0,0.0,0.0,1.6069,1.6029,0.0,1.6232,1.6191,1.6347,1.6537,1.6675,1.689,1.6978,1.6978,1.6978,1.6978,1.6978,1.6978,1.6978,1.6978,1.6978,1.6978,1.6978,1.6978,1.6978,1.6978,1.6978,1.6978,1.6978,1.6978,1.6978,1.6978,1.6978,1.6978,1.6978,1.6978,1.6978,1.6978,1.6978,1.6978,1.6978,1.6978,1.6978,1.6978,1.6978,1.6978,1.6978,1.6978,1.6978,1.6978,1.6978,1.6978,1.6978,1.6978,1.6978,1.6978,1.6978,1.6978,1.6978,1.6978,1.6978,1.6978,1.6978,1.6978,1.6978,1.6978,1.6978,1.6978,1.6978,1.6978,1.6978,1.6978,1.6978,1.6978,1.6978,1.6978,1.6978,1.6978,1.6978,1.6978,1.6978,1.6876,1.6734,1.6537,1.6429,1.6286,1.6096,1.6083,1.6083,1.6083,1.6083,1.6083,1.6083,1.6083,1.6083,1.6083,1.6083,1.6083,1.6083,1.6083,1.6083,1.6517,1.6408,1.63,1.63,1.6191,1.6083,1.6083,1.6083,1.6083,1.6083,1.6083,1.6083,1.6083,1.6083,0.0,0.0,1.6037,0.0,0.0,1.613,1.6422,1.6662,1.689,1.6978,1.6978,1.6978,1.6978,1.6978,1.6978,1.6978,1.6978,1.6978,1.6978,1.6978,1.6978,1.6978,1.6978,1.6978,1.6978,1.6978,1.6978,1.6978,1.6978,1.6978,1.6978,1.6978,1.6978,1.6978,1.6978,1.6978,1.6978,1.6978,1.6978,1.6978,1.6978,1.6978,1.6978,1.6978,1.6978,1.6978,1.6978,1.6978,1.6978,1.6978,1.6978,1.6978,1.6978,1.6978,1.6978,1.6978,1.6978,1.6978,1.6978,1.6978,1.6978,1.6978,1.6978,1.6978,1.6978,1.6978,1.6978,1.6978,1.6978,1.6978,1.6978,1.6978,1.6978,1.6978,1.6978,1.6978,1.6978,1.6978,1.6978,1.6849,1.6551,1.6517,1.6388,1.6096,1.6083,1.6083,1.6083,1.6083,1.6083,1.6083,1.6083,1.6083,1.6083,1.6083,1.6083,1.6083,1.6083,1.6083,1.6621,1.6513,1.6449,1.6449,1.6341,1.6232,1.6232,1.6151,1.6083,1.6083,1.6083,1.6083,1.6083,1.6083,0.0,0.0,0.0,1.6062,0.0,1.6178,1.6347,1.6398,1.6621,1.6777,1.6777,1.6917,1.6978,1.6978,1.6978,1.6978,1.6978,1.6978,1.6978,1.6978,1.6978,1.6978,1.6978,1.6978,1.6978,1.6978,1.6978,1.6978,1.6978,1.6978,1.6978,1.6978,1.6978,1.6978,1.6978,1.6978,1.6978,1.6978,1.6978,1.6978,1.6978,1.6978,1.6978,1.6978,1.6978,1.6978,1.6978,1.6978,1.6978,1.6978,1.6978,1.6978,1.6978,1.6978,1.6978,1.6978,1.6978,1.6978,1.6978,1.6978,1.6978,1.6978,1.6978,1.6978,1.6978,1.6978,1.6978,1.6978,1.6978,1.6978,1.6978,1.6978,1.6978,1.6978,1.6978,1.6978,1.6978,1.6978,1.6978,1.6856,1.6551,1.6341,1.6185,1.609,1.6083,1.6083,1.6083,1.6083,1.6083,1.6083,1.6083,1.6083,1.6083,1.6083,1.6083,1.6083,1.6083,1.6083,1.6829,1.6669,1.6554,1.6554,1.649,1.6388,1.6388,1.6307,1.6239,1.6239,1.6239,1.6239,1.6239,1.6198,1.6164,0.0,0.0,0.0,0.0,1.6164,1.6232,1.6232,1.6486,1.6696,1.6696,1.689,1.6978,1.6978,1.6978,1.6978,1.6978,1.6978,1.6978,1.6978,1.6978,1.6978,1.6978,1.6978,1.6978,1.6978,1.6978,1.6978,1.6978,1.6978,1.6978,1.6978,1.6978,1.6978,1.6978,1.6978,1.6978,1.6978,1.6978,1.6978,1.6978,1.6978,1.6978,1.6978,1.6978,1.6978,1.6978,1.6978,1.6978,1.6978,1.6978,1.6978,1.6992,1.7039,1.7019,1.6992,1.7039,1.7019,1.6978,1.6978,1.6978,1.6978,1.6978,1.6978,1.6978,1.6978,1.6978,1.6978,1.6978,1.6978,1.6978,1.6978,1.6978,1.6978,1.6978,1.6978,1.6978,1.6978,1.6978,1.6856,1.6551,1.6252,1.6083,1.6083,1.6083,1.6083,1.6083,1.6083,1.611,1.6164,1.611,1.611,1.6164,1.611,1.6083,1.6083,1.6083,1.6083]},{"header":{"parameterUnit":"m.s-1","parameterCategory":1,"la1":30.6,"la2":29.2853,"lo1":-89.7004,"lo2":-87.6739,"dy":0.0162,"dx":0.0183,"nx":112,"ny":82,"refTime":"2023-04-21T06:00:00:Z","depth":0,"parameterNumber":3,"parameterNumberName":"V-component_of_WINDS"},"data":[0.0,0.0,0.0,0.0,0.0,0.0,0.0,0.0,0.0,0.0,0.0,0.0,0.0,0.0,0.0,0.0,0.0,0.0,0.0,0.0,0.0,0.0,0.0,0.0,0.0,0.0,0.0,0.0,0.0,0.0,0.0,0.0,0.0,0.0,0.0,0.0,0.0,0.0,0.0,0.0,0.0,0.0,0.0,0.0,0.0,0.0,0.0,0.0,0.0,0.0,0.0,0.0,0.0,0.0,0.0,0.0,0.0,0.0,0.0,0.0,0.0,0.0,0.0,0.0,0.0,0.0,0.0,0.0,0.0,0.0,0.0,0.0,0.0,0.0,0.0,0.0,0.0,0.0,0.0,0.0,0.0,0.0,0.0,0.0,0.0,0.0,0.0,0.0,0.0,0.0,4.5182,4.4637,4.4615,4.4657,4.4734,4.5294,4.5385,4.4789,0.0,0.0,0.0,0.0,0.0,0.0,0.0,0.0,0.0,0.0,0.0,0.0,0.0,0.0,0.0,0.0,0.0,0.0,0.0,0.0,0.0,0.0,0.0,0.0,0.0,0.0,0.0,0.0,0.0,0.0,0.0,0.0,0.0,0.0,0.0,0.0,0.0,0.0,0.0,0.0,0.0,0.0,0.0,0.0,0.0,0.0,0.0,0.0,0.0,0.0,0.0,0.0,0.0,0.0,0.0,0.0,0.0,0.0,0.0,0.0,0.0,0.0,0.0,0.0,0.0,0.0,0.0,0.0,0.0,0.0,0.0,0.0,0.0,0.0,0.0,0.0,0.0,0.0,0.0,0.0,0.0,0.0,0.0,0.0,0.0,0.0,0.0,0.0,0.0,0.0,0.0,0.0,0.0,0.0,0.0,0.0,0.0,0.0,0.0,0.0,0.0,0.0,0.0,0.0,4.4692,4.4615,4.4615,4.4817,4.532,4.5915,4.6014,4.5412,0.0,0.0,0.0,0.0,0.0,0.0,0.0,0.0,0.0,0.0,0.0,0.0,0.0,0.0,0.0,0.0,0.0,0.0,0.0,0.0,0.0,0.0,0.0,0.0,0.0,0.0,0.0,0.0,0.0,0.0,0.0,0.0,0.0,0.0,0.0,0.0,0.0,0.0,0.0,0.0,0.0,0.0,0.0,0.0,0.0,0.0,0.0,0.0,0.0,0.0,0.0,0.0,0.0,0.0,0.0,0.0,0.0,0.0,0.0,0.0,0.0,0.0,0.0,0.0,0.0,0.0,0.0,0.0,0.0,0.0,0.0,0.0,0.0,0.0,0.0,0.0,0.0,0.0,0.0,0.0,0.0,0.0,0.0,0.0,0.0,0.0,0.0,0.0,0.0,0.0,0.0,0.0,0.0,0.0,0.0,0.0,0.0,0.0,0.0,0.0,0.0,0.0,0.0,4.4981,4.4838,4.5494,4.528,4.5333,4.594,4.6589,4.6542,4.5558,4.6149,0.0,0.0,0.0,0.0,0.0,0.0,0.0,0.0,0.0,0.0,0.0,0.0,0.0,0.0,0.0,0.0,0.0,0.0,0.0,0.0,0.0,0.0,0.0,0.0,0.0,0.0,0.0,0.0,0.0,0.0,0.0,0.0,0.0,0.0,0.0,0.0,0.0,0.0,0.0,0.0,0.0,0.0,0.0,0.0,0.0,0.0,0.0,0.0,0.0,0.0,0.0,0.0,0.0,0.0,0.0,0.0,0.0,0.0,0.0,0.0,0.0,0.0,0.0,0.0,0.0,0.0,0.0,0.0,0.0,0.0,0.0,0.0,0.0,0.0,0.0,0.0,0.0,0.0,0.0,0.0,0.0,0.0,0.0,0.0,0.0,0.0,0.0,0.0,0.0,0.0,0.0,0.0,0.0,0.0,0.0,0.0,0.0,0.0,0.0,0.0,0.0,0.0,4.5917,4.5778,4.6871,4.6425,4.6291,4.6873,4.7386,4.7192,4.6037,4.6853,0.0,0.0,0.0,0.0,0.0,0.0,0.0,0.0,0.0,0.0,0.0,0.0,0.0,0.0,0.0,0.0,0.0,0.0,0.0,0.0,0.0,0.0,0.0,0.0,0.0,0.0,0.0,0.0,0.0,0.0,0.0,0.0,0.0,0.0,0.0,0.0,0.0,0.0,0.0,0.0,0.0,0.0,0.0,0.0,0.0,0.0,0.0,0.0,0.0,0.0,0.0,0.0,0.0,0.0,0.0,0.0,0.0,0.0,0.0,0.0,0.0,0.0,0.0,0.0,0.0,0.0,0.0,0.0,0.0,0.0,0.0,0.0,0.0,0.0,0.0,0.0,0.0,0.0,0.0,0.0,0.0,0.0,0.0,0.0,0.0,0.0,0.0,0.0,0.0,0.0,0.0,0.0,0.0,0.0,0.0,0.0,0.0,0.0,0.0,0.0,0.0,0.0,4.7621,4.7888,4.8632,4.8063,4.786,4.8385,4.8493,4.8157,4.7313,4.7353,0.0,0.0,0.0,0.0,0.0,0.0,0.0,0.0,0.0,0.0,0.0,0.0,0.0,0.0,0.0,0.0,0.0,0.0,0.0,0.0,0.0,0.0,0.0,0.0,0.0,0.0,0.0,0.0,0.0,0.0,0.0,0.0,0.0,0.0,0.0,0.0,0.0,0.0,0.0,0.0,0.0,0.0,0.0,0.0,0.0,0.0,0.0,0.0,0.0,0.0,0.0,0.0,0.0,0.0,0.0,0.0,0.0,0.0,0.0,0.0,0.0,0.0,0.0,0.0,0.0,0.0,0.0,0.0,0.0,0.0,0.0,0.0,0.0,0.0,0.0,0.0,0.0,0.0,0.0,0.0,0.0,0.0,0.0,0.0,0.0,0.0,0.0,0.0,0.0,0.0,0.0,0.0,0.0,0.0,0.0,0.0,0.0,0.0,0.0,0.0,0.0,0.0,4.8735,4.8896,4.9959,4.9445,4.9303,4.993,4.9956,4.9445,4.8211,0.0,0.0,0.0,0.0,0.0,0.0,0.0,0.0,0.0,0.0,0.0,0.0,0.0,0.0,0.0,0.0,0.0,0.0,0.0,0.0,0.0,0.0,0.0,0.0,0.0,0.0,0.0,0.0,0.0,0.0,0.0,0.0,0.0,0.0,0.0,0.0,0.0,0.0,0.0,0.0,0.0,0.0,0.0,0.0,0.0,0.0,0.0,0.0,0.0,0.0,0.0,0.0,0.0,0.0,0.0,0.0,0.0,0.0,0.0,0.0,0.0,0.0,0.0,0.0,0.0,0.0,0.0,0.0,0.0,0.0,0.0,0.0,0.0,0.0,0.0,0.0,0.0,0.0,0.0,0.0,0.0,0.0,0.0,0.0,0.0,0.0,0.0,0.0,0.0,0.0,0.0,0.0,0.0,0.0,0.0,0.0,0.0,0.0,0.0,0.0,0.0,0.0,5.0466,5.0175,5.0352,5.1433,5.0929,5.0711,5.1128,5.1169,5.0649,4.9396,0.0,0.0,0.0,0.0,0.0,0.0,0.0,0.0,0.0,0.0,0.0,0.0,0.0,0.0,0.0,0.0,0.0,0.0,0.0,0.0,0.0,0.0,0.0,0.0,0.0,0.0,0.0,0.0,0.0,0.0,0.0,0.0,0.0,0.0,0.0,0.0,0.0,0.0,0.0,0.0,0.0,0.0,0.0,0.0,0.0,0.0,0.0,0.0,0.0,0.0,0.0,0.0,0.0,0.0,0.0,0.0,0.0,0.0,0.0,0.0,0.0,0.0,0.0,0.0,0.0,0.0,0.0,0.0,0.0,0.0,0.0,0.0,0.0,0.0,0.0,0.0,0.0,0.0,0.0,0.0,0.0,0.0,0.0,0.0,0.0,0.0,0.0,0.0,0.0,0.0,0.0,0.0,0.0,0.0,0.0,0.0,0.0,0.0,0.0,0.0,0.0,0.0,5.2112,5.2112,5.2381,5.3114,5.2554,5.2078,5.2009,5.2024,5.1693,0.0,0.0,0.0,0.0,0.0,0.0,0.0,0.0,0.0,0.0,0.0,0.0,0.0,0.0,0.0,0.0,0.0,0.0,0.0,0.0,0.0,0.0,0.0,0.0,0.0,0.0,0.0,0.0,0.0,0.0,0.0,0.0,0.0,0.0,0.0,0.0,0.0,0.0,0.0,0.0,0.0,0.0,0.0,0.0,0.0,0.0,0.0,0.0,0.0,0.0,0.0,0.0,0.0,0.0,0.0,0.0,0.0,0.0,0.0,0.0,0.0,0.0,0.0,0.0,0.0,0.0,0.0,0.0,0.0,0.0,0.0,0.0,0.0,0.0,0.0,0.0,0.0,0.0,0.0,0.0,0.0,0.0,0.0,0.0,0.0,0.0,0.0,0.0,0.0,0.0,0.0,0.0,0.0,0.0,0.0,0.0,0.0,0.0,0.0,0.0,0.0,0.0,0.0,5.2893,5.2893,5.2959,5.3193,5.3028,5.2886,5.2837,5.2858,5.2491,5.1693,0.0,0.0,0.0,0.0,0.0,0.0,0.0,0.0,0.0,0.0,0.0,0.0,0.0,0.0,0.0,0.0,0.0,0.0,0.0,0.0,0.0,0.0,0.0,0.0,0.0,0.0,0.0,0.0,0.0,0.0,0.0,0.0,0.0,0.0,0.0,0.0,0.0,0.0,0.0,0.0,0.0,0.0,0.0,0.0,0.0,0.0,0.0,0.0,0.0,0.0,0.0,0.0,0.0,0.0,0.0,0.0,0.0,0.0,0.0,0.0,0.0,0.0,0.0,0.0,0.0,0.0,0.0,0.0,0.0,0.0,0.0,0.0,0.0,0.0,0.0,0.0,0.0,0.0,0.0,0.0,0.0,0.0,0.0,0.0,0.0,0.0,0.0,0.0,0.0,0.0,0.0,0.0,0.0,0.0,0.0,0.0,0.0,0.0,0.0,0.0,0.0,0.0,5.3214,5.3214,5.3214,5.3214,5.3214,5.3214,5.3214,5.3214,5.2994,5.2527,0.0,0.0,0.0,0.0,0.0,0.0,0.0,0.0,0.0,0.0,0.0,0.0,0.0,0.0,0.0,0.0,0.0,0.0,0.0,0.0,0.0,0.0,0.0,0.0,0.0,0.0,0.0,0.0,0.0,0.0,0.0,0.0,0.0,0.0,0.0,0.0,0.0,0.0,0.0,0.0,0.0,0.0,0.0,0.0,0.0,0.0,0.0,0.0,0.0,0.0,0.0,0.0,0.0,0.0,0.0,0.0,0.0,0.0,0.0,0.0,0.0,0.0,0.0,0.0,0.0,0.0,0.0,0.0,0.0,0.0,0.0,0.0,0.0,0.0,0.0,0.0,0.0,0.0,0.0,0.0,0.0,0.0,0.0,0.0,0.0,0.0,0.0,0.0,0.0,0.0,0.0,0.0,0.0,0.0,0.0,0.0,0.0,0.0,0.0,0.0,0.0,0.0,5.3214,5.3214,5.3214,5.3214,5.3214,5.3214,5.3214,5.3214,5.3214,5.3214,0.0,0.0,0.0,0.0,0.0,0.0,0.0,0.0,0.0,0.0,0.0,0.0,0.0,0.0,0.0,0.0,0.0,0.0,0.0,0.0,0.0,0.0,0.0,0.0,0.0,0.0,0.0,0.0,0.0,0.0,0.0,0.0,0.0,0.0,0.0,0.0,0.0,0.0,0.0,0.0,0.0,0.0,0.0,0.0,0.0,0.0,0.0,0.0,0.0,0.0,0.0,0.0,0.0,0.0,0.0,0.0,0.0,0.0,0.0,0.0,6.0154,5.9946,0.0,0.0,0.0,0.0,0.0,0.0,0.0,0.0,0.0,0.0,0.0,0.0,0.0,0.0,0.0,0.0,0.0,0.0,0.0,0.0,0.0,0.0,0.0,0.0,0.0,0.0,0.0,0.0,0.0,0.0,0.0,0.0,0.0,0.0,0.0,0.0,0.0,0.0,0.0,0.0,5.3214,5.3214,5.3214,5.3214,5.3214,5.3214,5.3214,5.3214,5.3214,5.3214,5.3214,0.0,0.0,0.0,0.0,0.0,0.0,0.0,0.0,0.0,0.0,0.0,0.0,0.0,0.0,0.0,0.0,0.0,0.0,0.0,0.0,0.0,0.0,0.0,0.0,0.0,0.0,0.0,0.0,0.0,0.0,0.0,0.0,0.0,0.0,0.0,0.0,0.0,0.0,0.0,0.0,0.0,0.0,0.0,0.0,0.0,0.0,0.0,0.0,0.0,0.0,0.0,0.0,0.0,0.0,0.0,0.0,0.0,0.0,0.0,6.0527,6.045,0.0,0.0,0.0,0.0,0.0,0.0,0.0,0.0,0.0,0.0,0.0,0.0,0.0,0.0,0.0,0.0,0.0,0.0,0.0,0.0,0.0,0.0,0.0,0.0,0.0,0.0,0.0,0.0,0.0,0.0,0.0,0.0,0.0,0.0,0.0,0.0,0.0,0.0,0.0,0.0,5.4363,5.4363,5.4363,5.4363,5.3995,5.3775,5.3775,5.3434,5.3293,5.3484,5.3494,0.0,0.0,0.0,0.0,0.0,0.0,0.0,0.0,0.0,0.0,0.0,0.0,0.0,0.0,0.0,0.0,0.0,0.0,0.0,0.0,0.0,0.0,0.0,0.0,0.0,0.0,0.0,0.0,0.0,0.0,0.0,0.0,0.0,0.0,0.0,0.0,0.0,0.0,0.0,0.0,0.0,0.0,0.0,0.0,0.0,0.0,0.0,0.0,0.0,0.0,0.0,0.0,0.0,6.0787,6.0787,6.0787,6.0787,6.0787,6.0787,6.0787,6.0787,6.0787,6.0787,0.0,0.0,0.0,0.0,0.0,0.0,0.0,0.0,0.0,0.0,0.0,0.0,0.0,0.0,0.0,0.0,0.0,0.0,0.0,0.0,0.0,0.0,5.7997,5.7997,5.7997,5.7997,5.7997,0.0,0.0,0.0,0.0,0.0,0.0,0.0,0.0,0.0,0.0,0.0,5.5585,5.5585,5.5585,5.5585,5.4997,5.462,5.462,5.4091,5.3897,5.4214,5.4289,5.4522,0.0,0.0,0.0,0.0,0.0,0.0,0.0,0.0,0.0,0.0,0.0,0.0,0.0,0.0,0.0,0.0,0.0,0.0,0.0,0.0,0.0,0.0,0.0,0.0,0.0,0.0,0.0,0.0,0.0,0.0,0.0,0.0,6.0787,6.0787,0.0,0.0,0.0,0.0,0.0,0.0,0.0,0.0,0.0,0.0,0.0,0.0,0.0,6.0787,6.0787,6.0787,6.0787,6.0787,6.0787,6.0787,6.0787,6.0787,6.0787,6.0787,6.0787,0.0,6.0787,6.0787,0.0,0.0,0.0,0.0,0.0,0.0,0.0,0.0,0.0,0.0,0.0,0.0,0.0,0.0,0.0,0.0,0.0,0.0,0.0,0.0,0.0,0.0,5.7997,5.7997,5.7997,5.7997,5.7997,5.7923,5.785,5.785,5.774,5.7666,0.0,0.0,0.0,0.0,0.0,0.0,5.5585,5.5585,5.5585,5.5585,5.5511,5.5438,5.5438,5.572,5.5918,5.5948,5.6341,5.6597,5.6655,5.6655,0.0,0.0,0.0,0.0,0.0,0.0,0.0,0.0,0.0,0.0,0.0,0.0,0.0,0.0,0.0,0.0,0.0,0.0,0.0,0.0,0.0,0.0,0.0,0.0,0.0,0.0,0.0,0.0,0.0,6.0787,6.0787,6.0787,6.0787,6.0787,0.0,0.0,0.0,0.0,0.0,0.0,0.0,0.0,0.0,6.0787,6.0787,6.0787,6.0787,6.0787,6.0787,6.0787,6.0787,6.0787,6.0787,6.0787,6.0787,6.0787,6.0787,6.0787,6.0787,6.0787,6.0787,6.0787,0.0,0.0,0.0,0.0,6.0659,6.0495,6.0495,6.0351,6.0182,6.0182,0.0,0.0,0.0,0.0,0.0,0.0,0.0,5.8311,5.8088,5.7997,5.7997,5.7997,5.7997,5.7997,5.7997,5.7997,5.7997,5.7997,5.7997,5.7997,5.7997,5.7703,0.0,0.0,0.0,5.6943,5.6943,5.6943,5.6943,5.6943,5.6528,5.6378,5.6636,5.6454,5.65,5.7011,5.7225,5.7465,5.7707,5.7713,5.7561,0.0,0.0,0.0,0.0,0.0,0.0,0.0,0.0,0.0,0.0,0.0,0.0,0.0,0.0,0.0,0.0,0.0,0.0,0.0,0.0,0.0,0.0,0.0,0.0,0.0,0.0,0.0,0.0,6.0787,6.0787,6.0787,6.0787,6.0787,0.0,0.0,0.0,0.0,0.0,0.0,6.1133,6.132,6.1435,6.1435,6.1435,6.1435,6.1435,6.1435,6.1435,6.1435,6.1435,6.1435,6.1435,6.1435,6.1435,6.1435,6.1435,6.1435,6.1396,6.0973,6.0787,6.0787,6.0787,6.0787,6.0787,6.0787,6.0787,6.0787,6.0787,6.0787,6.0787,6.0787,6.0482,6.011,6.011,0.0,0.0,0.0,0.0,5.845,5.8085,5.7997,5.7997,5.7997,5.7997,5.7997,5.7997,5.7997,5.7997,5.7997,5.7997,5.7997,5.7997,5.7997,0.0,5.7997,5.7997,5.7997,5.7997,5.8097,5.8198,5.8198,5.7739,5.7623,5.7958,5.7529,5.757,5.8213,5.8338,5.8579,5.8923,5.8934,5.8813,5.8627,0.0,0.0,0.0,0.0,0.0,0.0,0.0,0.0,0.0,0.0,0.0,0.0,0.0,0.0,0.0,0.0,0.0,0.0,0.0,0.0,0.0,0.0,0.0,0.0,0.0,0.0,0.0,0.0,0.0,6.0787,6.0787,0.0,0.0,0.0,0.0,6.0787,6.1556,6.2018,6.2018,6.2743,6.316,6.316,6.316,6.316,6.316,6.316,6.316,6.316,6.316,6.316,6.316,6.316,6.316,6.316,6.316,6.316,6.3045,6.1473,6.0787,6.0787,6.0787,6.0787,6.0787,6.0787,6.0787,6.0787,6.0787,6.0787,6.0787,6.0787,6.0482,6.011,6.011,5.9458,0.0,0.0,5.8375,5.8042,5.8008,5.7997,5.7997,5.7997,5.7997,5.7997,5.7997,5.7997,5.7997,5.7997,5.7997,5.7997,5.7997,0.0,5.7997,5.7997,5.7997,5.7997,5.7997,5.8386,5.8673,5.8673,5.9047,5.929,5.9317,5.9678,5.9914,5.9951,6.0399,6.0654,6.0671,6.0671,6.0281,5.9473,6.0242,0.0,0.0,0.0,0.0,0.0,0.0,0.0,0.0,0.0,0.0,0.0,0.0,0.0,0.0,0.0,0.0,0.0,0.0,0.0,0.0,0.0,0.0,0.0,0.0,0.0,0.0,0.0,0.0,6.2397,6.2397,0.0,6.2397,6.2397,6.2397,6.2397,6.2704,6.2858,6.2858,6.3121,6.3314,6.3314,6.3314,6.3314,6.3314,6.3314,6.3314,6.3314,6.3314,6.3314,6.3314,6.3314,6.3314,6.3314,6.3314,6.3314,6.3237,6.266,6.2397,6.2397,6.2397,6.2089,6.1633,6.1633,6.1287,6.0787,6.0787,6.0787,6.0787,6.0787,6.071,6.0533,6.0533,6.0324,5.9977,5.9704,5.9257,5.8825,5.8518,5.8216,5.7997,5.7997,5.7997,5.7997,5.7997,5.7997,5.7997,5.7997,5.7997,5.7997,5.7997,5.7997,5.7997,5.7997,5.8249,5.8461,5.8461,5.8855,5.9139,5.9139,5.9293,5.9509,5.9831,5.9991,6.021,6.0521,6.0722,6.0787,6.0787,6.0787,6.0666,6.0319,6.0627,6.0666,0.0,0.0,0.0,0.0,0.0,0.0,0.0,0.0,0.0,0.0,0.0,0.0,0.0,0.0,0.0,0.0,0.0,0.0,0.0,0.0,0.0,0.0,0.0,0.0,0.0,6.3314,6.3314,6.3314,6.3314,6.3314,6.3314,6.3314,6.3314,6.3314,6.3583,6.3737,6.3737,6.4006,6.4166,6.4166,6.4166,6.4166,6.4166,6.4166,6.4166,6.4166,6.4166,6.4166,6.4166,6.4166,6.4166,6.4166,6.4166,6.4166,6.4166,6.4166,6.4166,6.4122,6.3545,6.2974,6.2518,6.2518,6.2127,6.1627,6.1627,6.1627,6.1627,6.1627,6.1627,6.1627,6.1627,6.125,6.0704,6.0411,5.9642,5.8855,5.8528,5.8227,5.7997,5.7997,5.7997,5.7997,5.7997,5.7997,5.7997,5.7997,5.7997,5.7997,5.7997,5.7997,5.7997,5.7997,5.8397,5.8713,5.8713,5.9239,5.9625,5.9625,5.9792,5.9984,6.0317,6.0338,6.0476,6.0769,6.0787,6.0787,6.0787,6.0787,6.0787,6.0787,6.0787,6.0787,6.0787,0.0,0.0,0.0,0.0,0.0,0.0,0.0,0.0,0.0,0.0,0.0,0.0,0.0,0.0,0.0,0.0,0.0,0.0,0.0,0.0,0.0,0.0,0.0,6.3506,6.3391,6.3391,6.3391,6.3391,6.3391,6.3391,6.3391,6.3391,6.3391,6.4166,6.4628,6.4628,6.5436,6.5904,6.5904,6.5904,6.5904,6.5904,6.5904,6.5904,6.5904,6.5904,6.5904,6.5904,6.5904,6.5904,6.5904,6.5904,6.5904,6.5904,6.5904,6.5904,6.575,6.4045,6.3352,6.3352,6.3352,6.3314,6.3314,6.3314,6.3314,6.3314,6.3314,6.3314,6.3314,6.3314,6.2122,6.0789,6.0771,5.9485,5.8127,5.8104,5.8081,5.807,5.807,5.807,5.807,5.807,5.807,5.807,5.8033,5.8033,5.8033,5.7997,5.802,5.8031,5.8031,5.8439,0.0,5.8726,5.9543,6.0125,6.0125,6.0521,6.0787,6.0787,6.0787,6.0787,6.0787,6.0787,6.0787,6.0787,6.0787,6.0787,6.0787,6.0787,6.0787,6.0787,0.0,0.0,0.0,0.0,0.0,0.0,0.0,0.0,0.0,0.0,0.0,0.0,0.0,0.0,0.0,0.0,0.0,0.0,0.0,0.0,0.0,6.5551,6.5474,6.5205,6.5205,6.5205,6.5205,6.5205,6.5205,6.5205,6.5205,6.5205,6.5205,6.5397,6.5551,6.5551,6.5782,6.5904,6.5904,6.5904,6.5904,6.5904,6.5904,6.5904,6.5904,6.5904,6.5904,6.5904,6.5904,6.5904,6.5904,6.5904,6.5904,6.5904,6.5904,6.5904,6.5865,6.5359,6.4782,6.4237,6.4237,6.3852,6.3314,6.3314,6.3314,6.3314,6.3314,6.3314,6.3314,6.3314,6.2964,6.2526,6.2155,6.1469,6.0748,6.0364,6.001,5.9758,5.9758,5.9758,5.9758,5.9758,5.9758,5.9575,5.8976,5.8866,5.8682,5.8107,5.8282,5.8524,5.8524,5.9185,5.9736,5.9736,6.0255,6.0616,6.0616,6.0734,6.0787,6.0787,6.0787,6.0787,6.0787,6.0787,6.0787,6.0787,6.0787,6.0787,6.0787,6.0787,6.0787,0.0,0.0,0.0,0.0,0.0,0.0,0.0,0.0,0.0,0.0,0.0,0.0,0.0,0.0,0.0,0.0,0.0,0.0,0.0,0.0,0.0,0.0,6.5904,6.5904,6.5904,6.5904,6.5904,6.5904,6.5904,6.5904,6.5904,6.5904,6.5904,6.5904,6.6211,6.6404,6.6404,6.6744,6.6936,6.6936,6.6936,6.6936,6.6936,6.6936,6.6936,6.6936,6.6936,6.6936,6.6936,6.6936,6.6936,6.6936,6.6936,6.6936,6.6936,6.6936,6.6744,6.6365,0.0,0.0,0.0,0.0,6.482,6.4397,6.4397,6.4397,6.4397,6.4397,6.4257,6.406,6.406,6.3526,6.2857,6.2586,6.1929,6.1187,6.087,6.0605,6.0419,6.0419,6.0419,6.0419,6.0419,6.0419,6.0307,6.0058,6.0041,0.0,5.9695,5.9119,5.8713,5.8713,5.9492,6.011,6.011,6.0502,6.0787,6.0787,6.0787,6.0787,6.0787,6.0787,0.0,0.0,0.0,6.0787,6.0787,6.0787,0.0,0.0,0.0,6.0787,6.0787,6.0787,0.0,0.0,6.0787,6.0787,0.0,0.0,0.0,0.0,0.0,0.0,0.0,0.0,0.0,0.0,0.0,0.0,0.0,0.0,0.0,0.0,6.6167,6.6167,6.6167,6.6167,6.6167,6.6051,6.6134,6.6167,6.6167,6.6167,6.6167,6.6167,6.6821,6.725,6.725,6.7975,0.0,0.0,0.0,6.8391,6.8391,6.8391,6.8391,6.8391,6.8391,6.8391,6.8391,6.8391,6.8391,6.8391,6.8391,6.8391,6.8391,6.8391,6.7936,6.7173,6.625,6.5904,6.5904,6.5904,6.5904,6.5904,6.5904,0.0,0.0,6.5904,6.5569,6.5169,6.5122,6.3988,6.2666,6.2567,6.1667,6.0772,6.0688,6.0676,6.0676,6.0676,6.0676,6.0676,6.0676,6.0676,6.0769,6.1187,6.1247,6.1361,6.1751,6.0313,5.9126,5.9126,5.9904,6.0442,6.0442,6.0834,6.1089,6.1089,6.1089,0.0,6.1089,6.1089,6.1089,6.1089,6.1089,6.1089,6.1089,6.1089,6.1089,6.1089,6.1089,6.1089,6.1089,6.1089,6.1089,6.1089,6.0896,6.0864,0.0,0.0,0.0,0.0,0.0,0.0,0.0,0.0,0.0,0.0,0.0,0.0,0.0,0.0,0.0,6.793,6.793,6.793,6.793,6.793,6.7667,6.6942,6.7475,6.793,6.793,6.793,6.793,6.793,6.8045,6.816,6.816,6.8314,6.8391,6.8391,6.8391,6.8391,6.8391,6.8391,6.8391,6.8391,6.8391,0.0,6.8391,6.8391,6.8391,6.8391,6.8391,6.8391,6.8391,6.8391,6.8314,6.8007,6.6474,6.5904,6.5904,6.5904,6.5904,6.5904,6.5904,6.5904,6.5904,6.5904,6.5814,6.567,6.5245,6.4843,0.0,6.3589,6.317,6.2895,6.2451,6.2352,6.2352,6.2352,6.2352,6.2352,6.2352,6.2352,6.2169,6.1616,6.1529,6.147,6.1378,6.1624,6.1869,6.1869,6.2306,6.2682,6.2682,6.2777,6.2814,6.2814,6.2814,6.2814,6.2814,6.2814,6.2814,6.2814,6.2814,6.2814,6.2814,6.2814,6.2814,6.2814,6.2814,6.2814,6.2814,6.2814,6.2814,6.2775,6.1435,6.1172,0.0,0.0,0.0,0.0,0.0,0.0,0.0,0.0,0.0,0.0,0.0,6.7744,6.7744,0.0,6.8391,6.8391,6.8391,6.8391,6.8391,6.8776,6.8737,6.7859,6.8122,6.8391,6.8391,6.8391,6.8391,6.8391,6.8814,6.9237,6.9622,7.0052,7.0514,7.093,7.0968,7.0968,7.0968,7.0968,7.0968,7.0968,7.0968,7.0968,7.0968,7.0968,7.0968,7.0968,7.0968,7.0699,7.0244,6.9391,6.9045,6.893,6.7667,6.7167,6.7167,6.7167,6.7167,6.7167,6.7167,6.7167,6.7096,6.6828,6.6552,6.6268,6.5709,6.5409,6.5106,6.4589,6.4449,6.4376,6.4129,6.404,6.404,6.404,6.3747,6.3466,6.3466,6.3309,6.3148,6.3028,6.3204,6.3378,6.355,6.394,6.3893,6.278,6.2987,6.3314,6.3314,6.3314,6.3314,6.3314,6.3314,6.3314,6.3314,6.3314,6.3314,6.3314,6.3314,6.3314,6.3314,6.3314,6.3314,6.3314,6.3314,6.3314,6.3314,6.3314,6.3314,6.3275,6.2429,6.2281,0.0,0.0,0.0,0.0,0.0,0.0,0.0,6.8391,6.8391,6.8391,6.8545,6.866,6.866,6.8776,6.893,6.9122,6.9122,6.9199,6.9353,7.0007,7.0161,6.9468,6.9237,6.9199,6.9353,6.9391,6.9391,6.9391,7.0045,7.0706,7.136,7.2052,7.2783,7.3469,7.3507,7.3507,7.3507,7.3507,7.3507,7.3507,7.3507,7.3507,7.3507,7.3507,7.3507,7.3507,7.3507,7.3091,7.236,7.1014,7.0437,7.0353,6.9661,6.9391,6.9314,6.8622,6.8391,6.8391,6.8391,6.8391,6.8345,6.7906,6.7453,6.7023,6.6479,6.6052,6.5742,6.562,6.5533,6.5469,6.5469,6.5391,6.5288,6.5288,6.4787,6.431,6.431,6.413,6.4071,6.4503,6.4982,6.5444,6.5966,6.6175,6.5541,6.3554,6.3571,6.3814,6.3814,6.3814,6.3814,6.3814,6.3814,6.3814,6.3814,6.3814,6.3852,6.4045,6.4045,6.4122,6.4275,6.4275,6.4275,6.4275,6.4275,6.4275,6.4275,6.4275,6.4275,6.4275,6.4275,6.4045,6.7891,6.8122,6.8122,6.8237,6.8237,6.8276,0.0,6.8391,6.8391,6.8391,6.9007,6.9552,6.9552,7.0129,7.086,7.1636,7.179,7.2052,7.2815,7.3007,7.3046,7.293,7.2245,7.2091,7.2853,7.293,7.293,7.293,7.3007,7.3122,7.3199,7.3315,7.3392,7.3507,7.3507,7.3507,7.3507,7.3507,7.3507,7.3507,7.3507,7.3507,7.3507,7.3507,7.3507,7.3507,7.3507,7.343,7.3353,7.3161,7.3084,7.3084,7.2969,7.293,7.2545,6.9507,6.8391,6.8391,6.8391,6.8391,6.8385,6.8345,6.8265,6.8129,6.7578,6.7372,6.725,6.6822,6.6368,6.6021,6.6021,6.5657,6.5288,6.5288,6.5215,6.5191,6.5191,6.5132,6.5136,6.5211,6.5622,6.6159,6.6607,6.7089,6.6965,6.573,6.5571,6.559,6.559,6.559,6.559,6.559,6.559,6.559,6.559,6.559,6.5897,6.6628,6.6673,6.7013,6.7814,6.7814,6.7814,6.7814,6.7814,6.7814,6.7814,6.7814,6.7814,6.7814,6.7814,6.6622,6.8314,6.8391,6.8507,6.9045,6.9161,6.9276,6.9744,6.986,6.986,6.986,7.0552,7.1129,7.1129,7.1822,7.2545,7.2899,7.2976,7.3091,7.343,7.3507,7.3661,7.4123,7.3899,7.363,7.3507,7.3507,7.3507,7.3507,7.3507,7.3699,7.4161,7.4199,7.443,7.4938,7.4938,7.4938,7.4938,7.4938,7.4938,7.4938,7.4938,7.4938,7.4938,7.4938,7.4938,7.4938,7.443,7.4199,7.4161,7.3699,7.3507,7.3507,7.3507,7.3507,7.3315,7.1892,7.1353,7.1353,7.1353,7.1127,7.0797,7.0463,6.9805,6.9043,6.8525,6.801,6.7602,6.7435,6.7209,6.7036,6.7036,6.6857,6.6765,6.7086,6.6815,6.6553,6.6863,6.678,6.6623,6.6623,6.7089,6.7508,6.7689,6.7906,6.7913,6.741,6.7359,6.7359,6.7359,6.7359,6.7359,6.7359,6.7359,6.7359,6.7359,6.7359,6.7513,6.7859,6.7859,6.8013,6.8391,6.8391,6.8391,6.8391,6.8391,6.8391,6.8391,6.8391,6.8391,6.8391,6.8391,6.7814,6.9084,6.9084,6.9237,6.986,7.0014,7.0244,7.1052,7.1245,7.1321,7.1591,7.2129,7.2552,7.2552,7.3091,7.3584,7.3776,7.4046,7.4276,7.4507,7.4738,7.5091,7.5668,7.5745,7.5515,7.4938,7.4661,7.4546,7.4546,7.4745,7.513,7.5707,7.5745,7.6053,7.6669,7.6669,7.6669,7.6669,7.6669,7.6669,7.6669,7.6669,7.6669,7.6669,7.6669,7.6669,7.663,7.6015,7.5745,7.5707,7.513,7.4899,7.4899,7.4899,7.4738,7.4546,7.4546,7.4019,7.3269,7.3269,7.2868,7.2291,7.1917,7.1098,7.0168,6.9805,6.9258,6.8777,6.8814,6.8723,6.8568,6.8568,6.8472,6.8446,6.8827,6.8494,6.8242,6.879,6.8723,6.8572,6.8716,6.9206,6.9546,6.9546,6.9708,6.9814,6.9814,6.9814,6.9468,6.8507,6.8391,6.8391,6.8391,6.8391,6.8391,6.8391,6.8391,6.8507,6.8737,6.8776,6.8853,6.9084,6.9084,6.9084,6.9084,6.9084,6.9084,6.9084,6.9084,6.9084,6.9084,6.9084,6.9138,7.0821,7.0821,7.0821,7.086,7.086,7.1091,7.1944,7.2175,7.2399,7.3238,7.343,7.3469,7.3469,7.3469,7.3776,7.4546,7.5361,7.6207,7.7061,7.7869,7.8369,7.8369,7.8369,7.8369,7.8369,7.7638,7.7176,7.7176,7.7907,7.8369,7.8369,7.8369,7.8407,7.8407,7.8407,7.8407,7.8407,7.8407,7.8407,7.8407,7.8407,7.8407,7.8407,7.8407,7.8407,7.8407,7.8407,7.8369,7.8369,7.8369,7.8369,7.8369,7.8369,7.7869,7.7176,7.7176,7.5263,7.2612,7.2612,7.2244,7.1706,7.1702,7.1653,7.1653,7.1632,7.1594,7.1594,7.1573,7.1211,7.0785,7.0785,7.0439,7.005,7.0064,7.0041,7.0173,7.076,7.0893,7.1058,7.1583,7.2101,7.2456,7.2456,7.2954,7.3353,7.3353,7.3353,7.2161,6.8814,6.8391,6.8391,6.8391,6.8391,6.8391,6.8391,6.8391,6.8776,6.9629,6.9667,7.0014,7.0783,7.0821,7.0821,7.0821,7.0821,7.0821,7.0821,7.0821,7.0821,7.0821,7.0821,7.0953,7.1591,7.1752,7.1898,7.2476,7.2622,7.2699,7.3014,7.3053,7.3161,7.343,7.393,7.4469,7.5053,7.563,7.6284,7.7092,7.7476,7.7753,7.8061,7.833,7.8484,7.8484,7.8484,7.8484,7.8484,7.8253,7.8099,7.8099,7.8369,7.8484,7.8484,7.8484,7.8484,7.8484,7.8484,7.8484,7.8484,7.8484,7.8484,7.8484,7.8484,7.8484,7.8484,7.8484,7.8484,7.8484,7.8484,7.8484,7.8484,7.8484,7.8275,7.7882,7.7882,7.7483,7.6898,7.6898,7.5977,7.4673,7.4391,7.3876,7.335,7.297,7.2465,7.2028,7.2028,7.1392,7.0721,7.1125,7.0809,7.046,7.0859,7.0809,7.0871,7.1595,7.1776,7.192,7.2543,7.2641,7.2694,7.2893,7.3076,7.32,7.32,7.3389,7.3507,7.3507,7.3507,7.3084,7.193,7.1776,7.1776,7.1776,7.1776,7.1776,7.1776,7.1776,7.1892,7.2199,7.2199,7.2353,7.2622,7.2622,7.2622,7.2622,7.2622,7.2622,7.2622,7.2622,7.2622,7.2622,7.2622,7.2449,7.2514,7.2668,7.2783,7.3353,7.3507,7.3584,7.3853,7.4161,7.4469,7.4784,7.5515,7.6245,7.6784,7.7369,7.7907,7.8407,7.8754,7.8977,7.8977,7.9208,7.9446,7.9446,7.9446,7.9446,7.9446,7.9446,7.9292,7.8977,7.9254,7.9446,7.9446,7.9446,7.9446,7.9446,7.9446,7.9446,7.9446,7.9446,7.9446,7.9446,7.9446,7.9446,7.9446,7.9446,7.9446,7.9446,7.9446,7.9446,7.9446,7.9446,7.9204,7.8856,7.8856,7.8427,7.7812,7.7812,7.711,7.6056,7.5544,7.4967,7.445,7.4052,7.3572,7.3164,7.3164,7.2544,7.1897,7.2291,7.2088,7.1912,7.2304,7.2164,7.2199,7.3096,7.3098,7.3107,7.3901,7.4067,7.4144,7.437,7.4392,7.4392,7.4392,7.4392,7.4392,7.4392,7.4392,7.4161,7.3584,7.3507,7.3507,7.3507,7.3507,7.3507,7.3507,7.3507,7.3507,7.3507,7.3507,7.3507,7.3507,7.3507,7.3507,7.3507,7.3507,7.3507,7.3507,7.3507,7.3397,7.3177,7.3177,7.2889,7.3546,7.3546,7.3584,7.3661,7.3699,7.3892,7.47,7.5515,7.6361,7.7176,7.7984,7.8523,7.8561,7.8561,7.86,7.8638,7.9323,7.9854,7.9854,8.0592,8.1093,8.1093,8.1093,8.1093,8.1093,8.1093,8.0746,7.9931,8.0631,8.1093,8.1093,8.1093,8.1093,8.1093,8.1093,8.1093,8.1093,8.1093,8.1093,8.1093,8.1093,8.1093,8.1093,8.1093,8.1093,8.1093,8.1093,8.1077,8.1061,8.1061,8.1045,8.0991,8.0967,8.0459,7.9721,7.9697,7.8437,7.6665,7.608,7.5463,7.4926,7.4918,7.4933,7.4963,7.4963,7.4933,7.4918,7.4963,7.4933,7.4918,7.4963,7.439,7.3967,7.4566,7.4113,7.3871,7.4971,7.5196,7.5386,7.5987,7.6115,7.613,7.613,7.613,7.613,7.613,7.613,7.5515,7.3853,7.3623,7.3623,7.3623,7.3623,7.3623,7.3623,7.3623,7.3623,7.3623,7.3623,7.3623,7.3623,7.3623,7.3623,7.3623,7.3623,7.3623,7.3623,7.3601,7.3277,7.2747,7.272,7.2497,7.4238,7.4392,7.47,7.6015,7.6322,7.6553,7.7361,7.7715,7.7946,7.8138,7.8369,7.8715,7.9361,7.9477,7.9669,8.0323,8.0631,8.0785,8.0785,8.0977,8.1093,8.1093,8.1093,8.1093,8.1093,8.1093,8.1016,8.0785,8.0977,8.1093,8.1093,8.1093,8.1093,8.1093,8.1093,8.1093,8.1093,8.1093,8.1093,8.1093,8.1093,8.1093,8.1093,8.1093,8.1093,8.1093,8.1093,8.083,8.0352,8.0352,8.0096,7.9648,7.9201,7.8899,7.8601,7.8122,7.7617,7.7139,7.6987,7.6312,7.5499,7.5058,7.5187,7.5558,7.5558,7.5244,7.4985,7.5444,7.5229,7.5,7.5444,7.5409,7.5397,7.6015,7.6019,7.5961,7.6214,7.666,7.7025,7.7144,7.7566,7.7869,7.7869,7.7869,7.7869,7.7869,7.7869,7.7253,7.5592,7.5361,7.5361,7.5361,7.5361,7.5361,7.5361,7.5361,7.5361,7.5361,7.5361,7.5361,7.5361,7.5361,7.5361,7.5361,7.5361,7.5361,7.5361,7.49,7.4604,7.4433,7.4045,7.3578,7.5707,7.6092,7.6592,7.7599,7.783,7.7946,7.8407,7.8792,7.9054,7.9054,7.9361,7.9785,8.0285,8.0362,8.0516,8.1016,8.1093,8.1093,8.1093,8.1093,8.1093,8.1093,8.1093,8.1093,8.1093,8.1093,8.1093,8.1093,8.1093,8.1093,8.1093,8.1093,8.1093,8.1093,8.1093,8.1093,8.1093,8.1093,8.1093,8.1093,8.1093,8.1093,8.1085,8.0813,8.0838,8.1069,8.0519,8.0182,8.0096,7.9827,7.9502,7.9163,7.8841,7.8691,7.8653,7.8285,7.7965,7.7739,7.7739,7.7168,7.6392,7.6066,7.6177,7.6448,7.6448,7.6235,7.6021,7.6372,7.6221,7.6111,7.6729,7.6619,7.658,7.7468,7.7407,7.7214,7.7445,7.7757,7.799,7.799,7.8283,7.8484,7.8484,7.8484,7.8484,7.8484,7.8484,7.8176,7.7215,7.7092,7.7092,7.7092,7.7092,7.7092,7.7092,7.7092,7.7092,7.7092,7.7092,7.7092,7.7092,7.7092,7.697,7.6695,7.6687,7.6586,7.629,7.5979,7.568,7.5388,7.509,7.4624,7.7445,7.7984,7.8523,7.8638,7.8677,7.8715,7.883,7.9438,7.9969,7.9969,8.0554,8.1093,8.1093,8.1093,8.1093,8.1093,8.1093,8.1093,8.1093,8.1093,8.1093,8.1093,8.1093,8.1093,8.1093,8.1093,8.1093,8.1093,8.1093,8.1093,8.1093,8.1093,8.1093,8.1093,8.1093,8.1093,8.1093,8.1093,8.1093,8.1093,8.1093,8.1093,8.1077,8.049,8.0564,8.1053,7.9946,7.9723,8.0048,7.9535,7.9324,7.9301,7.914,7.9128,7.9187,7.901,7.8615,7.8159,7.8159,7.7797,7.7289,7.7289,7.7289,7.7289,7.7289,7.7289,7.7289,7.7289,7.7289,7.7405,7.803,7.7652,7.7375,7.8431,7.823,7.7923,7.8369,7.859,7.8723,7.8815,7.8869,7.8869,7.8869,7.8869,7.8869,7.8869,7.8869,7.8869,7.8869,7.8638,7.8484,7.8484,7.8484,7.8484,7.8484,7.8484,7.8484,7.8484,7.8484,7.8484,7.8484,7.8484,7.8267,7.7739,7.7626,7.7356,7.6801,7.6644,7.6291,7.5824,7.5732,7.5389,7.8099,7.8407,7.8677,7.94,7.9592,7.9746,8.0477,8.0785,8.0862,8.0862,8.0977,8.1093,8.1093,8.1093,8.1093,8.1093,8.1093,8.1093,8.1093,8.1093,8.1093,8.1093,8.1093,8.1093,8.1093,8.1093,8.1093,8.1093,8.1093,8.1093,8.1093,8.1093,8.1093,8.1093,8.1093,8.1093,8.1093,8.1093,8.1093,8.1093,8.1093,8.1093,8.1093,8.0975,8.0983,8.1085,8.0855,8.0499,8.0067,7.9979,7.9939,7.9858,7.8853,7.8766,7.9081,7.8035,7.7548,7.7465,7.7465,7.7411,7.7289,7.7289,7.7289,7.7289,7.7289,7.7289,7.7289,7.7289,7.7289,7.732,7.742,7.7355,7.7304,7.7546,7.7893,7.8216,7.8329,7.9118,7.9986,8.0522,8.0631,8.0631,8.0631,8.0631,8.0631,8.0631,8.0631,8.0631,8.0631,7.9408,7.8484,7.8484,7.8484,7.8484,7.8484,7.8484,7.8484,7.8484,7.8484,7.8484,7.8484,7.8484,7.8446,7.8338,7.7838,7.7541,7.7445,7.6446,7.5891,7.5774,7.5286,7.5,7.9054,7.9515,7.9939,8.0362,8.0477,8.0592,8.1016,8.1093,8.1093,8.1093,8.1093,8.1093,8.1093,8.1093,8.1093,8.1093,8.1093,8.1093,8.1093,8.1093,8.1093,8.1093,8.1093,8.1246,8.167,8.1708,8.19,8.237,8.2401,8.2016,8.1131,8.1093,8.1093,8.1093,8.1093,8.1093,8.1093,8.1093,8.1093,8.1093,8.1093,8.1093,8.1085,8.0741,8.0758,8.1069,8.0399,8.0105,8.0096,7.9737,7.9447,7.9093,7.8536,7.8245,7.8136,7.754,7.7289,7.7289,7.7289,7.7289,7.7289,7.7289,7.7289,7.7289,7.7289,7.7289,7.7289,7.7289,7.7289,7.7381,7.7724,7.784,7.7903,7.8218,7.8538,7.8828,7.9163,7.9436,7.9908,8.0926,8.083,8.0707,8.1053,8.1093,8.1093,8.1093,8.1093,8.1093,8.1093,8.0362,7.9862,7.9862,7.9862,7.9862,7.9862,7.9862,7.9862,7.9862,7.9539,7.9327,7.9327,7.9046,7.8739,7.8403,7.8119,7.7796,7.7442,7.6847,7.6585,7.6571,7.628,7.6151,8.0046,8.0592,8.1093,8.1093,8.1093,8.1093,8.1093,8.1093,8.1093,8.1093,8.1093,8.1093,8.1093,8.1093,8.1093,8.1093,8.1093,8.1093,8.1093,8.1093,8.117,8.1323,8.1362,8.167,8.2516,8.2593,8.2862,8.3563,8.3601,8.3024,8.1708,8.1631,8.1631,8.1631,8.1631,8.1631,8.1631,8.1631,8.1631,8.1631,8.1631,8.1631,8.1623,8.1071,8.1144,8.16,8.058,8.0411,8.0793,8.0148,7.9497,7.8928,7.8637,7.809,7.7495,7.735,7.7289,7.7289,7.7289,7.7289,7.7289,7.7289,7.7289,7.7289,7.7289,7.7289,7.7289,7.7289,7.7289,7.7426,7.7946,7.81,7.8255,7.884,7.8998,7.9175,7.9796,7.9535,7.9491,8.0519,8.0268,8.0086,8.0599,8.0698,8.0698,8.0698,8.0698,8.0698,8.0698,8.0698,8.0698,8.0698,8.0943,8.1093,8.1093,8.0967,8.088,8.088,8.0277,7.9908,7.9908,7.9447,7.8962,7.851,7.8389,7.8058,7.751,7.7365,7.7289,7.7289,7.7289,7.7289,8.0785,8.1054,8.1093,8.1093,8.1093,8.1093,8.1093,8.1093,8.1093,8.1093,8.1093,8.1093,8.1093,8.1093,8.1093,8.1093,8.1093,8.1093,8.1093,8.1093,8.1362,8.2093,8.217,8.2516,8.3409,8.3486,8.3524,8.3601,8.3601,8.3524,8.337,8.337,8.337,8.337,8.337,8.337,8.337,8.337,8.337,8.337,8.337,8.337,8.337,8.333,8.3292,8.3362,8.3251,8.3234,8.319,8.2342,8.1666,8.0974,7.9638,7.8754,7.8118,7.7525,7.7289,7.7289,7.7289,7.7289,7.7289,7.7289,7.7289,7.7289,7.7289,7.7289,7.7289,7.7289,7.7289,7.7304,7.7381,7.7396,7.757,7.8228,7.8365,7.8562,7.9152,7.9244,7.9233,7.9347,7.9324,7.9301,7.9358,7.9369,7.9369,7.9369,7.9369,7.9369,7.9369,7.9369,7.9369,7.9369,8.0409,8.1093,8.1093,8.0526,8.0182,8.0182,7.961,7.929,7.929,7.9233,7.9175,7.9117,7.8563,7.8268,7.82,7.7614,7.7289,7.7289,7.7289,7.7289,8.1016,8.1093,8.1093,8.1093,8.1093,8.1093,8.1093,8.1093,8.1093,8.1093,8.1093,8.1093,8.1093,8.1093,8.1093,8.1093,8.1093,8.1093,8.1093,8.1516,8.1939,8.2247,8.2747,8.3401,8.4286,8.4362,8.4593,8.5055,8.5093,8.5093,8.5093,8.414,8.3601,8.3601,8.3601,8.3601,8.3601,8.3601,8.3601,8.3601,8.3601,8.3601,8.3601,8.3601,8.3601,8.3601,8.3601,8.3601,8.3538,8.2798,8.2146,8.146,8.0506,7.9721,7.9179,7.8897,7.8809,7.8809,7.8809,7.8479,7.8075,7.8075,7.7729,7.7289,7.7289,7.7289,7.7289,7.7289,7.7599,7.7826,7.7411,7.7614,7.8049,7.8691,7.8853,7.8998,7.96,7.9458,7.9425,8.0201,8.0027,7.9868,8.0268,8.0362,8.0362,8.0362,8.0362,8.0362,8.0362,8.0362,8.0362,8.0362,8.0096,7.9967,7.9967,7.9723,7.9556,7.9556,7.8986,7.8653,7.8653,7.8272,7.8077,7.8077,7.7817,7.7695,7.7695,7.7441,7.7289,7.7289,7.7289,7.7289,8.1093,8.1093,8.1093,8.1093,8.1093,8.1093,8.1093,8.1093,8.1093,8.1093,8.1093,8.1093,8.1093,8.1093,8.1093,8.1093,8.1093,8.117,8.14,8.1939,8.2477,8.3016,8.3593,8.4324,8.517,8.5239,8.547,8.6055,8.6094,8.6094,8.6094,8.4978,8.4324,8.4324,8.4324,8.4324,8.4324,8.4324,8.4324,8.4324,8.4324,8.4324,8.4324,8.4324,8.4324,8.4324,8.4324,8.4324,8.4261,8.3587,8.2904,8.2274,8.1583,8.0922,8.0333,8.0169,8.0192,8.0289,7.9915,7.9568,7.9221,7.9013,7.8552,7.8023,7.8023,7.7693,7.7289,7.7289,7.7622,7.7946,7.7651,7.7811,7.8214,7.901,7.9058,7.9093,7.9685,7.9502,7.9458,8.0372,8.0144,7.9969,8.0445,8.0546,8.0546,8.0546,8.0546,8.0546,8.0546,8.0546,8.0454,8.0306,7.9485,7.9152,7.9723,7.9567,7.9392,7.921,7.8628,7.8214,7.8016,7.7555,7.7289,7.7289,7.7289,7.7289,7.7289,7.7289,7.7289,7.7289,7.7289,7.7289,8.1093,8.1093,8.1093,8.1093,8.1093,8.1093,8.1093,8.1093,8.1093,8.1093,8.1093,8.1093,8.1093,8.1093,8.1093,8.1093,8.1093,8.1362,8.217,8.2285,8.2939,8.4662,8.4893,8.5201,8.6017,8.6094,8.6094,8.6094,8.6094,8.6094,8.6094,8.6094,8.6055,8.6055,8.6055,8.6055,8.6055,8.6055,8.6055,8.6055,8.6055,8.6055,8.6055,8.6055,8.6055,8.6055,8.6055,8.6055,8.6017,8.5201,8.4482,8.3816,8.3005,8.2282,8.1603,8.1017,8.1164,8.1494,8.0237,8.0244,8.0656,8.0008,7.9779,7.9779,7.9779,7.8626,7.7289,7.7289,7.7326,7.745,7.8104,7.7811,7.7636,7.8901,7.8754,7.8471,7.9081,7.921,7.921,7.9221,7.9221,7.921,7.9221,7.9221,7.9221,7.9221,7.9221,7.9221,7.9221,7.9221,7.8986,7.8379,7.8322,7.906,8.0934,8.0472,7.9847,7.9244,7.8628,7.8016,7.7335,7.7289,7.7289,7.7289,7.7289,7.7289,7.7289,7.7289,7.7289,7.7289,7.7289,7.7289,8.1093,8.1093,8.1093,8.1093,8.1093,8.1093,8.1093,8.1093,8.1093,8.1093,8.1093,8.1093,8.1093,8.1093,8.1093,8.1093,8.1093,8.1362,8.217,8.2824,8.3593,8.4739,8.5401,8.5824,8.6094,8.6632,8.6978,8.6978,8.7555,8.7872,8.7872,8.7872,8.7325,8.6132,8.6094,8.6094,8.6094,8.6094,8.6094,8.6094,8.6094,8.6094,8.6094,8.6094,8.6094,8.6094,8.6094,8.6094,8.603,8.532,8.489,8.4632,8.3979,8.359,8.3386,8.3176,8.3226,8.335,8.2956,8.2581,8.2197,8.1977,8.1537,8.1087,8.1087,8.0114,7.897,7.8846,7.85,7.8307,7.879,7.8471,7.82,7.901,7.9046,7.8962,7.9163,7.9524,7.9674,7.9279,7.9535,7.9674,7.9279,7.9198,7.9198,7.9198,7.9198,7.9198,7.9198,7.9198,7.9128,7.8926,7.8939,7.8791,7.8525,7.8288,7.8095,7.7909,7.7739,7.751,7.7289,7.7289,7.7289,7.7289,7.7289,7.7289,7.7289,7.7289,7.7289,7.7289,7.7289,7.7289,8.1093,8.1093,8.1093,8.1093,8.1093,8.1093,8.1093,8.1093,8.1093,8.1093,8.1093,8.1093,8.1093,8.1093,8.1093,8.1093,8.1362,8.1823,8.267,8.3555,8.4401,8.5247,8.6094,8.6594,8.6594,8.7363,8.7902,8.7902,8.841,8.8718,8.8718,8.8718,8.8218,8.7132,8.7094,8.7094,8.7094,8.7094,8.7094,8.7094,8.7094,8.7094,8.7094,8.7094,8.7094,8.7094,8.7094,8.6901,0.0,8.6124,8.5762,8.5428,8.5058,8.492,8.4899,8.4628,8.4696,8.4855,8.436,8.3982,8.368,8.3445,8.3033,8.263,8.263,8.1664,8.0502,8.0357,8.0057,7.9832,8.0089,7.9704,7.9391,7.9975,7.9939,7.9829,8.0071,8.0416,8.0483,7.9784,7.9972,8.0,7.9305,7.9198,7.9198,7.9198,7.9198,7.9198,7.9198,7.9198,7.9117,7.8865,7.8878,7.842,7.7396,7.7731,7.7909,7.7695,7.7666,7.757,7.7304,7.7289,7.7289,7.7289,7.7289,7.7289,7.7289,7.7289,7.7289,7.7289,7.7289,7.7289,0.0,8.1093,8.1093,8.1093,8.1093,8.1093,8.1093,8.1093,0.0,8.1093,8.1093,8.1093,8.1093,8.1093,8.1131,8.117,8.1823,8.2631,8.3563,8.4478,8.5363,8.6094,8.6978,8.7478,8.7478,8.8295,8.8795,8.8795,8.8833,8.8872,8.8872,8.8872,8.8872,8.8872,8.8872,8.8833,8.8718,8.8718,8.8718,8.8718,8.8718,8.8718,8.8718,8.8718,8.8718,8.8718,8.8718,8.8256,8.7478,8.7478,8.7017,8.6286,8.6286,8.6286,8.6197,8.559,8.5752,8.6129,8.4843,8.4772,8.5166,8.4551,8.4337,8.4337,8.4337,8.3181,8.1849,8.1812,8.1774,8.1762,8.17,8.1293,8.0979,8.1507,8.1166,8.0912,8.1469,8.1639,8.1424,8.0646,8.0519,8.0316,7.9512,7.9398,7.9398,7.9398,7.9398,7.9375,7.9329,7.9253,7.9002,7.8383,7.8265,7.7988,7.735,7.8381,7.8841,7.8268,7.8228,7.7946,7.732,7.7289,7.7289,7.7289,7.7289,7.7289,7.7289,7.7289,7.7289,7.7289,7.7289,7.7289,8.1093,0.0,8.1093,8.1093,8.1093,8.1093,0.0,8.1093,8.1093,8.1093,8.1093,8.1093,8.1093,8.1093,8.1285,8.19,8.217,8.2824,8.4401,8.5863,8.6863,8.7055,8.7863,8.841,8.841,8.9133,8.9624,8.9624,9.0248,9.0594,9.0594,9.0594,9.0594,9.0594,9.0594,9.0017,8.8718,8.8718,8.8718,8.8718,8.8718,8.8718,8.8718,8.8718,8.8718,8.8718,8.8718,8.8564,8.841,8.841,8.8256,8.8094,8.8094,8.8094,8.8085,8.7905,8.7969,8.7953,8.6964,8.6725,8.672,8.5921,8.5645,8.5645,8.5645,8.4708,8.3486,8.2819,8.263,8.2479,8.1875,8.1579,8.1506,8.1639,8.1554,8.1494,8.1639,8.208,8.2217,8.1542,8.1826,8.1951,8.124,8.112,8.112,8.112,8.112,8.0941,8.0471,7.9858,7.9203,7.8603,7.7945,7.7465,7.7304,7.7563,7.7695,7.754,7.754,7.745,7.7326,7.7289,7.7289,7.7289,7.7289,7.7289,7.7289,7.7289,7.7289,7.7289,7.7289,7.7289,8.1093,8.1093,8.1093,8.1093,8.1093,8.1093,8.1093,8.1093,8.1093,8.1093,8.1093,8.1208,8.1593,8.1631,8.19,8.2747,8.3247,8.4093,8.5824,8.6824,8.7555,8.7948,8.8748,8.9248,8.9248,9.0017,9.0509,9.0509,9.0932,9.121,9.121,9.121,9.121,9.121,9.121,9.0748,8.9863,8.9863,8.9863,8.9863,8.9863,8.9863,8.9863,8.9863,8.9863,8.9863,8.9863,8.9633,8.9248,8.9248,8.9017,8.8718,8.8718,8.8718,8.8718,8.8718,8.8718,8.8641,8.8179,8.7987,8.7902,8.744,8.7286,8.7286,8.7286,8.6824,8.5994,8.4726,8.4383,8.4217,8.3454,8.3274,8.3206,8.2928,8.2857,8.2857,8.2857,8.3115,8.3175,8.2399,8.2521,8.2569,8.1833,8.1698,8.1698,8.1698,8.1698,8.1567,8.123,8.0779,8.028,7.9608,7.9165,7.8795,7.8473,7.8442,7.8096,7.7362,7.7289,7.7289,7.7289,7.7289,7.7289,7.7289,7.7289,7.7289,7.7289,7.7289,7.7289,7.7289,7.7289,7.7289,8.1093,8.1093,8.1093,8.1093,8.1093,8.1093,8.1093,8.1093,8.1093,8.1093,8.1208,8.1477,8.217,8.2401,8.2785,8.3678,8.4632,8.5786,8.7209,8.7632,8.8055,8.8795,8.9594,9.0086,9.0086,9.0787,9.121,9.121,9.121,9.121,9.121,9.121,9.121,9.121,9.121,9.121,9.121,9.121,9.121,9.121,9.121,9.121,9.121,9.121,9.121,9.121,9.121,9.0778,9.0086,9.0086,8.971,8.9103,8.9103,8.9103,8.9103,8.9103,8.9103,8.9064,8.8949,8.8795,8.8718,8.8718,8.8718,8.8718,8.8718,8.8718,8.841,8.6901,8.6401,8.6155,8.5437,8.5232,8.5121,8.4605,8.4478,8.4478,8.4478,8.4478,8.4263,8.3517,8.3403,8.3176,8.2506,8.2354,8.2354,8.2354,8.2354,8.232,8.2228,8.2022,8.162,8.0976,8.0735,8.0406,7.9842,7.9816,7.9176,7.7766,7.7582,7.7436,7.7326,7.7289,7.7289,7.7289,7.7289,7.7289,7.7289,7.7289,7.7289,7.7289,7.7289,7.7289,8.1093,8.1093,8.1093,8.1093,8.1093,8.1093,8.1093,8.1093,8.1093,8.1093,8.1631,8.2131,8.2285,8.2909,8.3678,8.4555,8.6017,8.7094,8.7363,8.8632,8.9586,8.9701,9.047,9.1018,9.1018,9.1133,9.121,9.121,9.121,9.121,9.121,9.121,9.121,9.121,9.121,9.121,9.121,9.121,9.121,9.121,9.121,9.121,9.121,9.121,9.121,9.121,9.121,9.1133,9.1018,9.1018,9.0941,9.0825,9.0825,9.0825,9.0825,9.0825,9.0825,9.071,8.997,8.9286,8.8718,8.8718,8.8718,8.8718,8.8718,8.8718,8.8641,8.8372,8.7786,8.7,8.6163,8.5945,8.5928,8.582,8.5802,8.5802,8.5802,8.5802,8.5763,8.5619,8.5619,8.558,8.5427,8.5427,8.5427,8.5427,8.5427,8.5206,8.4639,8.3476,8.2486,8.1871,8.0689,7.9921,7.9832,7.9816,7.9706,7.9449,7.8772,7.806,7.7326,7.7289,7.7289,7.7289,7.7289,7.7289,7.7289,7.7289,7.7289,7.7289,7.7289,7.7289,8.1093,8.1093,8.1093,8.1093,8.1093,8.1093,8.1093,8.1439,8.1747,8.1747,8.2401,8.3131,8.3632,8.4016,8.4747,8.6055,8.7286,8.8248,8.8709,8.9393,9.0086,9.0547,9.0979,9.121,9.121,9.121,9.121,9.121,9.121,9.121,9.121,9.121,9.121,9.121,9.121,9.121,9.121,9.121,9.121,9.121,9.121,9.121,9.121,9.121,9.121,9.121,9.121,9.121,9.121,9.121,9.121,9.121,9.121,9.121,9.121,9.121,9.121,9.1133,9.074,9.0364,9.0056,9.0056,9.0056,9.0056,9.0056,9.0056,8.994,8.9479,8.8748,8.8025,8.7594,8.7517,8.7517,8.7517,8.7132,8.6786,8.6786,8.644,8.6094,8.6094,8.6094,8.6094,8.6094,8.6094,8.6094,8.6094,8.5802,8.5428,8.5151,8.4203,8.3376,8.2729,8.203,8.1492,8.1133,8.1101,8.0734,7.9853,7.9449,7.9066,7.8662,7.8662,7.8662,7.8662,7.8662,7.8662,7.8662,7.8662,7.8442,7.7986,7.7986,7.7766,8.1093,8.1093,8.1093,8.1093,8.1093,8.1131,8.1323,8.1862,8.2362,8.2554,8.3285,8.4093,8.4786,8.5209,8.5978,8.744,8.8402,8.921,8.9816,9.0086,9.0432,9.1133,9.121,9.121,9.121,9.121,9.121,9.121,9.121,9.121,9.121,9.121,9.121,9.121,9.121,9.121,9.121,9.121,9.121,9.121,9.121,9.121,9.121,9.121,9.121,9.121,9.121,9.121,9.121,9.121,9.121,9.121,9.121,9.121,9.121,9.121,9.121,9.121,9.121,9.121,9.121,9.121,9.121,9.121,9.121,9.121,9.1056,9.0393,8.9748,8.9218,8.8795,8.8718,8.8718,8.8718,8.8179,8.7709,8.7709,8.7171,8.6709,8.6709,8.6555,8.6401,8.6401,8.6247,8.6052,8.5911,8.5418,8.5069,8.4904,8.436,8.3759,8.326,8.3068,8.2747,8.2251,8.2186,8.1689,8.044,8.0183,8.0,7.9816,7.9816,7.9816,7.9816,7.9816,7.9816,7.9816,7.9816,7.9486,7.8883,7.8883,7.8516,8.1093,8.1093,8.1093,8.1093,8.1093,8.1285,8.2054,8.2247,8.2516,8.3332,8.4209,8.4824,8.4893,8.617,8.7517,8.8449,8.9286,8.9816,8.9893,9.0586,9.1133,9.121,9.121,9.121,9.121,9.121,9.121,9.121,9.121,9.121,9.121,9.121,9.121,9.121,9.121,9.121,9.121,9.121,9.121,9.121,9.121,9.121,9.121,9.121,9.121,9.121,9.121,9.121,9.121,9.121,9.121,9.121,9.121,9.121,9.121,9.121,9.121,9.121,9.121,9.121,9.121,9.121,9.121,9.121,9.121,9.121,9.121,9.1133,9.1056,9.0671,8.9103,8.8718,8.8718,8.8718,8.8641,8.8603,8.8603,8.8564,8.8526,8.8526,8.7863,8.7325,8.7325,8.6632,8.5911,8.529,8.5141,8.4893,8.4337,8.3667,8.326,8.3204,8.2647,8.2251,8.2203,8.2186,8.215,8.2039,8.1342,8.0571,7.9816,7.9816,7.9816,7.9816,7.9816,7.9816,7.9816,7.9816,7.9779,7.9706,7.9706,7.9669,8.1093,8.1093,8.1208,8.1708,8.1862,8.1939,8.2247,8.3131,8.4016,8.4324,8.5517,8.6632,8.7171,8.8209,8.9047,8.9402,9.0171,9.071,9.071,9.097,9.121,9.121,9.121,9.121,9.121,9.121,9.121,9.121,9.121,9.121,9.121,9.171,9.2018,9.2018,9.2479,9.2749,9.2749,9.2749,9.2749,9.2749,9.171,9.121,9.121,9.121,9.121,9.121,9.121,9.121,9.121,9.121,9.121,9.121,9.121,9.121,9.121,9.121,9.121,9.121,9.121,9.121,9.121,9.121,9.121,9.121,9.121,9.121,9.121,9.121,9.121,9.1056,9.0402,9.0248,9.0248,9.0248,8.9825,8.944,8.944,8.87,8.8156,8.8619,8.8047,8.7657,8.8128,8.7948,8.762,8.7366,8.6572,8.578,8.5058,8.3992,8.3145,8.2643,8.2343,8.2186,8.2186,8.2186,8.2186,8.2186,8.1893,8.1599,8.1321,8.1285,8.1285,8.1285,8.1285,8.1285,8.1285,8.1285,8.1064,8.0534,8.0534,8.0277,8.1093,8.1285,8.1593,8.217,8.2708,8.3208,8.3439,8.4247,8.5055,8.5593,8.6824,8.8055,8.8902,8.9517,8.997,9.0278,9.0816,9.121,9.121,9.121,9.121,9.121,9.121,9.1325,9.1595,9.1595,9.171,9.1979,9.1979,9.1979,9.1979,9.2556,9.2864,9.2864,9.3403,9.371,9.371,9.371,9.371,9.3672,9.2556,9.1979,9.1979,9.1979,9.1979,9.1979,9.171,9.1595,9.1595,9.1325,9.121,9.121,9.121,9.121,9.121,9.121,9.121,9.121,9.121,9.121,9.121,9.121,9.121,9.121,9.121,9.121,9.121,9.121,9.121,9.121,9.121,9.121,9.121,9.121,9.074,9.0316,9.0316,8.9314,8.8544,8.9027,8.8535,8.811,8.8353,8.8376,8.8222,8.777,8.6891,8.5988,8.5245,8.4339,8.3581,8.303,8.2957,8.2847,8.259,8.259,8.248,8.2223,8.2186,8.2186,8.2186,8.2186,8.2186,8.2186,8.2186,8.2186,8.2186,8.2186,8.1929,8.1379,8.1379,8.1085,8.1093,8.1708,8.2285,8.2324,8.3632,8.5124,8.594,8.5517,8.5401,8.7094,8.8102,8.8949,8.9739,8.9893,9.0201,9.1056,9.121,9.121,9.121,9.121,9.121,9.121,9.121,9.1556,9.2441,9.2518,9.2826,9.3633,9.371,9.371,9.371,9.371,9.371,9.371,9.371,9.371,9.371,9.371,9.371,9.371,9.371,9.371,9.371,9.371,9.371,9.3672,9.2864,9.2518,9.2441,9.1595,9.121,9.121,9.121,9.121,9.121,9.121,9.121,9.121,9.121,9.121,9.121,9.121,9.121,9.121,9.121,9.121,9.121,9.121,9.121,9.121,9.121,9.121,9.121,9.121,9.121,9.121,9.121,9.0626,9.0116,9.0116,8.9457,8.8687,8.7966,8.771,8.7178,8.5829,8.5619,8.537,8.4689,8.4609,8.4609,8.4609,8.4609,8.4278,8.3491,8.3418,8.3067,8.226,8.2223,8.2223,8.2186,8.2186,8.2186,8.2186,8.2186,8.2186,8.2186,8.2186,8.2186,8.2186,8.2186,8.2186,8.1785,8.2131,8.2593,8.3824,8.4939,8.5978,8.6824,8.6824,8.7132,8.8816,8.9363,8.9778,9.0671,9.0816,9.0902,9.1171,9.121,9.121,9.121,9.1748,9.2095,9.2095,9.2595,9.3056,9.3326,9.3326,9.3441,9.3672,9.371,9.371,9.371,9.4296,9.4604,9.4604,9.5211,9.5518,9.5518,9.5518,9.5518,9.5518,9.5518,9.4903,9.371,9.371,9.371,9.3672,9.3441,9.3326,9.3326,9.3056,9.2941,9.2941,9.2941,9.2595,9.2095,9.2095,9.1748,9.121,9.121,9.121,9.121,9.121,9.121,9.121,9.121,9.121,9.121,9.121,9.121,9.121,9.121,9.121,9.121,9.121,9.121,9.121,9.121,9.0626,9.0235,9.0772,9.0266,8.967,8.9452,8.9386,8.9049,8.8184,8.7663,8.6908,8.5608,8.4939,8.4609,8.4609,8.4609,8.4499,8.4278,8.4242,8.4132,8.3911,8.3875,8.3361,8.226,8.2186,8.2186,8.2186,8.2186,8.2186,8.2186,8.2186,8.2186,8.2186,8.2186,8.2186,8.2093,8.2554,8.3131,8.4555,8.5786,8.694,8.8132,8.8402,8.8671,8.9701,9.0163,9.0586,9.1086,9.121,9.121,9.121,9.121,9.1325,9.1672,9.2172,9.2633,9.2941,9.3403,9.3835,9.4181,9.422,9.4373,9.4711,9.4711,9.4711,9.4711,9.5211,9.5518,9.5518,9.6019,9.6288,9.6288,9.6288,9.6288,9.6288,9.6288,9.5749,9.4711,9.4711,9.4711,9.4711,9.4373,9.4027,9.371,9.371,9.371,9.371,9.371,9.3403,9.2979,9.2979,9.2633,9.2172,9.2172,9.2172,9.2172,9.2172,9.1979,9.171,9.171,9.1479,9.121,9.121,9.121,9.121,9.121,9.121,9.121,9.121,9.121,9.121,9.121,9.0626,9.0213,9.0704,9.0388,9.004,8.9751,8.9912,8.9867,8.9225,8.8746,8.8063,8.6872,8.6278,8.589,8.5597,8.5563,8.5416,8.5086,8.5086,8.4939,8.4609,8.4609,8.4168,8.3177,8.2847,8.2517,8.2186,8.2186,8.2186,8.2186,8.2186,8.2186,8.2186,8.2186,8.2186,8.2208,8.3062,8.3939,8.4901,8.6401,8.8055,8.9663,9.0009,9.0009,9.0009,9.0663,9.121,9.121,9.121,9.1248,9.1325,9.1325,9.1633,9.2479,9.2672,9.2979,9.3719,9.3903,9.4258,9.5027,9.5104,9.5451,9.6249,9.6288,9.6288,9.6288,9.6288,9.6288,9.6288,9.6288,9.6288,9.6288,9.6288,9.6288,9.6288,9.6288,9.6288,9.6288,9.6288,9.6288,9.6249,9.5441,9.4681,9.3941,9.3941,9.3941,9.3941,9.3941,9.3903,9.3826,9.3826,9.3749,9.371,9.371,9.371,9.371,9.371,9.321,9.2595,9.2595,9.2056,9.1441,9.1441,9.1364,9.1325,9.1325,9.1248,9.121,9.121,9.121,9.121,9.121,9.0656,9.0192,9.0192,9.0192,9.0006,8.9327,8.9704,8.9867,8.9225,8.9122,8.8883,8.8264,8.8175,8.7923,8.7245,8.7129,8.6784,8.6066,8.5945,8.56,8.4866,8.4829,8.4792,8.4719,8.3931,8.3177,8.2443,8.2406,8.237,8.2296,8.2378,8.2341,8.2203,8.2311,8.2343,8.3101,8.3939,8.4978,8.6478,8.8132,8.9624,9.0663,9.0932,9.0932,9.0932,9.1056,9.121,9.121,9.121,9.1441,9.2095,9.221,9.2518,9.3326,9.4027,9.4527,9.472,9.5326,9.5826,9.6019,9.6019,9.6095,9.6288,9.6288,9.6288,9.6288,9.6288,9.6288,9.6288,9.6288,9.6288,9.6288,9.6288,9.6288,9.6288,9.6288,9.6288,9.6288,9.6288,9.6288,9.6288,9.6095,9.5903,9.5749,9.5749,9.5749,9.5749,9.5749,9.5326,9.472,9.472,9.4296,9.371,9.371,9.371,9.371,9.371,9.3595,9.3441,9.3441,9.3326,9.3172,9.3172,9.271,9.221,9.221,9.171,9.121,9.121,9.121,9.121,9.121,9.1091,9.0971,9.0971,9.0971,9.0733,9.0028,8.999,8.9867,8.9225,8.9122,8.9056,8.891,8.8883,8.8829,8.8663,8.8175,8.7793,8.7623,8.707,8.6664,8.65,8.6464,8.6187,8.5563,8.4756,8.4278,8.4095,8.4095,8.3765,8.3124,8.3648,8.3352,8.2219,8.3275,8.3512,8.337,8.4247,8.5401,8.7478,8.8979,9.0124,9.1018,9.121,9.121,9.121,9.121,9.121,9.121,9.1556,9.1979,9.2441,9.2826,9.3364,9.422,9.472,9.5143,9.5557,9.6019,9.6288,9.6288,9.6288,9.6288,9.6288,9.6288,9.6288,9.6288,9.6288,9.6288,9.6288,9.6288,9.6288,9.6288,9.6288,9.6288,9.6288,9.6288,9.6288,9.6288,9.6288,9.6288,9.6288,9.6288,9.6288,9.6288,9.6288,9.6288,9.6288,9.6288,9.6019,9.5634,9.5634,9.5326,9.4941,9.4941,9.4941,9.4941,9.4941,9.4672,9.4335,9.4335,9.4027,9.371,9.371,9.3403,9.3056,9.3056,9.2749,9.2402,9.2402,9.1787,9.121,9.121,9.121,9.121,9.121,9.121,9.1091,9.0675,9.0626,9.0488,9.0166,9.0111,8.9973,8.9633,8.9597,8.9476,8.911,8.8774,8.8589,8.8589,8.8212,8.8009,8.8009,8.8009,8.7823,8.7391,8.6981,8.6242,8.5113,8.5424,8.541,8.4963,8.5311,8.5124,8.4359,8.4653,8.4606,8.3601,8.467,8.6094,8.8363,8.9517,9.0316,9.1056,9.121,9.121,9.121,9.121,9.1248,9.1402,9.2018,9.2595,9.2864,9.348,9.421,9.5104,9.522,9.5489,9.6211,9.6288,9.6288,9.6288,9.6288,9.6288,9.6288,9.6288,9.6288,9.6288,9.6288,9.6288,9.6288,9.6288,9.6288,9.6288,9.6288,9.6288,9.6288,9.6288,9.6288,9.6288,9.6288,9.6288,9.6288,9.6288,9.6288,9.6288,9.6288,9.6288,9.6288,9.6288,9.6288,9.6288,9.6288,9.6288,9.6288,9.6288,9.6288,9.6288,9.6288,9.5826,9.522,9.522,9.472,9.4134,9.4134,9.4018,9.3912,9.3912,9.3787,9.371,9.371,9.2633,9.1595,9.1441,9.1325,9.121,9.121,9.121,9.121,9.121,9.121,9.121,9.121,9.121,9.0989,9.0357,9.0294,9.0073,8.9525,8.9364,8.9251,8.9251,8.9186,8.9122,8.9122,8.9122,8.9122,8.9122,8.9187,8.8364,8.6415,8.6853,8.7059,8.6908,8.702,8.6945,8.6694,8.6222,8.5917,8.4478,8.6401,8.844,8.9479,9.0393,9.1056,9.1171,9.121,9.121,9.121,9.121,9.1441,9.2172,9.2402,9.2979,9.445,9.4758,9.5143,9.6019,9.6134,9.6172,9.6288,9.6288,9.6288,9.6288,9.6288,9.6288,9.6288,9.6288,9.6288,9.6288,9.6288,9.6288,9.6288,9.6288,9.6288,9.6288,9.6288,9.6288,9.6288,9.6288,9.6288,9.6288,9.6288,9.6288,9.6288,9.6288,9.6288,9.6288,9.6288,9.6288,9.6288,9.6288,9.6288,9.6288,9.6288,9.6288,9.6288,9.6288,9.6288,9.6288,9.6288,9.6211,9.6134,9.6134,9.6057,9.5942,9.5942,9.5403,9.4835,9.4835,9.4258,9.371,9.371,9.3518,9.3172,9.2479,9.1748,9.121,9.121,9.121,9.121,9.121,9.121,9.121,9.121,9.121,9.1145,9.1082,9.1035,9.1008,9.0943,9.0336,8.9957,8.9957,8.9413,8.9122,8.9122,8.9122,8.9122,8.9122,8.9669,8.9809,8.9501,8.9036,8.8455,8.7726,8.8337,8.7957,8.6719,8.7786,8.7964,8.594,8.7478,8.8902,8.9701,9.0547,9.121,9.121,9.121,9.1325,9.1825,9.1941,9.2056,9.2441,9.3249,9.4143,9.4874,9.5412,9.5865,9.6249,9.6288,9.6288,9.6288,9.6288,9.6288,9.6288,9.6288,9.6288,9.6288,9.6288,9.6288,9.6288,9.6288,9.6288,9.6288,9.6288,9.6288,9.6288,9.6288,9.6288,9.6288,9.6288,9.6288,9.6288,9.6288,9.6288,9.6288,9.6288,9.6288,9.6288,9.6288,9.6288,9.6288,9.6288,9.6288,9.6288,9.6288,9.6288,9.6288,9.6288,9.6288,9.6288,9.6288,9.6288,9.6288,9.6288,9.6288,9.6288,9.6288,9.6019,9.5711,9.5711,9.5441,9.5172,9.5172,9.4788,9.4335,9.3989,9.321,9.2479,9.2018,9.1518,9.121,9.121,9.121,9.121,9.121,9.121,9.121,9.121,9.121,9.121,9.121,9.0905,9.0733,9.0733,9.0436,9.029,9.029,9.029,9.029,9.029,9.0566,9.0733,9.0733,9.0416,9.011,8.9738,9.005,8.9849,8.9235,8.9331,8.922,8.7286,8.8218,8.894,8.997,9.0701,9.121,9.121,9.121,9.1441,9.2326,9.2672,9.2864,9.3095,9.4181,9.5066,9.5297,9.5865,9.6288,9.6288,9.6288,9.6288,9.6288,9.6288,9.6288,9.6288,9.6288,9.6288,9.6288,9.6288,9.6288,9.6288,9.6288,9.6288,9.6288,9.6288,9.6288,9.6288,9.6288,9.6288,9.6288,9.6288,9.6288,9.6288,9.6288,9.6288,9.6288,9.6288,9.6288,9.6288,9.6288,9.6288,9.6288,9.6288,9.6288,9.6288,9.6288,9.6288,9.6288,9.6288,9.6288,9.6288,9.6288,9.6288,9.6288,9.6288,9.6288,9.6288,9.6288,9.6288,9.6288,9.6288,9.6288,9.6288,9.6288,9.5788,9.522,9.4758,9.4181,9.3518,9.2903,9.2095,9.1518,9.1518,9.1364,9.121,9.121,9.121,9.121,9.121,9.121,9.121,9.121,9.121,9.121,9.121,9.121,9.121,9.121,9.121,9.121,9.121,9.121,9.121,9.121,9.121,9.121,9.121,9.121,9.121,9.1171,9.0509,9.0239,8.8179,8.8679,8.9103,9.0748,9.1171,9.121,9.121,9.121,9.1441,9.2326,9.3095,9.3903,9.472,9.4951,9.5258,9.6095,9.6288,9.6288,9.6288,9.6288,9.6288,9.6288,9.6288,9.6288,9.6288,9.6288,9.6288,9.6288,9.6288,9.6288,9.6288,9.6288,9.6288,9.6288,9.6288,9.6288,9.6288,9.6288,9.6288,9.6288,9.6288,9.6288,9.6288,9.6288,9.6288,9.6288,9.6288,9.6288,9.6288,9.6288,9.6288,9.6288,9.6288,9.6288,9.6288,9.6288,9.6288,9.6288,9.6288,9.6288,9.6288,9.6288,9.6288,9.6288,9.6288,9.6288,9.6288,9.6288,9.6288,9.6288,9.6288,9.6288,9.6288,9.6288,9.6288,9.5788,9.4134,9.3719,9.3672,9.3633,9.2979,9.2441,9.2441,9.1748,9.121,9.121,9.121,9.121,9.121,9.121,9.121,9.121,9.121,9.121,9.121,9.121,9.121,9.121,9.121,9.121,9.121,9.121,9.121,9.121,9.121,9.121,9.121,9.121,9.121,9.121,9.1171,9.1133,8.8218,8.8718,8.9103,9.0787,9.121,9.121,9.121,9.121,9.1595,9.2979,9.348,9.4134,9.5557,9.5826,9.5942,9.6249,9.6288,9.6288,9.6288,9.6288,9.6288,9.6288,9.6288,9.6288,9.6288,9.6288,9.6288,9.6288,9.6288,9.6288,9.6288,9.6288,9.6288,9.6288,9.6288,9.6288,9.6288,9.6288,9.6288,9.6288,9.6288,9.6288,9.6288,9.6288,9.6288,9.6288,9.6288,9.6288,9.6288,9.6288,9.6288,9.6288,9.6288,9.6288,9.6288,9.6288,9.6288,9.6288,9.6288,9.6288,9.6288,9.6288,9.6288,9.6288,9.6288,9.6288,9.6288,9.6288,9.6288,9.6288,9.6288,9.6288,9.6288,9.6288,9.6288,9.6134,9.5518,9.4941,9.4527,9.4527,9.3835,9.3249,9.3249,9.3018,9.2633,9.2095,9.2018,9.1825,9.1287,9.121,9.121,9.121,9.121,9.121,9.121,9.121,9.121,9.121,9.121,9.121,9.121,9.121,9.121,9.121,9.121,9.121,9.121,9.121,9.121,9.121,9.121,9.121,8.7863,8.8487,8.9026,9.0441,9.097,9.121,9.121,9.121,9.1672,9.3364,9.371,9.421,9.598,9.6288,9.6288,9.6288,9.6288,9.6288,9.6288,9.6288,9.6288,9.6288,9.6288,9.6288,9.6288,9.6288,9.6288,9.6288,9.6288,9.6288,9.6288,9.6288,9.6288,9.6288,9.6288,9.6288,9.6288,9.6288,9.6288,9.6288,9.6288,9.6288,9.6288,9.6288,9.6288,9.6288,9.6288,9.6288,9.6288,9.6288,9.6288,9.6288,9.6288,9.6288,9.6288,9.6288,9.6288,9.6288,9.6288,9.6288,9.6288,9.6288,9.6288,9.6288,9.6288,9.6288,9.6288,9.6288,9.6288,9.6288,9.6288,9.6288,9.6288,9.6288,9.6288,9.6288,9.6288,9.5865,9.5451,9.5451,9.472,9.4143,9.4143,9.3903,9.3518,9.2979,9.2903,9.2595,9.1748,9.1633,9.1518,9.1248,9.121,9.121,9.121,9.121,9.121,9.121,9.121,9.121,9.121,9.121,9.121,9.121,9.121,9.121,9.121,9.121,9.121,9.121,9.121,9.121,0.0,0.0,0.0,8.9701,9.0547,9.1171,9.121,9.121,9.1672,9.3326,9.3672,9.421,9.5942,9.6288,9.6288,9.6288,9.6288,9.6288,9.6288,9.6288,9.6288,9.6288,9.6288,9.6288,9.6288,9.6288,9.6288,9.6288,9.6288,9.6288,9.6288,9.6288,9.6288,9.6288,9.6288,9.6288,9.6288,9.6288,9.6288,9.6288,9.6288,9.6288,9.6288,9.6288,9.6288,9.6288,9.6288,9.6288,9.6288,9.6288,9.6288,9.6288,9.6288,9.6288,9.6288,9.6288,9.6288,9.6288,9.6288,9.6288,9.6288,9.6288,9.6288,9.6288,9.6288,9.6288,9.6288,9.6288,9.6288,9.6288,9.6288,9.6288,9.6288,9.6288,9.6288,9.6288,9.6288,9.6288,9.6288,9.6288,9.5634,9.5027,9.5027,9.4335,9.3749,9.3749,9.3749,9.3441,9.2633,9.2518,9.2172,9.1325,9.121,9.121,9.121,9.121,9.121,9.121,9.121,9.121,9.121,9.121,9.121,9.121,9.121,9.121,9.121,9.121,9.121,9.121,9.121,9.121,8.7017,0.0,0.0,0.0,0.0,0.0,9.1056,9.121,9.1518,9.2595,9.3287,9.4018,9.5143,9.5865,9.6288,9.6288,9.6288,9.6288,9.6288,9.6288,9.6288,9.6288,9.6288,9.6288,9.6288,9.6288,9.6288,9.6288,9.6288,9.6288,9.6288,9.6288,9.6288,9.6288,9.6288,9.6288,9.6288,9.6288,9.6288,9.6288,9.6288,9.6288,9.6288,9.6288,9.6288,9.6288,9.6288,9.6288,9.6288,9.6288,9.6288,9.6288,9.6288,9.6288,9.6288,9.6288,9.6288,9.6288,9.6288,9.6288,9.6288,9.6288,9.6288,9.6288,9.6288,9.6288,9.6288,9.6288,9.6288,9.6288,9.6288,9.6288,9.6288,9.6288,9.6288,9.6288,9.6288,9.6288,9.6288,9.6288,9.6095,9.5942,9.5942,9.5749,9.5365,9.4758,9.4643,9.4335,9.348,9.2864,9.2402,9.2172,9.1595,9.121,9.121,9.121,9.121,9.121,9.121,9.121,9.121,9.121,9.121,9.121,9.121,9.121,9.121,9.121,9.121,9.121,9.121,9.121,0.0,0.0,8.8671,8.9663,0.0,0.0,9.1095,9.121,9.1441,9.2326,9.2864,9.3566,9.4797,9.5403,9.5865,9.6249,9.6288,9.6288,9.6288,9.6288,9.6288,9.6288,9.6288,9.6288,9.6288,9.6288,9.6288,9.6288,9.6288,9.6288,9.6288,9.6288,9.6288,9.6288,9.6288,9.6288,9.6288,9.6288,9.6288,9.6288,9.6288,9.6288,9.6288,9.6288,9.6288,9.6288,9.6288,9.6288,9.6288,9.6288,9.6288,9.6288,9.6288,9.6288,9.6288,9.6288,9.6288,9.6288,9.6288,9.6288,9.6288,9.6288,9.6288,9.6288,9.6288,9.6288,9.6288,9.6288,9.6288,9.6288,9.6288,9.6288,9.6288,9.6288,9.6288,9.6288,9.6288,9.6288,9.6288,9.6288,9.6288,9.6288,9.6288,9.6288,9.6134,9.5634,9.5518,9.5211,9.4335,9.3826,9.3296,9.2556,9.2056,9.1595,9.1248,9.121,9.121,9.121,9.121,9.121,9.121,9.121,9.121,9.121,9.121,9.121,9.121,9.121,9.121,9.121,9.121,9.121,0.0,0.0,0.0,8.9893,9.047,0.0,9.1171,9.121,9.1441,9.221,9.2441,9.2941,9.445,9.4874,9.5258,9.6019,9.6249,9.6288,9.6288,9.6288,9.6288,9.6288,9.6288,9.6288,9.6288,9.6288,9.6288,9.6288,9.6288,9.6288,9.6288,9.6288,9.6288,9.6288,9.6288,9.6288,9.6288,9.6288,9.6288,9.6288,9.6288,9.6288,9.6288,9.6288,9.6288,9.6288,9.6288,9.6288,9.6288,9.6288,9.6288,9.6288,9.6288,9.6288,9.6288,9.6288,9.6288,9.6288,9.6288,9.6288,9.6288,9.6288,9.6288,9.6288,9.6288,9.6288,9.6288,9.6288,9.6288,9.6288,9.6288,9.6288,9.6288,9.6288,9.6288,9.6288,9.6288,9.6288,9.6288,9.6288,9.6288,9.6288,9.6288,9.6288,9.6288,9.6288,9.6288,9.6019,9.5258,9.5066,9.445,9.2941,9.2595,9.2172,9.1402,9.1248,9.121,9.121,9.121,9.121,9.121,9.121,9.121,9.121,9.121,9.121,9.121,9.121,9.121,9.121,9.121,9.121,8.8295,8.8679,8.9094,8.9739,9.0047,0.0,9.1047,9.121,9.1248,9.1441,9.2018,9.2595,9.2941,9.4104,9.5066,9.522,9.5826,9.6288,9.6288,9.6288,9.6288,9.6288,9.6288,9.6288,9.6288,9.6288,9.6288,9.6288,9.6288,9.6288,9.6288,9.6288,9.6288,9.6288,9.6288,9.6288,9.6288,9.6288,9.6288,9.6288,9.6288,9.6288,9.6288,9.6288,9.6288,9.6288,9.6288,9.6288,9.6288,9.6288,9.6288,9.6288,9.6288,9.6288,9.6288,9.6288,9.6288,9.6288,9.6288,9.6288,9.6288,9.6288,9.6288,9.6288,9.6288,9.6288,9.6288,9.6288,9.6288,9.6288,9.6288,9.6288,9.6288,9.6288,9.6288,9.6288,9.6288,9.6288,9.6288,9.6288,9.6288,9.6288,9.6288,9.6288,9.6288,9.6288,9.6288,9.6249,9.6057,9.5451,9.4874,9.4566,9.3287,9.2441,9.2249,9.1595,9.121,9.121,9.121,9.121,9.121,9.121,9.121,9.121,9.121,9.121,9.121,9.121,9.121,9.121,9.121,9.121,8.9286,8.9633,9.0056,9.0441,9.0547,0.0,0.0,9.121,9.121,9.121,9.1556,9.1979,9.2402,9.3172,9.3873,9.4296,9.5057,9.5634,9.5634,9.6019,9.6288,9.6288,9.6288,9.6288,9.6288,9.6288,9.6288,9.6288,9.6288,9.6288,9.6288,9.6288,9.6288,9.6288,9.6288,9.6288,9.6288,9.6288,9.6288,9.6288,9.6288,9.6288,9.6288,9.6288,9.6288,9.6288,9.6288,9.6288,9.6288,9.6288,9.6288,9.6288,9.6288,9.6288,9.6288,9.6288,9.6288,9.6288,9.6288,9.6288,9.6288,9.6288,9.6288,9.6288,9.6288,9.6288,9.6288,9.6288,9.6288,9.6288,9.6288,9.6288,9.6288,9.6288,9.6288,9.6288,9.6288,9.6288,9.6288,9.6288,9.6288,9.6288,9.6288,9.6288,9.6288,9.6288,9.6288,9.6288,9.6288,9.5903,9.548,9.5066,9.3873,9.2941,9.2518,9.171,9.121,9.121,9.121,9.121,9.121,9.121,9.121,9.121,9.121,9.121,9.121,9.121,9.121,9.121,9.121,9.121,9.0355,9.0663,9.121,9.121,9.121,9.121,0.0,0.0,0.0,9.121,9.121,9.1441,9.2133,9.2402,9.2672,9.3133,9.4066,9.472,9.4527,9.5403,9.6095,9.6288,9.6288,9.6288,9.6288,9.6288,9.6288,9.6288,9.6288,9.6288,9.6288,9.6288,9.6288,9.6288,9.6288,9.6288,9.6288,9.6288,9.6288,9.6288,9.6288,9.6288,9.6288,9.6288,9.6288,9.6288,9.6288,9.6288,9.6288,9.6288,9.6288,9.6288,9.6288,9.6288,9.6288,9.6288,9.6288,9.6288,9.6288,9.6288,9.6288,9.6288,9.6288,9.6288,9.6288,9.6288,9.6288,9.6288,9.6288,9.6288,9.6288,9.6288,9.6288,9.6288,9.6288,9.6288,9.6288,9.6288,9.6288,9.6288,9.6288,9.6288,9.6288,9.6288,9.6288,9.6288,9.6288,9.6288,9.6288,9.6288,9.6019,9.5335,9.4489,9.3642,9.2787,9.1941,9.1364,9.121,9.121,9.121,9.121,9.121,9.121,9.121,9.121,9.121,9.121,9.121,9.121,9.121,9.121,9.121,9.1095,9.1133,9.121,9.121,9.121,9.121,9.121,0.0,9.121,9.121,0.0,9.1248,9.1325,0.0,0.0,9.1595,9.2826,9.3595,9.2864,9.4143,9.5451,9.6211,9.6288,9.6288,9.6288,9.6288,9.6288,9.6288,9.6288,9.6288,9.6288,9.6288,9.6288,9.6288,9.6288,9.6288,9.6288,9.6288,9.6288,9.6288,9.6288,9.6288,9.6288,9.6288,9.6288,9.6288,9.6288,9.6288,9.6288,9.6288,9.6288,9.6288,9.6288,9.6288,9.6288,9.6288,9.6288,9.6288,9.6288,9.6288,9.6288,9.6288,9.6288,9.6288,9.6288,9.6288,9.6288,9.6288,9.6288,9.6288,9.6288,9.6288,9.6288,9.6288,9.6288,9.6288,9.6288,9.6288,9.6288,9.6288,9.6288,9.6288,9.6288,9.6288,9.6288,9.6288,9.6288,9.6288,9.6288,9.6288,9.6249,9.6172,9.5365,9.4489,9.3633,9.2826,9.2018,9.1248,9.121,9.121,9.121,9.121,9.121,9.121,9.121,9.121,9.121,9.121,9.121,9.121,9.121,9.121,9.1941,9.1595,9.121,9.121,9.121,9.121,9.121,9.121,9.121,9.121,0.0,0.0,0.0,0.0,0.0,0.0,9.221,9.2903,9.2556,9.3527,9.4566,9.5441,9.598,9.6288,9.6288,9.6288,9.6288,9.6288,9.6288,9.6288,9.6288,9.6288,9.6288,9.6288,9.6288,9.6288,9.6288,9.6288,9.6288,9.6288,9.6288,9.6288,9.6288,9.6288,9.6288,9.6288,9.6288,9.6288,9.6288,9.6288,9.6288,9.6288,9.6288,9.6288,9.6288,9.6288,9.6288,9.6288,9.6288,9.6288,9.6288,9.6288,9.6288,9.6288,9.6288,9.6288,9.6288,9.6288,9.6288,9.6288,9.6288,9.6288,9.6288,9.6288,9.6288,9.6288,9.6288,9.6288,9.6288,9.6288,9.6288,9.6288,9.6288,9.6288,9.6288,9.6288,9.6288,9.6288,9.6288,9.6288,9.6288,9.6288,9.5518,9.4643,9.3749,9.2941,9.2133,9.1248,9.121,9.121,9.121,9.121,9.121,9.121,9.121,9.121,9.121,9.121,9.121,9.121,9.121,9.121,9.2826,9.221,9.1556,9.1556,9.1364,9.121,9.121,9.121,9.121,9.121,9.121,0.0,0.0,0.0,9.1133,9.0902,0.0,9.2056,9.1825,9.271,9.3787,9.4874,9.5788,9.6288,9.6288,9.6288,9.6288,9.6288,9.6288,9.6288,9.6288,9.6288,9.6288,9.6288,9.6288,9.6288,9.6288,9.6288,9.6288,9.6288,9.6288,9.6288,9.6288,9.6288,9.6288,9.6288,9.6288,9.6288,9.6288,9.6288,9.6288,9.6288,9.6288,9.6288,9.6288,9.6288,9.6288,9.6288,9.6288,9.6288,9.6288,9.6288,9.6288,9.6288,9.6288,9.6288,9.6288,9.6288,9.6288,9.6288,9.6288,9.6288,9.6288,9.6288,9.6288,9.6288,9.6288,9.6288,9.6288,9.6288,9.6288,9.6288,9.6288,9.6288,9.6288,9.6288,9.6288,9.6288,9.6288,9.6288,9.6288,9.6288,9.5711,9.4903,9.3787,9.3172,9.2364,9.1287,9.121,9.121,9.121,9.121,9.121,9.121,9.121,9.121,9.121,9.121,9.121,9.121,9.121,9.121,9.3672,9.3056,9.2441,9.2441,9.1825,9.121,9.121,9.121,9.121,9.121,9.121,9.121,9.121,9.121,0.0,0.0,9.0663,0.0,0.0,9.1479,9.3133,9.4797,9.5788,9.6288,9.6288,9.6288,9.6288,9.6288,9.6288,9.6288,9.6288,9.6288,9.6288,9.6288,9.6288,9.6288,9.6288,9.6288,9.6288,9.6288,9.6288,9.6288,9.6288,9.6288,9.6288,9.6288,9.6288,9.6288,9.6288,9.6288,9.6288,9.6288,9.6288,9.6288,9.6288,9.6288,9.6288,9.6288,9.6288,9.6288,9.6288,9.6288,9.6288,9.6288,9.6288,9.6288,9.6288,9.6288,9.6288,9.6288,9.6288,9.6288,9.6288,9.6288,9.6288,9.6288,9.6288,9.6288,9.6288,9.6288,9.6288,9.6288,9.6288,9.6288,9.6288,9.6288,9.6288,9.6288,9.6288,9.6288,9.6288,9.6288,9.6288,9.5557,9.3864,9.3672,9.2941,9.1287,9.121,9.121,9.121,9.121,9.121,9.121,9.121,9.121,9.121,9.121,9.121,9.121,9.121,9.121,9.4566,9.395,9.3287,9.3287,9.2672,9.2056,9.2056,9.1595,9.121,9.121,9.121,9.121,9.121,9.121,0.0,0.0,0.0,9.1095,0.0,9.1748,9.271,9.3296,9.4566,9.5451,9.5451,9.5942,9.6288,9.6288,9.6288,9.6288,9.6288,9.6288,9.6288,9.6288,9.6288,9.6288,9.6288,9.6288,9.6288,9.6288,9.6288,9.6288,9.6288,9.6288,9.6288,9.6288,9.6288,9.6288,9.6288,9.6288,9.6288,9.6288,9.6288,9.6288,9.6288,9.6288,9.6288,9.6288,9.6288,9.6288,9.6288,9.6288,9.6288,9.6288,9.6288,9.6288,9.6288,9.6288,9.6288,9.6288,9.6288,9.6288,9.6288,9.6288,9.6288,9.6288,9.6288,9.6288,9.6288,9.6288,9.6288,9.6288,9.6288,9.6288,9.6288,9.6288,9.6288,9.6288,9.6288,9.6288,9.6288,9.6288,9.6288,9.5595,9.3864,9.2672,9.1787,9.1248,9.121,9.121,9.121,9.121,9.121,9.121,9.121,9.121,9.121,9.121,9.121,9.121,9.121,9.121,9.5441,9.4835,9.4181,9.4181,9.3518,9.2941,9.2941,9.2479,9.2095,9.2095,9.2095,9.2095,9.2095,9.1864,9.1672,0.0,0.0,0.0,0.0,9.1672,9.2056,9.2056,9.3796,9.4989,9.4989,9.5788,9.6288,9.6288,9.6288,9.6288,9.6288,9.6288,9.6288,9.6288,9.6288,9.6288,9.6288,9.6288,9.6288,9.6288,9.6288,9.6288,9.6288,9.6288,9.6288,9.6288,9.6288,9.6288,9.6288,9.6288,9.6288,9.6288,9.6288,9.6288,9.6288,9.6288,9.6288,9.6288,9.6288,9.6288,9.6288,9.6288,9.6288,9.6288,9.6288,9.6288,9.6365,9.6634,9.6519,9.6365,9.6634,9.6519,9.6288,9.6288,9.6288,9.6288,9.6288,9.6288,9.6288,9.6288,9.6288,9.6288,9.6288,9.6288,9.6288,9.6288,9.6288,9.6288,9.6288,9.6288,9.6288,9.6288,9.6288,9.5595,9.3864,9.2172,9.121,9.121,9.121,9.121,9.121,9.121,9.1364,9.1672,9.1364,9.1364,9.1672,9.1364,9.121,9.121,9.121,9.121]}]]